[[{"header":{"parameterUnit":"m.s-1","parameterCategory":1,"la1":30.6,"la2":29.2853,"lo1":-89.7004,"lo2":-87.6739,"dx":0.0162,"dy":0.0183,"nx":112,"ny":82,"refTime":"2023-01-31T06:00:00:Z","depth":0,"parameterNumber":2,"parameterNumberName":"U-component_of_WINDS"},"data":[0.0,0.0,0.0,0.0,0.0,0.0,0.0,0.0,0.0,0.0,0.0,0.0,0.0,0.0,0.0,0.0,0.0,0.0,0.0,0.0,0.0,0.0,0.0,0.0,0.0,0.0,0.0,0.0,0.0,0.0,0.0,0.0,0.0,0.0,0.0,0.0,0.0,0.0,0.0,0.0,0.0,0.0,0.0,0.0,0.0,0.0,0.0,0.0,0.0,0.0,0.0,0.0,0.0,0.0,0.0,0.0,0.0,0.0,0.0,0.0,0.0,0.0,0.0,0.0,0.0,0.0,0.0,0.0,0.0,0.0,0.0,0.0,0.0,0.0,0.0,0.0,0.0,0.0,0.0,0.0,0.0,0.0,0.0,0.0,0.0,0.0,0.0,0.0,0.0,0.0,0.1371,0.1497,0.1693,0.1773,0.1685,0.1553,0.1309,0.0899,0.0,0.0,0.0,0.0,0.0,0.0,0.0,0.0,0.0,0.0,0.0,0.0,0.0,0.0,0.0,0.0,0.0,0.0,0.0,0.0,0.0,0.0,0.0,0.0,0.0,0.0,0.0,0.0,0.0,0.0,0.0,0.0,0.0,0.0,0.0,0.0,0.0,0.0,0.0,0.0,0.0,0.0,0.0,0.0,0.0,0.0,0.0,0.0,0.0,0.0,0.0,0.0,0.0,0.0,0.0,0.0,0.0,0.0,0.0,0.0,0.0,0.0,0.0,0.0,0.0,0.0,0.0,0.0,0.0,0.0,0.0,0.0,0.0,0.0,0.0,0.0,0.0,0.0,0.0,0.0,0.0,0.0,0.0,0.0,0.0,0.0,0.0,0.0,0.0,0.0,0.0,0.0,0.0,0.0,0.0,0.0,0.0,0.0,0.0,0.0,0.0,0.0,0.0,0.0,0.1435,0.1562,0.1719,0.1717,0.155,0.1197,0.0819,0.0356,0.0,0.0,0.0,0.0,0.0,0.0,0.0,0.0,0.0,0.0,0.0,0.0,0.0,0.0,0.0,0.0,0.0,0.0,0.0,0.0,0.0,0.0,0.0,0.0,0.0,0.0,0.0,0.0,0.0,0.0,0.0,0.0,0.0,0.0,0.0,0.0,0.0,0.0,0.0,0.0,0.0,0.0,0.0,0.0,0.0,0.0,0.0,0.0,0.0,0.0,0.0,0.0,0.0,0.0,0.0,0.0,0.0,0.0,0.0,0.0,0.0,0.0,0.0,0.0,0.0,0.0,0.0,0.0,0.0,0.0,0.0,0.0,0.0,0.0,0.0,0.0,0.0,0.0,0.0,0.0,0.0,0.0,0.0,0.0,0.0,0.0,0.0,0.0,0.0,0.0,0.0,0.0,0.0,0.0,0.0,0.0,0.0,0.0,0.0,0.0,0.0,0.0,0.0,0.1471,0.1529,0.1584,0.1372,0.118,0.1065,0.0586,0.0076,-0.0415,-0.0395,0.0,0.0,0.0,0.0,0.0,0.0,0.0,0.0,0.0,0.0,0.0,0.0,0.0,0.0,0.0,0.0,0.0,0.0,0.0,0.0,0.0,0.0,0.0,0.0,0.0,0.0,0.0,0.0,0.0,0.0,0.0,0.0,0.0,0.0,0.0,0.0,0.0,0.0,0.0,0.0,0.0,0.0,0.0,0.0,0.0,0.0,0.0,0.0,0.0,0.0,0.0,0.0,0.0,0.0,0.0,0.0,0.0,0.0,0.0,0.0,0.0,0.0,0.0,0.0,0.0,0.0,0.0,0.0,0.0,0.0,0.0,0.0,0.0,0.0,0.0,0.0,0.0,0.0,0.0,0.0,0.0,0.0,0.0,0.0,0.0,0.0,0.0,0.0,0.0,0.0,0.0,0.0,0.0,0.0,0.0,0.0,0.0,0.0,0.0,0.0,0.0,0.0,0.1491,0.1525,0.1563,0.1059,0.0746,0.0725,0.0174,-0.0379,-0.084,-0.0948,0.0,0.0,0.0,0.0,0.0,0.0,0.0,0.0,0.0,0.0,0.0,0.0,0.0,0.0,0.0,0.0,0.0,0.0,0.0,0.0,0.0,0.0,0.0,0.0,0.0,0.0,0.0,0.0,0.0,0.0,0.0,0.0,0.0,0.0,0.0,0.0,0.0,0.0,0.0,0.0,0.0,0.0,0.0,0.0,0.0,0.0,0.0,0.0,0.0,0.0,0.0,0.0,0.0,0.0,0.0,0.0,0.0,0.0,0.0,0.0,0.0,0.0,0.0,0.0,0.0,0.0,0.0,0.0,0.0,0.0,0.0,0.0,0.0,0.0,0.0,0.0,0.0,0.0,0.0,0.0,0.0,0.0,0.0,0.0,0.0,0.0,0.0,0.0,0.0,0.0,0.0,0.0,0.0,0.0,0.0,0.0,0.0,0.0,0.0,0.0,0.0,0.0,0.1313,0.1334,0.1407,0.109,0.085,0.0791,0.0239,-0.0194,-0.0429,-0.0959,0.0,0.0,0.0,0.0,0.0,0.0,0.0,0.0,0.0,0.0,0.0,0.0,0.0,0.0,0.0,0.0,0.0,0.0,0.0,0.0,0.0,0.0,0.0,0.0,0.0,0.0,0.0,0.0,0.0,0.0,0.0,0.0,0.0,0.0,0.0,0.0,0.0,0.0,0.0,0.0,0.0,0.0,0.0,0.0,0.0,0.0,0.0,0.0,0.0,0.0,0.0,0.0,0.0,0.0,0.0,0.0,0.0,0.0,0.0,0.0,0.0,0.0,0.0,0.0,0.0,0.0,0.0,0.0,0.0,0.0,0.0,0.0,0.0,0.0,0.0,0.0,0.0,0.0,0.0,0.0,0.0,0.0,0.0,0.0,0.0,0.0,0.0,0.0,0.0,0.0,0.0,0.0,0.0,0.0,0.0,0.0,0.0,0.0,0.0,0.0,0.0,0.0,0.1408,0.1316,0.0,0.0565,0.005,-0.0231,-0.0844,-0.1283,-0.1384,0.0,0.0,0.0,0.0,0.0,0.0,0.0,0.0,0.0,0.0,0.0,0.0,0.0,0.0,0.0,0.0,0.0,0.0,0.0,0.0,0.0,0.0,0.0,0.0,0.0,0.0,0.0,0.0,0.0,0.0,0.0,0.0,0.0,0.0,0.0,0.0,0.0,0.0,0.0,0.0,0.0,0.0,0.0,0.0,0.0,0.0,0.0,0.0,0.0,0.0,0.0,0.0,0.0,0.0,0.0,0.0,0.0,0.0,0.0,0.0,0.0,0.0,0.0,0.0,0.0,0.0,0.0,0.0,0.0,0.0,0.0,0.0,0.0,0.0,0.0,0.0,0.0,0.0,0.0,0.0,0.0,0.0,0.0,0.0,0.0,0.0,0.0,0.0,0.0,0.0,0.0,0.0,0.0,0.0,0.0,0.0,0.0,0.0,0.0,0.0,0.0,0.0,0.1501,0.1386,0.1192,0.0,0.0149,-0.0489,-0.0856,-0.1512,-0.1891,-0.1865,0.0,0.0,0.0,0.0,0.0,0.0,0.0,0.0,0.0,0.0,0.0,0.0,0.0,0.0,0.0,0.0,0.0,0.0,0.0,0.0,0.0,0.0,0.0,0.0,0.0,0.0,0.0,0.0,0.0,0.0,0.0,0.0,0.0,0.0,0.0,0.0,0.0,0.0,0.0,0.0,0.0,0.0,0.0,0.0,0.0,0.0,0.0,0.0,0.0,0.0,0.0,0.0,0.0,0.0,0.0,0.0,0.0,0.0,0.0,0.0,0.0,0.0,0.0,0.0,0.0,0.0,0.0,0.0,0.0,0.0,0.0,0.0,0.0,0.0,0.0,0.0,0.0,0.0,0.0,0.0,0.0,0.0,0.0,0.0,0.0,0.0,0.0,0.0,0.0,0.0,0.0,0.0,0.0,0.0,0.0,0.0,0.0,0.0,0.0,0.0,0.0,0.0,0.1308,0.1187,0.0918,0.0447,-0.0089,-0.0537,-0.0873,-0.1512,-0.1818,0.0,0.0,0.0,0.0,0.0,0.0,0.0,0.0,0.0,0.0,0.0,0.0,0.0,0.0,0.0,0.0,0.0,0.0,0.0,0.0,0.0,0.0,0.0,0.0,0.0,0.0,0.0,0.0,0.0,0.0,0.0,0.0,0.0,0.0,0.0,0.0,0.0,0.0,0.0,0.0,0.0,0.0,0.0,0.0,0.0,0.0,0.0,0.0,0.0,0.0,0.0,0.0,0.0,0.0,0.0,0.0,0.0,0.0,0.0,0.0,0.0,0.0,0.0,0.0,0.0,0.0,0.0,0.0,0.0,0.0,0.0,0.0,0.0,0.0,0.0,0.0,0.0,0.0,0.0,0.0,0.0,0.0,0.0,0.0,0.0,0.0,0.0,0.0,0.0,0.0,0.0,0.0,0.0,0.0,0.0,0.0,0.0,0.0,0.0,0.0,0.0,0.0,0.0,0.1363,0.088,0.0421,0.0093,-0.0561,-0.1109,-0.1505,-0.193,-0.2106,-0.189,0.0,0.0,0.0,0.0,0.0,0.0,0.0,0.0,0.0,0.0,0.0,0.0,0.0,0.0,0.0,0.0,0.0,0.0,0.0,0.0,0.0,0.0,0.0,0.0,0.0,0.0,0.0,0.0,0.0,0.0,0.0,0.0,0.0,0.0,0.0,0.0,0.0,0.0,0.0,0.0,0.0,0.0,0.0,0.0,0.0,0.0,0.0,0.0,0.0,0.0,0.0,0.0,0.0,0.0,0.0,0.0,0.0,0.0,0.0,0.0,0.0,0.0,0.0,0.0,0.0,0.0,0.0,0.0,0.0,0.0,0.0,0.0,0.0,0.0,0.0,0.0,0.0,0.0,0.0,0.0,0.0,0.0,0.0,0.0,0.0,0.0,0.0,0.0,0.0,0.0,0.0,0.0,0.0,0.0,0.0,0.0,0.0,0.0,0.0,0.0,0.0,0.0,0.1355,0.0714,0.0116,-0.0232,-0.0919,-0.1523,-0.1936,-0.2251,-0.2349,-0.2168,0.0,0.0,0.0,0.0,0.0,0.0,0.0,0.0,0.0,0.0,0.0,0.0,0.0,0.0,0.0,0.0,0.0,0.0,0.0,0.0,0.0,0.0,0.0,0.0,0.0,0.0,0.0,0.0,0.0,0.0,0.0,0.0,0.0,0.0,0.0,0.0,0.0,0.0,0.0,0.0,0.0,0.0,0.0,0.0,0.0,0.0,0.0,0.0,0.0,0.0,0.0,0.0,0.0,0.0,0.0,0.0,0.0,0.0,0.0,0.0,0.0,0.0,0.0,0.0,0.0,0.0,0.0,0.0,0.0,0.0,0.0,0.0,0.0,0.0,0.0,0.0,0.0,0.0,0.0,0.0,0.0,0.0,0.0,0.0,0.0,0.0,0.0,0.0,0.0,0.0,0.0,0.0,0.0,0.0,0.0,0.0,0.0,0.0,0.0,0.0,0.0,0.0,0.1306,0.0604,-0.0045,-0.0475,-0.1217,-0.1817,-0.2187,-0.2459,-0.2545,-0.2436,0.0,0.0,0.0,0.0,0.0,0.0,0.0,0.0,0.0,0.0,0.0,0.0,0.0,0.0,0.0,0.0,0.0,0.0,0.0,0.0,0.0,0.0,0.0,0.0,0.0,0.0,0.0,0.0,0.0,0.0,0.0,0.0,0.0,0.0,0.0,0.0,0.0,0.0,0.0,0.0,0.0,0.0,0.0,0.0,0.0,0.0,0.0,0.0,0.0,0.0,0.0,0.0,0.0,0.0,0.0,0.0,0.0,0.0,0.0,0.0,-0.1533,0.0,0.0,0.0,0.0,0.0,0.0,0.0,0.0,0.0,0.0,0.0,0.0,0.0,0.0,0.0,0.0,0.0,0.0,0.0,0.0,0.0,0.0,0.0,0.0,0.0,0.0,0.0,0.0,0.0,0.0,0.0,0.0,0.0,0.0,0.0,0.0,0.0,0.0,0.0,0.0,0.0,0.1303,0.0277,-0.0517,-0.0713,-0.1634,-0.2257,-0.2338,-0.2506,-0.2599,-0.2552,-0.2575,0.0,0.0,0.0,0.0,0.0,0.0,0.0,0.0,0.0,0.0,0.0,0.0,0.0,0.0,0.0,0.0,0.0,0.0,0.0,0.0,0.0,0.0,0.0,0.0,0.0,0.0,0.0,0.0,0.0,0.0,0.0,0.0,0.0,0.0,0.0,0.0,0.0,0.0,0.0,0.0,0.0,0.0,0.0,0.0,0.0,0.0,0.0,0.0,0.0,0.0,0.0,0.0,0.0,0.0,0.0,0.0,0.0,0.0,0.0,0.0,-0.1747,0.0,0.0,0.0,0.0,0.0,0.0,0.0,0.0,0.0,0.0,0.0,0.0,0.0,0.0,0.0,0.0,0.0,0.0,0.0,0.0,0.0,0.0,0.0,0.0,0.0,0.0,0.0,0.0,0.0,0.0,0.0,0.0,0.0,0.0,0.0,0.0,0.0,0.0,0.0,0.0,0.0905,-0.0052,-0.0832,-0.1183,-0.1995,-0.2466,-0.2396,-0.2542,-0.2628,-0.2611,-0.2503,0.0,0.0,0.0,0.0,0.0,0.0,0.0,0.0,0.0,0.0,0.0,0.0,0.0,0.0,0.0,0.0,0.0,0.0,0.0,0.0,0.0,0.0,0.0,0.0,0.0,0.0,0.0,0.0,0.0,0.0,0.0,0.0,0.0,0.0,0.0,0.0,0.0,0.0,0.0,0.0,0.0,0.0,0.0,0.0,0.0,0.0,0.0,0.0,0.0,0.0,0.0,0.0,0.0,0.0,-0.2404,-0.2341,-0.2353,-0.2484,-0.2672,-0.2435,-0.2374,-0.2373,0.0,0.0,0.0,0.0,0.0,0.0,0.0,0.0,0.0,0.0,0.0,0.0,0.0,0.0,0.0,0.0,0.0,0.0,0.0,0.0,0.0,0.0,0.0,0.0,0.0,0.0938,0.1282,0.0,0.0,0.0,0.0,0.0,0.0,0.0,0.0,0.0,0.0,0.0,0.0,0.043,-0.0392,-0.1129,-0.1666,-0.2267,-0.2574,-0.247,-0.2603,-0.2686,-0.2609,-0.2399,-0.241,0.0,0.0,0.0,0.0,0.0,0.0,0.0,0.0,0.0,0.0,0.0,0.0,0.0,0.0,0.0,0.0,0.0,0.0,0.0,0.0,0.0,0.0,0.0,0.0,0.0,0.0,0.0,0.0,0.0,0.0,0.0,0.0,-0.3381,-0.3381,0.0,0.0,0.0,0.0,0.0,0.0,0.0,0.0,0.0,0.0,0.0,0.0,0.0,0.0,-0.2407,-0.2782,-0.2956,-0.2957,-0.3279,-0.3381,-0.3305,-0.3375,-0.34,-0.3353,-0.3275,0.0,-0.2484,-0.2392,0.0,0.0,0.0,0.0,0.0,0.0,0.0,0.0,0.0,0.0,0.0,0.0,0.0,0.0,0.0,0.0,0.0,0.0,0.0,0.0,0.0,0.0,0.1376,0.1142,0.1197,0.1242,0.0,0.126,0.1515,0.1375,0.0,0.0,0.0,0.0,0.0,0.0,0.0,0.0,0.0278,-0.0775,-0.1573,-0.1766,-0.233,-0.2668,-0.2656,-0.2676,-0.2685,-0.2674,-0.2657,-0.2663,-0.2691,-0.238,0.0,0.0,0.0,0.0,0.0,0.0,0.0,0.0,0.0,0.0,0.0,0.0,0.0,0.0,0.0,0.0,0.0,0.0,0.0,0.0,0.0,0.0,0.0,0.0,0.0,0.0,0.0,0.0,0.0,-0.3373,-0.3418,-0.347,-0.343,-0.3399,0.0,0.0,0.0,0.0,0.0,0.0,0.0,0.0,0.0,-0.2983,-0.3018,-0.3059,-0.314,-0.3362,-0.3457,-0.3457,-0.3647,-0.3685,-0.3688,-0.3687,-0.3683,-0.3684,-0.3643,-0.3419,-0.3076,-0.2697,-0.2348,-0.2034,0.0,0.0,0.0,0.0,0.0,-0.181,-0.1725,0.0,0.0,0.0,0.0,0.0,0.0,0.0,0.0,0.0,0.0,0.0,0.0,0.0,0.0,0.0423,0.055,0.0831,0.0941,0.0837,0.0849,0.0,0.1038,0.1066,0.1515,0.0,0.0,0.0,0.0,0.0,-0.0755,-0.1343,-0.1874,-0.2268,-0.2549,-0.2691,-0.2691,-0.2691,-0.2691,-0.2691,-0.2691,-0.2691,-0.2691,-0.2549,-0.2549,0.0,0.0,0.0,0.0,0.0,0.0,0.0,0.0,0.0,0.0,0.0,0.0,0.0,0.0,0.0,0.0,0.0,0.0,0.0,0.0,0.0,0.0,0.0,0.0,0.0,0.0,0.0,0.0,-0.3418,-0.3467,-0.3522,-0.3473,-0.3457,0.0,0.0,0.0,0.0,0.0,0.0,-0.3496,-0.3523,-0.355,-0.3658,-0.373,-0.3777,-0.3837,-0.3884,-0.3897,-0.3834,-0.3919,-0.393,-0.3909,-0.3932,-0.3927,-0.3905,-0.3859,-0.3759,-0.3635,-0.3079,-0.2783,-0.2611,-0.2367,-0.2232,0.0,-0.2151,-0.2187,-0.2294,-0.2213,-0.2238,-0.2207,-0.1512,0.0,-0.0715,-0.0093,0.0,0.0,0.0,0.0,0.0818,0.0093,0.0,0.0574,-0.0223,-0.0032,0.0414,0.0664,0.0313,0.0123,0.0,0.0428,0.0284,0.088,0.0,0.0,0.0,0.0,-0.1118,-0.1593,-0.1874,-0.2212,-0.2663,-0.2691,-0.2691,-0.2691,-0.2691,-0.2691,-0.2691,-0.2691,-0.2691,-0.2691,-0.2691,-0.2691,-0.2691,0.0,0.0,0.0,0.0,0.0,0.0,0.0,0.0,0.0,0.0,0.0,0.0,0.0,0.0,0.0,0.0,0.0,0.0,0.0,0.0,0.0,0.0,0.0,0.0,0.0,0.0,0.0,0.0,0.0,-0.3572,-0.3578,0.0,0.0,0.0,0.0,-0.3487,-0.356,-0.3646,-0.3777,-0.3826,-0.3836,-0.3798,-0.4051,-0.4063,-0.3893,-0.4065,-0.4108,-0.3982,-0.4191,-0.423,-0.4198,-0.4236,-0.4228,-0.4185,-0.3969,-0.3889,-0.3871,-0.3641,-0.3325,-0.2956,-0.281,-0.2608,-0.2358,-0.2232,-0.2486,-0.2842,-0.2767,-0.2943,-0.3078,-0.2708,-0.1839,-0.0863,-0.0776,-0.0216,0.0,0.0,0.0408,0.0256,-0.016,0.0067,0.0278,-0.0348,-0.0139,0.0173,0.0,-0.0229,-0.0318,0.0,-0.0419,-0.0732,-0.0674,0.0,-0.067,-0.0642,-0.1146,-0.1621,-0.1762,-0.2296,-0.2663,-0.2691,-0.2691,-0.2691,-0.2691,-0.2691,-0.2691,-0.2691,-0.2691,-0.2691,-0.2691,-0.2691,-0.2691,-0.2691,-0.2691,0.0,0.0,0.0,0.0,0.0,0.0,0.0,0.0,0.0,0.0,0.0,0.0,0.0,0.0,0.0,0.0,0.0,0.0,0.0,0.0,0.0,0.0,0.0,0.0,0.0,0.0,0.0,0.0,-0.3831,-0.3838,0.0,-0.3802,-0.3791,-0.3756,-0.3756,-0.384,-0.393,-0.4064,-0.4099,-0.4114,-0.4193,-0.4289,-0.4338,-0.4332,-0.4443,-0.4414,-0.4381,-0.4444,-0.4459,-0.4478,-0.4461,-0.4426,-0.4338,-0.4273,-0.421,-0.4146,-0.4028,-0.3742,-0.3389,-0.3321,-0.3241,-0.3086,-0.3059,-0.2995,-0.2868,-0.2591,-0.2372,-0.2162,-0.1843,-0.1443,-0.1078,-0.1014,-0.0805,-0.0503,-0.0134,-0.0068,-0.0137,-0.0313,-0.0248,-0.0252,-0.0863,-0.0898,-0.0788,-0.0851,-0.1299,-0.1669,-0.1584,-0.1511,-0.1333,-0.0938,-0.1588,-0.1992,-0.1488,-0.1962,-0.24,-0.2429,-0.2584,-0.2691,-0.2691,-0.2691,-0.2691,-0.2691,-0.2691,-0.2691,-0.2691,-0.2691,-0.2691,-0.2691,-0.2691,-0.2691,-0.2691,-0.2691,-0.2707,0.0,0.0,0.0,0.0,0.0,0.0,0.0,0.0,0.0,0.0,0.0,0.0,0.0,0.0,0.0,0.0,0.0,0.0,0.0,0.0,0.0,0.0,0.0,0.0,0.0,0.0,-0.3877,-0.4061,-0.4055,-0.4046,-0.4079,-0.4053,-0.4034,-0.4034,-0.4075,-0.421,-0.4348,-0.4336,-0.4391,-0.4479,-0.4491,-0.4571,-0.4621,-0.4604,-0.4604,-0.4621,-0.4604,-0.4618,-0.4618,-0.4618,-0.4585,-0.4479,-0.4496,-0.4447,-0.4387,-0.433,-0.4128,-0.3844,-0.3752,-0.3703,-0.3677,-0.3646,-0.3463,-0.321,-0.2742,-0.2303,-0.1917,-0.1498,-0.1276,-0.1199,-0.1142,-0.1136,-0.1103,-0.0897,-0.0828,-0.0905,-0.1262,-0.1233,-0.1233,-0.1794,-0.182,-0.1697,-0.1695,-0.2159,-0.2584,-0.2584,-0.244,-0.2158,-0.1745,-0.2401,-0.2831,-0.2279,-0.2552,-0.2798,-0.2798,-0.2748,-0.2691,-0.2691,-0.2691,-0.2691,-0.2691,-0.2691,-0.2691,-0.2691,-0.2691,-0.2691,-0.2691,-0.2691,-0.2691,-0.2691,-0.2721,-0.2738,-0.2738,0.0,0.0,0.0,0.0,0.0,0.0,0.0,0.0,0.0,0.0,0.0,0.0,0.0,0.0,0.0,0.0,0.0,0.0,0.0,0.0,0.0,0.0,0.0,-0.3837,-0.3854,-0.3983,-0.4206,-0.4259,-0.4277,-0.4241,-0.4263,-0.4312,-0.4312,-0.4395,-0.4487,-0.4575,-0.4665,-0.4671,-0.4631,-0.4745,-0.4753,-0.4629,-0.4669,-0.4667,-0.4629,-0.4669,-0.4712,-0.4712,-0.4712,-0.471,-0.4704,-0.4616,-0.4625,-0.4625,-0.4621,-0.4467,-0.4281,-0.4016,-0.3963,-0.3984,-0.3936,-0.3918,-0.3885,-0.3316,-0.2828,-0.2418,-0.192,-0.1502,-0.1245,-0.1245,-0.1245,-0.1363,-0.1812,-0.1863,-0.2026,-0.2932,-0.2829,-0.2591,-0.3023,-0.2814,-0.2536,-0.2536,-0.2785,-0.303,-0.303,-0.3116,-0.3204,-0.3202,-0.3089,-0.3001,-0.2999,-0.2895,0.0,-0.2806,-0.2754,-0.2695,-0.2695,-0.2693,-0.2691,-0.2691,-0.2691,-0.2691,-0.2691,-0.2691,-0.2691,-0.2691,-0.2691,-0.2691,-0.2691,-0.2752,-0.2798,-0.2798,0.0,0.0,0.0,0.0,0.0,0.0,0.0,0.0,0.0,0.0,0.0,0.0,0.0,0.0,0.0,0.0,0.0,0.0,0.0,0.0,0.0,0.0,-0.3976,-0.3967,-0.4148,-0.4332,-0.4495,-0.4483,-0.4514,-0.4557,-0.4583,-0.4596,-0.4596,-0.4675,-0.4687,-0.4761,-0.4785,-0.4787,-0.4763,-0.476,-0.4762,-0.4763,-0.4787,-0.4787,-0.4763,-0.4787,-0.475,-0.475,-0.475,-0.4767,-0.4708,-0.4683,-0.4671,-0.4665,-0.46,-0.459,-0.4477,-0.4269,-0.4126,-0.399,-0.3966,-0.3803,-0.3481,-0.3026,-0.2796,-0.2696,-0.2559,-0.2432,-0.235,-0.235,-0.235,-0.2394,-0.2533,-0.2537,-0.2571,-0.2705,-0.2657,-0.2645,-0.3035,-0.3007,-0.3031,-0.3378,-0.3513,-0.3574,-0.3574,-0.3521,-0.3461,-0.3436,-0.3383,-0.3362,-0.3294,0.0,0.0,-0.3026,-0.2885,-0.276,-0.276,-0.273,-0.2691,-0.2691,-0.2691,-0.2691,-0.2691,-0.2691,-0.2691,-0.2691,-0.2691,-0.2691,-0.2691,-0.2752,-0.2798,0.0,0.0,0.0,0.0,0.0,0.0,0.0,0.0,0.0,0.0,0.0,0.0,0.0,0.0,0.0,0.0,0.0,0.0,0.0,0.0,0.0,0.0,-0.4187,-0.4261,-0.4261,-0.4393,-0.4526,-0.4618,-0.4661,-0.4704,-0.4755,-0.4761,-0.4761,-0.4761,-0.4758,-0.4784,-0.4784,-0.4784,-0.4784,-0.4784,-0.4784,-0.4784,-0.4784,-0.4784,-0.4784,-0.4784,-0.4784,-0.4784,-0.4784,-0.4784,-0.4758,0.0,-0.4761,-0.4761,-0.4757,-0.4704,-0.4638,0.0,0.0,0.0,0.0,0.0,-0.3951,-0.3665,-0.324,-0.3093,-0.3026,-0.286,-0.2818,-0.2818,-0.2818,-0.2818,-0.2824,-0.3019,-0.307,-0.3023,-0.3136,-0.3151,-0.3191,-0.3354,-0.3427,-0.3538,-0.3742,-0.3833,-0.3849,-0.381,0.0,0.0,-0.3569,-0.3524,-0.3469,-0.3412,-0.3285,-0.316,0.0,-0.2966,-0.2881,-0.2881,-0.2863,-0.2816,-0.275,-0.2748,0.0,0.0,0.0,-0.2691,-0.2691,-0.2728,0.0,0.0,0.0,-0.2899,0.0,0.0,0.0,0.0,-0.2666,-0.2337,0.0,0.0,0.0,0.0,0.0,0.0,0.0,0.0,0.0,0.0,0.0,0.0,0.0,0.0,0.0,0.0,-0.444,-0.461,-0.463,-0.4632,-0.4655,-0.4716,-0.474,-0.4784,-0.4784,-0.4784,-0.4784,-0.4784,-0.4784,-0.4784,-0.4784,0.0,0.0,0.0,0.0,-0.4784,-0.4784,-0.4784,-0.4784,-0.4784,-0.4784,-0.4784,-0.4784,-0.4784,-0.4784,-0.4784,-0.4784,-0.4784,-0.4784,-0.4784,-0.473,-0.4608,-0.4459,-0.4377,-0.4312,-0.4304,-0.4253,0.0,0.0,0.0,0.0,-0.3092,-0.2966,-0.2966,-0.2966,-0.2966,-0.3063,-0.3467,-0.3516,-0.3505,-0.3907,-0.3991,-0.3908,-0.3855,-0.3918,-0.395,-0.383,-0.3848,-0.3875,-0.3835,-0.381,-0.3775,-0.3654,-0.3571,-0.3481,-0.3414,-0.3293,0.0,-0.3117,-0.3057,-0.3001,-0.3001,0.0,0.0,-0.2804,-0.2798,-0.276,-0.2697,-0.2701,-0.2707,-0.2707,-0.2793,-0.2812,-0.2812,-0.2956,-0.304,-0.3091,-0.3101,-0.3146,-0.3192,-0.2584,-0.2315,0.0,0.0,0.0,0.0,0.0,0.0,0.0,0.0,0.0,0.0,0.0,0.0,0.0,0.0,0.0,-0.4565,-0.4706,-0.4836,-0.4983,-0.5004,-0.4955,-0.4776,-0.4774,-0.4784,-0.4784,-0.4784,-0.4784,-0.4784,-0.4784,-0.4784,-0.4784,-0.4784,0.0,-0.4784,-0.4784,-0.4784,-0.4784,-0.4784,-0.4784,-0.4784,0.0,0.0,-0.4784,-0.4784,-0.4784,-0.4784,-0.4784,-0.4784,-0.4784,-0.4784,-0.473,-0.4602,-0.4389,-0.4359,-0.4354,-0.4326,-0.4287,-0.4275,-0.4184,-0.4128,-0.4114,-0.4026,-0.4028,-0.4028,-0.4028,-0.4028,0.0,-0.4134,-0.4116,-0.412,-0.4159,-0.4132,-0.4097,-0.4004,-0.3968,-0.3984,-0.395,-0.3938,-0.3893,-0.3877,-0.3853,-0.3798,-0.3779,-0.3663,-0.3546,-0.3422,-0.3383,-0.3303,-0.3211,-0.3122,-0.3096,-0.3096,-0.3028,-0.295,-0.2804,-0.2798,-0.276,-0.2697,-0.276,-0.2772,-0.2772,-0.2883,-0.296,-0.296,-0.3049,-0.3073,-0.3091,-0.3164,-0.3176,-0.3192,-0.3058,-0.3023,0.0,0.0,0.0,0.0,0.0,0.0,0.0,0.0,0.0,0.0,0.0,-0.4469,0.0,0.0,-0.4577,-0.4804,-0.4914,-0.5004,-0.5096,-0.5067,-0.5006,-0.4914,-0.4904,-0.4885,-0.4788,-0.4784,-0.4784,-0.4784,-0.4784,-0.4784,-0.4784,-0.4784,-0.4784,-0.4784,-0.4784,-0.4784,-0.4784,-0.4784,-0.4784,-0.4784,-0.4784,-0.4784,-0.4784,-0.4784,-0.4784,-0.4784,-0.4784,-0.4784,-0.478,-0.474,-0.4745,-0.4685,-0.4506,-0.4408,-0.4361,-0.4316,-0.43,-0.43,-0.43,-0.43,-0.43,-0.43,-0.43,-0.43,-0.43,-0.43,-0.43,-0.43,-0.4269,-0.4226,-0.4227,-0.4216,-0.4151,-0.4017,-0.4061,-0.4142,-0.4012,-0.4036,-0.401,-0.3918,-0.3863,-0.3801,-0.371,-0.3656,-0.356,-0.3507,-0.3458,-0.3399,-0.3307,-0.3215,-0.3158,-0.3158,-0.3117,-0.3054,-0.2966,-0.2917,-0.29,-0.2855,-0.2894,-0.2891,-0.2891,-0.3007,-0.3053,-0.3053,-0.3111,-0.3158,-0.3158,-0.3172,-0.325,-0.3295,-0.3396,-0.337,0.0,0.0,0.0,0.0,0.0,0.0,0.0,0.0,-0.615,-0.5276,-0.5045,-0.4942,-0.4649,-0.4702,-0.4832,-0.4975,-0.509,-0.5155,-0.5137,-0.5071,-0.5012,-0.5027,-0.4955,-0.4916,-0.4792,-0.4784,-0.4784,-0.4784,-0.4784,-0.4784,-0.4784,-0.4784,-0.4784,-0.4784,-0.4784,-0.4784,-0.4784,-0.4784,-0.4784,-0.4784,-0.4784,-0.4784,-0.4784,-0.4784,-0.4784,-0.4784,-0.4784,-0.4784,-0.4778,-0.4761,-0.4763,-0.4746,-0.4655,-0.4498,-0.4353,-0.4353,-0.434,-0.4324,-0.4324,-0.4314,-0.43,-0.43,-0.43,-0.43,-0.43,-0.43,-0.43,-0.43,-0.4249,-0.4241,-0.4241,-0.4241,-0.4179,-0.4104,-0.4195,-0.4261,-0.4075,-0.4132,-0.4124,-0.3959,-0.3912,-0.3846,-0.3681,-0.3652,-0.364,-0.357,-0.3544,-0.3475,-0.3434,-0.3326,-0.3239,-0.3254,-0.3252,-0.3209,-0.3099,-0.3038,-0.3015,-0.3015,-0.3001,-0.3012,-0.3012,-0.3068,-0.3115,-0.3115,-0.3156,-0.3192,-0.3192,-0.321,-0.3291,-0.3399,-0.3589,-0.352,-0.7525,-0.7115,-0.6686,-0.6427,-0.6241,-0.6121,0.0,0.0,-0.5343,-0.5368,-0.4972,-0.4656,-0.4673,-0.4896,-0.5069,-0.509,-0.5239,-0.5322,-0.5186,-0.5166,-0.5153,-0.499,-0.49,-0.4796,-0.4786,-0.4784,-0.4784,-0.4784,-0.4784,-0.4784,-0.4784,-0.4784,-0.4784,-0.4784,-0.4784,-0.4784,-0.4784,-0.4784,-0.4784,-0.4784,-0.4784,-0.4784,-0.4784,-0.4784,-0.4784,-0.4784,-0.4784,-0.4784,-0.4782,-0.4774,-0.4781,-0.4722,-0.4702,-0.463,-0.459,-0.459,-0.4489,-0.4374,-0.4374,-0.4367,-0.43,-0.43,-0.43,-0.43,-0.43,-0.43,-0.43,-0.43,-0.4293,-0.4285,-0.4285,-0.4285,-0.4281,-0.4271,-0.4283,-0.4293,-0.4273,-0.422,-0.4142,-0.3998,-0.3955,-0.3867,-0.3804,-0.3787,-0.3734,-0.3538,-0.3505,-0.3495,-0.3487,-0.3477,-0.3438,-0.3391,-0.3383,-0.3313,-0.3105,-0.3038,-0.3015,-0.3015,-0.3061,-0.3075,-0.3075,-0.3162,-0.3178,-0.3178,-0.3188,-0.3192,-0.3192,-0.3309,-0.3387,-0.3401,-0.3482,-0.3585,-0.7841,-0.7312,-0.6772,-0.6583,-0.637,-0.6086,-0.5744,-0.5535,-0.536,-0.5083,-0.4893,-0.4769,-0.4914,-0.499,-0.5063,0.0,-0.5206,-0.5228,-0.5188,-0.5153,-0.5039,-0.4908,-0.4857,-0.4784,-0.4784,-0.4784,-0.4784,-0.4784,-0.4784,-0.4784,-0.4784,-0.4784,-0.4784,-0.4784,-0.4784,-0.4784,-0.4784,-0.4784,-0.4784,-0.4784,-0.4784,-0.4784,-0.4784,-0.4784,-0.4784,-0.4784,-0.4784,-0.4784,-0.4784,-0.4784,-0.4764,-0.4781,-0.4781,-0.4759,-0.4712,-0.461,-0.4549,-0.4516,-0.4516,-0.4455,-0.4379,-0.4379,-0.4342,-0.43,-0.43,-0.43,-0.43,-0.43,-0.43,-0.43,-0.43,-0.43,-0.43,-0.43,-0.43,-0.43,-0.43,-0.4232,-0.4204,-0.4124,-0.404,-0.3967,-0.3928,-0.3877,-0.3818,-0.3744,-0.3642,-0.3556,-0.3505,-0.3499,-0.3485,-0.3448,-0.3444,-0.3411,-0.3336,-0.3278,-0.3226,-0.3226,-0.3179,-0.3203,-0.3337,-0.3425,-0.3543,-0.3612,-0.3563,-0.3591,-0.3736,-0.367,-0.3646,-0.3702,-0.3999,-0.4161,-0.7618,-0.7118,-0.6639,-0.6417,-0.6156,-0.5831,-0.5379,-0.5384,-0.5331,-0.4946,-0.4859,-0.4943,-0.5051,-0.5037,-0.5045,-0.5153,-0.5135,-0.5122,-0.5163,-0.5032,-0.49,-0.481,-0.4777,-0.4771,-0.4748,-0.477,-0.4784,-0.4784,-0.4857,-0.4873,-0.4873,-0.4896,-0.4859,-0.4859,-0.4885,-0.4873,-0.4873,-0.4873,-0.4859,-0.4784,-0.4859,-0.4859,-0.4784,-0.4784,-0.4784,-0.4784,-0.4784,-0.4784,-0.4784,-0.4784,-0.4784,-0.4784,-0.4784,-0.4784,-0.4768,-0.4692,-0.463,-0.461,-0.461,-0.4551,-0.4473,-0.4473,-0.4412,-0.4336,-0.4336,-0.4318,-0.4304,-0.433,-0.4318,-0.4306,-0.433,-0.4318,-0.43,-0.43,-0.43,-0.43,-0.43,-0.4251,-0.4202,-0.422,-0.412,-0.4023,-0.3998,-0.394,-0.3928,-0.3903,-0.3787,-0.3661,-0.355,-0.3516,-0.3509,-0.3532,-0.3514,-0.3499,-0.3499,-0.3509,-0.3505,-0.3505,-0.3477,-0.3507,-0.3646,-0.3746,-0.3853,-0.3961,-0.3891,-0.3966,-0.4114,-0.3994,-0.3971,-0.4006,-0.4374,-0.4505,-0.6567,-0.6151,-0.583,-0.5348,-0.4987,-0.4794,-0.4967,-0.5081,-0.5096,-0.51,-0.51,-0.5075,-0.4992,-0.5047,-0.5077,-0.4994,-0.5053,-0.5077,-0.4992,-0.49,-0.4758,-0.4722,-0.4634,-0.4616,0.0,-0.4785,-0.4784,-0.4784,-0.4916,-0.5019,-0.5019,-0.5051,-0.51,-0.51,-0.5014,-0.5019,-0.5019,-0.5019,-0.4922,-0.4786,-0.4924,-0.492,-0.4784,-0.4784,-0.4784,-0.4784,-0.4784,-0.4784,-0.4784,-0.4784,-0.4784,-0.4784,-0.4784,-0.4784,-0.4782,-0.4778,-0.4775,-0.4704,-0.4704,-0.4645,-0.4616,-0.4616,-0.4506,-0.4384,-0.4384,-0.4369,-0.4318,-0.436,-0.4367,-0.4318,-0.4362,-0.4365,-0.43,-0.43,-0.43,-0.43,-0.43,-0.4297,-0.4271,-0.4233,-0.4214,-0.414,-0.4008,-0.3992,-0.396,-0.3914,-0.3893,-0.3826,-0.3606,-0.355,-0.3532,-0.3576,-0.3548,-0.3499,-0.3499,-0.3674,-0.3779,-0.3779,-0.3959,-0.4068,-0.4068,-0.407,-0.4109,-0.4109,-0.4075,-0.4077,-0.4114,-0.4219,-0.427,-0.4277,-0.4373,-0.4499,-0.6925,-0.6594,-0.6276,-0.5757,-0.529,-0.5006,-0.5124,-0.5175,-0.5144,-0.5144,-0.501,-0.4814,-0.4724,-0.4732,-0.4743,-0.4761,-0.483,-0.4937,-0.4967,-0.4892,-0.4829,-0.4822,-0.4789,0.0,0.0,0.0,0.0,-0.478,-0.492,-0.5023,-0.5023,-0.5059,-0.5108,-0.5108,-0.5018,-0.5023,-0.5023,-0.4912,-0.4865,-0.4784,-0.4867,-0.4863,-0.4784,-0.4784,-0.4784,-0.4784,-0.4784,-0.4784,-0.4784,-0.4784,-0.4784,-0.4784,-0.4784,-0.4784,-0.4784,-0.4784,-0.4766,-0.4742,-0.4742,-0.4734,-0.4653,-0.4591,-0.451,-0.4388,-0.4388,-0.4371,-0.4318,-0.4364,-0.4368,-0.435,-0.438,-0.4457,-0.4465,-0.4404,-0.4436,-0.4447,-0.4326,-0.43,-0.4291,-0.4263,-0.4341,-0.4394,-0.447,-0.4554,-0.4518,-0.4248,-0.4006,-0.3826,-0.3726,-0.3846,-0.3917,-0.3947,-0.4036,-0.4092,-0.4092,-0.4108,-0.4145,-0.4145,-0.4115,-0.4147,-0.429,-0.4397,-0.4477,-0.4551,-0.4513,-0.4551,-0.4705,-0.4589,-0.4568,-0.4568,-0.4722,-0.4779,-0.7122,-0.6879,-0.6617,-0.5797,-0.5385,-0.5171,-0.5176,-0.519,-0.5154,-0.5027,-0.4869,-0.4653,-0.4465,-0.4476,-0.4418,-0.4385,-0.4502,-0.464,-0.4763,-0.4779,-0.4819,-0.4956,-0.4981,-0.505,0.0,0.0,0.0,-0.4828,-0.4951,-0.502,-0.502,-0.5139,-0.5206,-0.5206,-0.5116,-0.5053,-0.502,-0.4961,-0.4916,-0.4883,-0.48,-0.4784,-0.4784,-0.4784,-0.4784,-0.4784,-0.4784,-0.4784,-0.4784,-0.4784,-0.4784,-0.4784,-0.4784,-0.4784,-0.4784,-0.4784,-0.4784,-0.478,-0.475,-0.4773,-0.4734,-0.4612,-0.4555,-0.4473,-0.4408,-0.4418,-0.441,-0.4467,-0.4483,-0.4491,-0.4524,-0.4553,-0.4557,-0.4498,-0.4528,-0.453,-0.4379,-0.4394,-0.4473,-0.444,-0.4561,-0.4715,-0.4781,-0.4872,-0.4836,-0.4603,-0.4355,-0.4127,-0.398,-0.4099,-0.4194,-0.4194,-0.4309,-0.4384,-0.4384,-0.4443,-0.4444,-0.4444,-0.4415,-0.4484,-0.4593,-0.4704,-0.4784,-0.486,-0.482,-0.4859,-0.5018,-0.4859,-0.4818,-0.4818,-0.4937,-0.4937,-0.7089,-0.6952,-0.6802,-0.5506,-0.5192,-0.519,-0.519,-0.5176,-0.5067,-0.4779,-0.4692,-0.4569,0.0,0.0,-0.4144,-0.4014,-0.413,-0.4305,-0.443,-0.469,-0.4942,0.0,0.0,0.0,0.0,0.0,0.0,-0.5092,0.0,-0.5163,-0.5167,-0.5338,-0.5437,-0.5437,-0.5402,-0.5256,-0.5169,-0.5159,-0.5109,-0.5124,-0.4979,-0.4935,-0.4983,-0.4935,-0.4935,-0.4935,-0.4935,-0.4935,-0.4935,-0.4935,-0.4935,-0.4935,-0.4885,-0.4885,-0.4935,-0.4834,-0.4834,-0.4822,-0.4738,-0.4765,-0.4756,-0.4634,-0.4634,-0.4669,-0.4453,-0.4504,-0.4614,-0.4625,-0.4627,-0.4647,-0.4685,-0.4649,-0.4633,-0.4627,-0.4629,-0.4606,-0.4457,-0.4625,-0.4785,-0.4732,-0.4888,-0.5018,-0.5062,-0.5013,-0.4977,-0.4928,-0.4913,-0.4754,-0.4299,-0.4346,-0.444,-0.444,-0.4433,-0.4431,-0.4431,-0.4623,-0.4701,-0.4701,-0.4898,-0.5018,-0.5018,-0.5018,-0.5018,-0.5018,-0.5018,-0.5018,-0.5018,-0.5018,-0.5018,-0.5018,-0.5018,-0.5018,-0.7361,-0.7274,-0.7256,-0.5751,-0.5296,-0.519,-0.519,-0.4984,-0.4818,-0.4728,-0.4442,-0.4116,-0.3997,0.0,0.0,-0.414,-0.4561,0.0,-0.4965,-0.5225,0.0,-0.6694,0.0,-0.7394,-0.8315,-0.8459,0.0,0.0,-0.6752,-0.5778,-0.5854,-0.598,-0.6051,-0.6051,-0.6816,-0.6794,-0.5858,-0.5707,-0.6026,-0.6762,-0.6239,-0.6431,-0.7176,-0.6783,-0.6587,-0.6587,-0.6587,-0.6587,-0.6587,-0.6587,-0.6587,-0.6537,-0.5939,-0.6037,-0.6437,-0.5233,-0.5188,-0.5575,-0.4935,-0.4765,-0.4766,-0.4708,-0.4645,-0.4612,-0.4632,-0.4703,-0.4735,-0.4685,-0.4817,-0.4918,-0.4751,-0.4888,-0.5051,-0.4977,-0.5159,-0.5291,-0.5039,-0.5095,-0.5165,-0.5105,-0.5269,-0.5496,-0.563,-0.547,-0.5272,-0.5289,-0.5286,-0.5119,-0.465,-0.476,-0.4905,-0.4905,-0.495,-0.4981,-0.4981,-0.4946,-0.4937,-0.4937,-0.4976,-0.5018,-0.5018,-0.5018,-0.5018,-0.5018,-0.5018,-0.5018,-0.5018,-0.5018,-0.5018,-0.5018,-0.5018,-0.5018,-0.7632,-0.7337,-0.7004,-0.5647,-0.5282,-0.515,-0.4992,-0.4853,-0.4653,-0.4455,-0.4168,-0.3942,-0.3812,-0.3978,-0.4161,0.0,0.0,0.0,-0.5165,-0.5904,-0.6677,0.0,-0.8199,0.0,-0.9576,-0.976,-0.9899,0.0,-0.8448,-0.7585,-0.7606,-0.774,-0.7811,-0.7811,-0.8446,-0.8342,-0.7532,-0.7376,-0.7547,-0.7989,-0.7609,-0.777,-0.8365,-0.8021,-0.7922,-0.7922,0.0,-0.7922,-0.7922,-0.7922,-0.7922,-0.7875,-0.7428,-0.7528,-0.7776,-0.6874,-0.6825,-0.7167,-0.6648,-0.6226,-0.5755,-0.5074,-0.4927,-0.5019,-0.4982,-0.5036,-0.5099,-0.5068,-0.5174,-0.5304,-0.5158,-0.5248,-0.5375,-0.5315,-0.5444,-0.5575,-0.5358,-0.5451,-0.5556,-0.5587,-0.5707,-0.583,-0.5912,-0.5759,-0.5607,-0.556,-0.5552,-0.5416,-0.516,-0.5225,-0.5257,-0.5246,-0.5216,-0.5186,-0.5186,-0.5083,-0.5018,-0.5018,-0.5018,-0.5018,-0.5018,-0.5018,-0.5018,-0.5018,-0.5018,-0.5018,-0.5018,-0.5018,-0.5018,-0.5018,-0.5018,-0.5018,-0.7899,-0.7284,-0.6465,-0.5429,-0.5172,-0.5067,-0.4785,-0.4671,-0.4522,-0.4075,-0.3974,-0.3885,-0.3687,-0.3874,-0.411,-0.4229,0.0,-0.4961,-0.5281,-0.6573,-0.7596,-0.7872,-0.9291,-1.0319,-1.0497,-1.0677,-1.0857,-1.0963,-1.0531,-1.0045,-0.9777,-0.9864,-0.9998,-1.0163,-0.9998,-0.985,-0.9694,-0.9417,-0.9252,-0.9133,-0.9065,-0.9103,-0.9201,-0.9152,-0.9103,-0.9103,0.0,0.0,-0.9103,-0.9103,-0.9103,-0.9103,-0.9004,-0.9004,-0.9103,-0.8856,-0.8856,-0.8954,-0.8856,-0.8212,-0.723,-0.5739,-0.535,-0.5453,-0.5422,-0.5454,-0.5521,-0.5501,-0.557,-0.5636,-0.5586,-0.5636,-0.5636,-0.5636,-0.5684,-0.5708,-0.5608,-0.5779,-0.5991,-0.6082,-0.6111,-0.6072,-0.5947,-0.5915,-0.5863,-0.5704,-0.5688,-0.5688,-0.5688,-0.5597,-0.5491,-0.5428,-0.5292,-0.5211,-0.5211,-0.5091,-0.5018,-0.5018,-0.5018,-0.5018,-0.5018,-0.5018,-0.5018,-0.5018,-0.5018,-0.5018,-0.5018,-0.5018,-0.5018,-0.5018,-0.5018,-0.5018,-0.7949,-0.7284,-0.6465,-0.5429,-0.513,-0.4965,-0.4757,-0.4479,-0.4222,-0.4025,-0.3916,-0.3835,-0.3787,-0.3855,-0.4071,-0.4519,-0.4921,-0.5291,-0.5809,-0.7048,-0.8305,0.0,-1.0748,-1.1968,-1.3044,-1.3386,0.0,0.0,0.0,-1.2537,-1.0619,-1.0542,-1.0996,-1.1919,-1.1051,-1.0895,-1.1636,-1.0494,-1.0254,-1.0925,-1.0416,-1.0587,-1.1433,-1.0993,-1.0797,-1.0797,0.0,0.0,-1.0797,-1.0797,-1.0797,-1.0694,-1.0047,-1.0199,-1.0596,-0.9304,-0.9201,-0.9698,-0.9053,-0.8803,-0.8621,-0.713,-0.6072,-0.537,-0.5439,-0.5554,-0.5674,-0.561,-0.5774,-0.5889,-0.5636,-0.5789,-0.5942,-0.5942,-0.6089,-0.6255,-0.6195,-0.622,-0.6214,-0.6241,-0.6284,-0.6246,-0.6075,-0.5969,-0.5863,-0.5704,-0.5688,-0.5688,-0.5688,-0.5672,-0.565,-0.5629,-0.5469,-0.5377,-0.5377,-0.514,-0.5018,-0.5018,-0.5018,-0.5018,-0.5018,-0.5018,-0.5018,-0.5018,-0.5018,-0.5018,-0.5018,-0.5018,-0.5018,-0.5018,-0.5018,-0.5018,-0.7961,-0.7284,-0.645,-0.5422,-0.5071,-0.4888,-0.4567,-0.4326,-0.4159,-0.3932,-0.3864,-0.3802,-0.3802,-0.3956,-0.4259,-0.472,-0.5017,-0.5565,-0.6757,-0.787,-0.912,-1.0619,-1.1936,-1.2988,-1.3745,-1.4046,0.0,0.0,0.0,0.0,-1.2595,-1.254,-1.2758,-1.3305,-1.2812,-1.2656,-1.2971,-1.2224,-1.2006,-1.2294,-1.1826,-1.1922,-1.2419,-1.2175,-1.2029,-1.2029,0.0,0.0,-1.2029,-1.2029,-1.2029,-1.198,-1.1629,-1.1678,-1.1927,-1.1179,-1.1126,-1.138,-1.1028,-1.0583,-1.0102,-0.9336,-0.8317,-0.748,-0.7579,-0.723,-0.678,-0.6825,-0.6534,-0.6189,-0.6037,-0.6087,-0.6189,-0.6189,-0.6287,-0.6371,-0.6369,-0.6355,-0.6355,-0.6355,-0.6355,-0.632,-0.62,-0.6078,-0.5958,-0.5839,-0.5726,-0.5863,-0.6349,-0.6438,-0.626,-0.5733,-0.5572,-0.5464,-0.5464,-0.5243,-0.5105,-0.5105,-0.505,-0.5171,-0.5592,-0.5628,-0.5822,-0.6279,-0.6318,-0.6318,-0.6318,-0.6318,-0.6318,-0.6318,-0.6318,-0.6318,-0.8223,-0.7555,-0.6711,-0.5632,-0.532,-0.5103,-0.4439,-0.4243,-0.4124,-0.3849,-0.3802,-0.3802,-0.3802,-0.4018,-0.434,-0.4825,-0.5169,-0.5947,-0.7553,-0.8769,-0.9976,-1.1417,-1.2741,0.0,-1.3873,-1.4078,0.0,0.0,0.0,0.0,-1.4196,-1.4196,-1.4196,-1.4196,-1.4196,-1.4073,-1.382,-1.3642,-1.34,-1.3104,-1.292,-1.2862,-1.2813,-1.2813,-1.2813,-1.2813,0.0,0.0,0.0,-1.2813,-1.2813,-1.2813,-1.2813,-1.2813,-1.2813,-1.2813,-1.2813,-1.2813,-1.2813,-1.2262,-1.1541,-1.1428,-1.0475,-0.9408,-0.9506,-0.8911,-0.8163,-0.8322,-0.7726,-0.708,-0.708,-0.708,-0.708,-0.708,-0.693,-0.6734,-0.6734,-0.6734,-0.6734,-0.6734,-0.6734,-0.6793,-0.6915,-0.69,-0.6726,-0.6563,-0.6499,-0.6688,-0.7319,-0.7445,-0.7183,-0.6393,-0.6185,-0.6104,-0.6104,-0.59,-0.5746,-0.5746,-0.5626,-0.5822,-0.6468,-0.6472,-0.683,-0.7559,-0.7559,-0.7559,-0.7559,-0.7639,-0.7614,-0.7579,-0.7657,-0.7712,-0.9051,-0.8426,-0.7639,-0.6533,-0.6235,-0.5853,-0.4589,-0.4233,-0.4138,-0.3864,-0.3802,-0.3802,-0.3802,-0.3808,-0.4063,-0.477,-0.562,-0.6574,-0.7661,-0.9446,-1.095,-1.1746,0.0,0.0,-1.4116,-1.418,0.0,0.0,0.0,0.0,0.0,-1.4196,-1.4196,-1.4196,-1.4196,-1.4073,-1.382,-1.3798,-1.3561,-1.3104,-1.3082,-1.2964,-1.2813,-1.2813,-1.2813,-1.2813,0.0,0.0,0.0,-1.2813,-1.2813,-1.2813,-1.2813,-1.2813,-1.2813,-1.2813,-1.2813,-1.2813,-1.2813,-1.2759,-1.2662,-1.264,-1.1168,-0.9384,-0.9404,-0.9348,-0.9276,-0.9408,-0.9361,-0.9312,-0.9312,-0.9312,-0.9312,-0.9312,-0.8566,-0.7875,-0.7875,-0.7875,-0.7875,-0.7875,-0.7875,-0.8121,-0.8979,-0.9084,-0.9005,-0.8675,-0.8787,-0.8763,-0.8432,-0.8584,-0.8627,-0.8281,-0.8166,-0.8148,-0.8148,-0.778,-0.7581,-0.7581,-0.7371,-0.731,-0.7387,-0.7387,-0.7502,-0.7751,-0.7755,-0.7755,-0.7755,-0.8035,-0.802,-0.777,-0.8192,-0.8426,-0.9421,-0.8977,-0.8351,-0.7759,-0.681,-0.5986,-0.5721,-0.4925,-0.42,-0.4008,-0.3999,-0.3999,-0.3999,-0.4384,-0.478,-0.4974,-0.6087,-0.728,-0.8303,-0.9502,-1.0856,-1.2449,-1.2997,0.0,0.0,0.0,0.0,0.0,0.0,0.0,0.0,-1.4196,-1.4196,-1.4196,-1.4196,-1.4148,-1.4046,-1.376,-1.3518,-1.3324,-1.3039,-1.2899,-1.2813,-1.2813,-1.2813,-1.2813,0.0,0.0,0.0,-1.2813,-1.2813,-1.2813,-1.2813,-1.2813,-1.2813,-1.2813,-1.2813,-1.2813,-1.2813,-1.2813,-1.2813,-1.2813,-1.2206,-1.1448,-1.1448,-1.1008,-1.048,-1.056,-1.0096,-0.9608,-0.9608,-0.9608,-0.9608,-0.9608,-0.9258,-0.8962,-0.8962,-0.911,-0.9209,-0.9209,-0.9349,-0.9563,-0.9936,-0.9784,-0.9579,-0.9476,-0.9306,-0.9354,-0.9715,-0.9836,-1.0101,-1.0549,-0.9304,-0.8477,-0.8477,-0.8371,-0.8346,-0.8346,-0.8326,-0.8577,-0.9053,-0.9053,-0.9334,-0.9877,-0.9917,-0.9917,-0.9917,-1.0004,-0.9998,-0.9903,-1.0084,-1.02,-0.9756,-0.9682,-0.944,-0.8612,-0.755,-0.6539,-0.6139,-0.5198,-0.4384,-0.4233,-0.4157,-0.4194,-0.4504,-0.4963,-0.5429,-0.5815,-0.698,-0.8177,-0.9184,-0.995,-1.1052,-1.2807,0.0,-1.3287,0.0,0.0,0.0,0.0,0.0,0.0,0.0,-1.4196,-1.4196,-1.4196,-1.4196,-1.4159,-1.4083,-1.3744,-1.3507,-1.3362,-1.3028,-1.2878,-1.2813,-1.2813,-1.2813,0.0,0.0,0.0,0.0,-1.2813,-1.2813,-1.2813,-1.2813,-1.2813,-1.2813,-1.2813,-1.2813,-1.2813,-1.2813,-1.2813,-1.2813,-1.2813,-1.2813,-1.2813,-1.2861,-1.2311,-1.1668,-1.1668,-1.1175,-1.0641,-1.0641,-1.0489,-1.0391,-1.069,-1.0538,-1.0293,-1.0293,-1.044,-1.0583,-1.0583,-1.0725,-1.096,-1.1258,-1.1058,-1.0865,-1.0694,-1.0511,-1.0494,-1.0944,-1.1095,-1.1359,-1.1952,-1.0511,-0.9545,-0.9545,-0.9572,-0.9578,-0.9578,-0.9586,-0.9877,-1.0449,-1.0444,-1.077,-1.1392,-1.1433,-1.1433,-1.1433,-1.1466,-1.1467,-1.1404,-1.1554,-1.1665,-1.0133,-1.083,-1.1144,-0.9049,-0.8445,-0.7769,-0.5341,-0.4738,-0.4621,-0.4423,-0.4231,-0.4389,-0.5392,-0.5425,-0.5819,-0.7408,-0.8446,-0.9359,-1.0159,-1.1103,-1.1962,0.0,0.0,-1.3044,0.0,0.0,0.0,0.0,0.0,0.0,0.0,-1.4196,-1.4196,-1.4196,-1.4196,-1.4078,-1.3825,-1.382,-1.3577,-1.3109,-1.3104,-1.298,-1.2813,-1.2813,0.0,0.0,0.0,0.0,0.0,-1.2813,-1.2813,-1.2813,-1.2813,-1.2813,-1.2813,-1.2813,-1.2813,-1.2813,-1.2813,-1.2813,-1.2813,-1.2813,-1.2813,-1.2861,-1.305,-1.2953,-1.2759,-1.2759,-1.291,-1.305,-1.305,-1.25,-1.2252,-1.3244,-1.2694,-1.2004,-1.2004,-1.2004,-1.2004,-1.2004,-1.1999,-1.2301,-1.3292,-1.3437,-1.3315,-1.286,-1.2911,-1.2816,-1.2063,-1.2203,-1.2283,-1.2043,-1.1995,-1.1957,-1.1957,-1.1761,-1.1655,-1.1655,-1.1421,-1.1284,-1.1284,-1.1284,-1.1439,-1.1685,-1.1691,-1.1691,-1.1691,-1.1906,-1.1859,-1.1617,-1.2158,-1.2485,-0.9644,-0.9693,-0.9584,-0.9336,-0.8717,-0.7975,-0.7052,-0.6221,-0.5474,-0.4758,-0.5004,-0.5425,-0.5732,-0.6692,-0.7534,-0.7853,-0.915,-1.0114,0.0,0.0,0.0,-1.2726,-1.3391,-1.383,0.0,0.0,0.0,0.0,0.0,0.0,0.0,-1.4099,-1.4116,-1.3943,-1.3938,-1.3825,-1.3588,-1.3416,-1.3254,-1.3104,-1.2947,-1.2883,-1.2813,-1.2813,0.0,0.0,0.0,0.0,0.0,-1.2813,-1.2813,-1.2813,-1.2813,-1.2813,-1.2813,-1.2813,-1.2813,-1.2813,-1.2813,-1.2806,-1.2841,-1.2952,-1.303,-1.3062,-1.329,-1.3201,-1.305,-1.3249,-1.3298,-1.3394,-1.3394,-1.3195,-1.3093,-1.3443,-1.3244,-1.3044,-1.3044,-1.319,-1.3292,-1.3292,-1.3474,-1.3661,-1.401,-1.3868,-1.3737,-1.3571,-1.3445,-1.3272,-1.3067,-1.3082,-1.3061,-1.28,-1.2732,-1.2537,-1.2055,-1.2128,-1.2203,-1.2203,-1.2211,-1.2248,-1.2248,-1.2248,-1.2284,-1.2367,-1.2367,-1.2367,-1.2367,-1.2456,-1.2408,-1.2374,-1.2541,-1.2619,-0.9236,-0.9448,-0.9417,-0.936,-0.891,-0.8242,-0.7352,-0.6619,-0.5977,-0.5378,-0.5622,-0.6115,-0.6808,-0.7727,-0.849,-0.8818,-0.9837,-1.0521,0.0,0.0,0.0,-1.2726,0.0,0.0,0.0,0.0,0.0,0.0,0.0,0.0,0.0,0.0,-1.404,-1.3701,-1.3776,-1.3663,-1.334,-1.3179,-1.306,-1.2974,-1.2878,-1.2813,-1.2813,0.0,0.0,0.0,0.0,0.0,0.0,-1.2813,-1.2813,-1.2813,-1.2813,-1.2813,-1.2813,-1.291,-1.2905,-1.291,-1.3055,-1.3052,-1.3079,-1.3087,-1.3119,-1.3147,-1.3412,-1.3363,-1.3292,-1.3443,-1.3588,-1.3636,-1.3636,-1.3732,-1.3775,-1.3775,-1.3775,-1.3775,-1.3775,-1.3919,-1.407,-1.407,-1.4208,-1.4298,-1.4298,-1.4159,-1.402,-1.3924,-1.3767,-1.3592,-1.3393,-1.3453,-1.3417,-1.3107,-1.3083,-1.2923,-1.2458,-1.2471,-1.2491,-1.2491,-1.2619,-1.2705,-1.2705,-1.2705,-1.2705,-1.2705,-1.2705,-1.2705,-1.2705,-1.2705,-1.2705,-1.2705,-1.279,-1.2833,0.0,-0.9793,-1.0169,-0.9111,-0.8965,-0.8611,-0.6657,-0.63,0.0,-0.6318,-0.6195,-0.6623,-0.8408,-0.8589,-0.8923,-1.0137,-1.0509,-1.0683,0.0,-1.1451,0.0,0.0,-1.3405,0.0,0.0,0.0,0.0,0.0,0.0,0.0,0.0,0.0,-1.3975,-1.3494,-1.3705,-1.3602,-1.3082,-1.3082,-1.3024,-1.2861,-1.2861,-1.2861,-1.2813,0.0,0.0,0.0,0.0,0.0,0.0,-1.2813,-1.2813,-1.2813,-1.2861,-1.2861,-1.2861,-1.3055,-1.3147,-1.3147,-1.3394,-1.348,-1.3471,-1.3202,-1.3147,-1.3185,-1.3426,-1.3483,-1.3494,-1.3528,-1.3721,-1.3908,-1.3925,-1.4112,-1.4298,-1.4298,-1.4298,-1.4298,-1.4298,-1.4298,-1.4346,-1.4346,-1.4346,-1.4346,-1.4346,-1.4346,-1.4261,-1.4019,-1.3983,-1.3807,-1.3317,-1.3468,-1.351,-1.3226,-1.3195,-1.3177,-1.3141,-1.2856,-1.2705,-1.2705,-1.2705,-1.2705,-1.2705,-1.2705,-1.2705,-1.2705,-1.2705,-1.2747,-1.2826,-1.2833,-1.2869,-1.2954,-1.3173,-1.3307,0.0,0.0,-0.8659,-0.8312,-0.8699,-0.8892,0.0,-0.7836,-0.7931,-0.731,-0.7659,-0.8243,-0.8907,-0.9307,-0.9841,-1.0683,-1.0719,-1.0742,-1.1166,0.0,0.0,-1.2791,0.0,0.0,0.0,0.0,0.0,0.0,0.0,0.0,0.0,0.0,-1.3971,-1.3488,-1.3757,-1.3635,-1.3089,-1.3084,-1.3202,-1.3346,-1.3346,-1.3249,-1.305,-1.305,0.0,0.0,0.0,0.0,-1.2813,-1.2953,-1.305,-1.305,-1.3249,-1.3346,-1.3346,-1.3394,-1.3394,-1.3443,-1.3491,-1.3504,-1.3485,-1.3412,-1.3425,-1.3435,-1.3495,-1.3515,-1.36,-1.3993,-1.4017,-1.3956,-1.4154,-1.425,-1.4298,-1.4298,-1.4298,-1.4298,-1.4298,-1.4442,-1.4592,-1.4592,-1.4592,-1.4688,-1.4885,-1.4742,-1.4669,-1.4797,-1.4839,-1.4795,-1.4662,-1.4659,-1.4502,-1.4,-1.395,-1.378,-1.336,-1.2961,-1.2705,-1.2705,-1.2705,-1.2705,-1.2705,-1.2705,-1.2705,-1.2705,-1.2881,-1.3336,-1.3986,-1.4161,-1.4566,-1.5218,-1.5309,-1.5309,0.0,-0.842,-0.8318,-0.8253,-0.8647,-0.8864,-0.8157,-0.8284,-0.8426,-0.81,-0.8389,-0.8846,-0.9386,-0.9698,-1.0083,-1.0589,-1.074,0.0,0.0,0.0,-1.265,-1.3079,0.0,0.0,0.0,0.0,0.0,0.0,0.0,0.0,0.0,0.0,-1.4049,-1.3673,-1.3836,-1.3692,-1.3298,-1.3292,-1.3346,-1.3491,-1.3491,-1.3443,-1.3292,-1.3292,0.0,0.0,0.0,0.0,-1.3152,-1.3249,-1.3292,-1.3298,-1.3443,-1.3491,-1.3491,-1.3642,-1.3684,-1.369,-1.3823,-1.372,-1.3516,-1.3653,-1.3609,-1.3554,-1.3936,-1.3969,-1.3911,-1.4049,-1.42,-1.4313,-1.4453,-1.4592,-1.4688,-1.4688,-1.4688,-1.4688,-1.4688,-1.479,-1.4885,-1.4885,-1.4885,-1.4933,-1.5083,-1.4987,-1.4933,-1.5083,-1.5452,-1.5724,-1.5591,-1.6061,-1.6278,-1.5791,-1.5566,-1.5357,-1.5074,-1.4521,-1.4028,-1.362,-1.362,-1.3782,-1.4196,-1.4189,-1.4299,-1.4484,-1.4618,-1.5021,-1.5661,-1.5796,-1.6094,-1.6546,-1.6688,-1.6653,-0.8517,-0.8544,-0.8565,-0.8565,-0.8743,-0.8827,-0.8318,-0.8363,-0.8615,-0.8812,-0.887,-0.9094,-0.9818,-0.9976,-1.0067,-1.0353,0.0,0.0,-1.2151,-1.2327,-1.2656,0.0,0.0,0.0,0.0,0.0,0.0,0.0,0.0,0.0,0.0,0.0,0.0,-1.3958,-1.3952,-1.3849,-1.3636,-1.3588,-1.3588,-1.363,-1.363,-1.3588,-1.3539,-1.3539,0.0,0.0,0.0,0.0,-1.3383,-1.3505,-1.3516,-1.353,-1.357,-1.363,-1.3636,-1.3883,-1.3979,-1.4022,-1.4256,-1.4025,-1.3671,-1.3944,-1.3842,-1.3736,-1.4434,-1.4493,-1.4294,-1.4071,-1.4352,-1.4734,-1.4729,-1.4933,-1.5083,-1.5083,-1.5083,-1.5083,-1.5083,-1.5131,-1.5178,-1.5178,-1.5178,-1.5178,-1.5178,-1.5315,-1.541,-1.541,-1.6231,-1.6775,-1.6557,-1.7444,-1.8041,-1.7725,-1.7395,-1.7167,-1.7157,-1.6619,-1.6039,-1.5427,-1.5082,-1.5255,-1.6079,-1.6133,-1.6335,-1.6676,-1.6734,-1.7001,-1.7447,-1.7498,-1.7585,-1.7707,-1.7948,-1.7838,-0.8517,-0.8662,-0.8846,-0.8846,-0.898,-0.9128,-0.902,-0.9363,-0.9627,-0.9474,-0.9596,-0.9829,-1.0158,-1.0239,-1.0379,-1.081,0.0,-1.2204,0.0,0.0,0.0,0.0,0.0,0.0,0.0,0.0,0.0,0.0,0.0,0.0,0.0,0.0,0.0,-1.4262,-1.4262,-1.4244,-1.4154,-1.3925,-1.3925,-1.4154,-1.4154,-1.4064,-1.3835,-1.3835,-1.3611,0.0,0.0,0.0,-1.2876,-1.3553,-1.3701,-1.3561,-1.4017,-1.4154,-1.4202,-1.4202,-1.425,-1.4298,-1.4544,-1.4436,-1.4223,-1.4494,-1.4396,-1.418,-1.4308,-1.4467,-1.4633,-1.4585,-1.4629,-1.4765,-1.4965,-1.5083,-1.5083,-1.5083,-1.5083,-1.5083,-1.5083,-1.5267,-1.5452,-1.5452,-1.5452,-1.5493,-1.5642,-1.6197,-1.6709,-1.6904,-1.7824,-1.8442,-1.8387,-1.8572,-1.8561,-1.825,-1.8119,-1.8021,-1.7771,-1.7687,-1.7881,-1.848,-1.6784,-1.6016,-1.6473,-1.6842,-1.7054,-1.7108,-1.7348,-1.7849,-1.8639,-1.8819,-1.9256,-1.9987,-2.0039,-2.0012,-0.8517,-0.8684,-0.8927,-0.9052,-0.9125,-0.9241,-0.9322,-0.9558,-0.9776,-0.9909,-0.9921,-1.003,-1.039,-1.0588,-1.0963,-1.1831,0.0,-1.2707,0.0,0.0,0.0,0.0,0.0,0.0,0.0,0.0,0.0,0.0,0.0,0.0,0.0,0.0,0.0,0.0,-1.4298,-1.4298,-1.4298,-1.416,-1.416,-1.4298,-1.4298,-1.425,-1.4112,-1.3969,-1.3862,0.0,0.0,-1.345,-1.3356,-1.3607,-1.3707,-1.3725,-1.3991,-1.4171,-1.4298,-1.4442,-1.4592,-1.4717,-1.4703,-1.4618,-1.4558,-1.4836,-1.4838,-1.476,-1.5008,-1.5192,-1.5296,-1.5296,-1.5202,-1.5141,-1.5276,-1.541,-1.5458,-1.5458,-1.5458,-1.5458,-1.5458,-1.6015,-1.648,-1.648,-1.6897,-1.7304,-1.7404,-1.7677,-1.7956,-1.8102,-1.8972,-1.9613,-1.9613,-2.0031,-2.0288,-2.0161,-1.9945,-1.9747,-1.9618,-1.9419,-1.9264,-1.9221,-1.8709,-1.8498,-1.8684,-1.8888,-1.9075,-1.9314,-1.9418,-1.9791,-2.0403,-2.05,-2.0771,-2.1129,-2.1129,-2.101,-0.8517,-0.8721,-0.9003,-0.9093,-0.9206,-0.9395,-0.9694,-0.9842,-1.0045,-1.039,-1.0401,-1.0401,-1.0567,-1.0872,0.0,-1.2462,-1.2904,0.0,0.0,0.0,0.0,0.0,0.0,0.0,0.0,0.0,0.0,0.0,0.0,0.0,0.0,0.0,0.0,0.0,-1.5003,-1.4877,-1.4582,-1.4766,-1.4624,-1.4208,-1.4208,-1.4171,-1.4111,-1.3972,-1.3948,-1.4008,-1.3725,-1.3701,-1.3936,-1.3855,-1.4041,-1.4401,-1.4309,-1.4528,-1.486,-1.5289,-1.5581,-1.5744,-1.5598,-1.5557,-1.5603,-1.5894,-1.5987,-1.6035,-1.6404,-1.648,-1.648,-1.648,-1.6379,-1.6143,-1.5683,-1.5872,-1.6157,-1.6157,-1.6339,-1.648,-1.648,-1.7131,-1.7652,-1.7652,-1.8288,-1.8788,-1.8788,-1.9018,-1.9201,-1.9155,-2.0068,-2.0709,-2.0628,-2.1275,-2.1696,-2.1696,-2.1403,-2.1255,-2.1255,-2.0979,-2.0497,-1.9843,-2.0312,-2.0659,-2.0659,-2.0708,-2.0943,-2.1245,-2.1255,-2.141,-2.1696,-2.1696,-2.1696,-2.1696,-2.1696,-2.1566,-0.8517,-0.884,-0.913,-0.8971,-0.9257,-0.9737,-1.0445,-1.0745,-1.0996,-1.1277,-1.1451,-1.1383,-1.0724,-1.101,-1.1556,-1.2087,-1.313,0.0,0.0,0.0,0.0,0.0,0.0,0.0,0.0,0.0,0.0,0.0,0.0,0.0,0.0,0.0,0.0,0.0,0.0,-1.6507,-1.5351,-1.6127,-1.5628,-1.3936,-1.3936,-1.3809,-1.358,-1.3803,-1.3652,-1.3191,-1.3682,-1.3904,-1.4012,-1.452,-1.5198,-1.5929,-1.559,-1.581,-1.6445,-1.7429,-1.7755,-1.7801,-1.8041,-1.8126,-1.8172,-1.8472,-1.8518,-1.8526,-1.8549,-1.8557,-1.8557,-1.8557,-1.8557,-1.8141,-1.6244,-1.6487,-1.7185,-1.7185,-1.7917,-1.8557,-1.8557,-1.865,-1.8696,-1.8696,-1.8742,-1.8788,-1.8788,-1.9741,-2.0421,-2.0204,-2.1221,-2.1865,-2.1642,-2.1651,-2.1696,-2.1696,-2.1668,-2.165,-2.165,-2.1623,-2.1604,-2.1515,-2.1238,-2.1062,-2.1062,-2.1403,-2.1623,-2.165,-2.165,-2.1659,-2.1696,-2.1696,-2.1696,-2.1696,-2.1696,-2.1811,-0.8517,-0.8923,-0.9302,-0.8988,-0.9362,-0.999,-1.0704,-1.0858,-1.092,-1.1253,-1.1666,-1.1855,-1.159,0.0,-1.2547,-1.2749,0.0,0.0,0.0,0.0,0.0,0.0,0.0,0.0,0.0,0.0,0.0,0.0,0.0,0.0,0.0,0.0,0.0,0.0,0.0,-1.6716,-1.619,-1.6308,-1.6019,-1.5253,-1.5311,-1.4985,-1.434,-1.4856,-1.5062,-1.5021,-1.5039,-1.5133,-1.5326,-1.5482,-1.5845,-1.6342,-1.6595,-1.6963,-1.7378,-1.8041,-1.8357,-1.8511,-1.8596,-1.8642,-1.8688,-1.8788,-1.8788,-1.8834,-1.8964,-1.901,-1.9001,-1.9185,-1.9231,-1.9001,-1.7956,-1.8048,-1.8411,-1.8411,-1.8818,-1.9231,-1.9231,-1.9733,-2.0187,-2.0187,-2.0647,-2.1024,-2.1024,-2.1427,-2.1704,-2.1615,-2.1989,-2.2264,-2.2132,-2.2132,-2.2132,-2.2132,-2.2132,-2.2132,-2.2132,-2.2132,-2.2132,-2.2132,-2.1717,-2.1546,-2.1722,-2.188,-2.2008,-2.2132,-2.2132,-2.2432,-2.3028,-2.3028,-2.327,-2.3813,-2.3813,-2.3856,-0.8582,-0.903,-0.9412,-0.9124,-0.9558,-1.0241,-1.1122,-1.1175,-1.126,-1.1962,-1.21,-1.2141,-1.2308,0.0,0.0,0.0,0.0,0.0,0.0,0.0,0.0,0.0,0.0,0.0,0.0,0.0,0.0,0.0,0.0,0.0,0.0,0.0,0.0,0.0,0.0,0.0,-1.6884,-1.7003,-1.667,-1.599,-1.6656,-1.6369,-1.5184,-1.5734,-1.605,-1.6131,-1.596,-1.613,-1.6473,-1.6441,-1.6695,-1.72,-1.8065,-1.8366,-1.8482,-1.9191,-1.9484,-1.9545,-1.967,-1.9629,-1.9529,-1.9582,-1.9544,-1.9488,-1.9711,-1.9832,-1.9971,-2.015,-2.0326,-2.0322,-2.0022,-1.9824,-1.9679,-1.9679,-2.0096,-2.0413,-2.0413,-2.0962,-2.1463,-2.1463,-2.1971,-2.2397,-2.2397,-2.2485,-2.2485,-2.2388,-2.2485,-2.2485,-2.2388,-2.2397,-2.2397,-2.2397,-2.2397,-2.2397,-2.2397,-2.2652,-2.2818,-2.2818,-2.2809,-2.2589,-2.222,-2.2476,-2.2696,-2.2818,-2.3115,-2.3574,-2.4211,-2.4211,-2.45,-2.5083,-2.5083,-2.5168,-0.8802,-0.9131,-0.9476,-0.9423,-0.9852,-1.0609,-1.1723,-1.1904,-1.218,-1.3608,-1.2876,-1.2166,-1.2727,-1.26,0.0,0.0,0.0,0.0,0.0,0.0,0.0,0.0,0.0,0.0,0.0,0.0,0.0,0.0,0.0,0.0,0.0,0.0,0.0,0.0,0.0,0.0,-1.7331,-1.838,-1.7846,-1.5745,-1.774,-1.7772,-1.6011,-1.6285,-1.6297,-1.6026,-1.6293,-1.675,-1.7334,-1.7391,-1.7946,-1.881,-2.003,-2.0195,-1.9868,-2.1212,-2.1456,-2.1163,-2.1531,-2.1447,-2.1151,-2.1333,-2.1141,-2.0848,-2.1127,-2.1462,-2.1783,-2.1792,-2.2085,-2.2397,-2.2397,-2.1739,-2.1042,-2.0998,-2.1739,-2.2397,-2.2397,-2.2388,-2.2441,-2.2441,-2.2432,-2.2432,-2.2432,-2.2662,-2.2759,-2.2485,-2.2662,-2.2706,-2.2485,-2.2432,-2.2432,-2.2432,-2.2432,-2.2432,-2.2432,-2.329,-2.3844,-2.3844,-2.4628,-2.4286,-2.252,-2.3333,-2.3844,-2.3844,-2.467,-2.5126,-2.5126,-2.5126,-2.5115,-2.5126,-2.5126,-2.5263,-0.8576,-0.8997,-0.9463,-0.9525,-0.9994,-1.0778,-1.2082,-1.1875,-1.1799,-1.3064,-1.2918,-1.2689,-1.3036,-1.3302,0.0,0.0,0.0,0.0,0.0,0.0,0.0,0.0,0.0,0.0,0.0,0.0,0.0,0.0,0.0,0.0,0.0,0.0,0.0,0.0,0.0,0.0,-1.843,-1.8635,-1.8516,-1.8046,-1.8634,-1.8224,-1.7017,-1.7719,-1.7963,-1.7902,-1.8126,-1.8319,-1.8505,-1.8656,-1.891,-1.9191,-1.9825,-1.9965,-1.991,-2.0604,-2.0881,-2.0916,-2.1037,-2.1094,-2.1179,-2.1231,-2.1189,-2.1127,-2.1335,-2.1715,-2.2093,-2.2264,-2.2597,-2.2872,-2.2872,-2.3202,-2.326,-2.2457,-2.2608,-2.2872,-2.2872,-2.343,-2.3897,-2.3897,-2.4349,-2.4808,-2.4808,-2.4861,-2.4904,-2.4808,-2.4861,-2.4904,-2.4808,-2.4808,-2.4808,-2.4808,-2.4808,-2.4808,-2.4808,-2.5062,-2.5189,-2.5189,-2.5442,-2.5274,-2.4595,-2.4851,-2.5062,-2.5189,-2.5484,-2.5902,-2.6588,-2.6588,-2.6876,-2.7487,-2.7487,-2.7539,-0.8802,-0.9213,-0.9679,-0.9835,-1.0481,-1.1366,-1.2337,-1.2535,-1.2715,-1.3408,-1.3288,-1.3297,-1.4072,-1.4281,0.0,0.0,0.0,0.0,0.0,0.0,0.0,0.0,0.0,0.0,0.0,0.0,0.0,0.0,0.0,0.0,0.0,0.0,0.0,0.0,0.0,0.0,-1.8833,-1.8807,-1.8891,-1.9002,-1.8919,-1.8553,-1.7951,-1.8643,-1.8841,-1.8698,-1.8846,-1.8876,-1.8894,-1.9198,-1.9402,-1.9577,-1.9793,-1.9966,-2.0053,-2.0449,-2.0662,-2.0748,-2.0885,-2.0963,-2.0964,-2.1056,-2.0983,-2.0881,-2.1074,-2.165,-2.2363,-2.2689,-2.3301,-2.3878,-2.4104,-2.4573,-2.4744,-2.3734,-2.381,-2.4188,-2.4188,-2.4616,-2.5031,-2.5031,-2.5453,-2.5777,-2.5777,-2.5777,-2.5777,-2.5777,-2.5777,-2.5777,-2.5777,-2.5777,-2.5777,-2.5777,-2.5777,-2.5777,-2.5777,-2.6121,-2.637,-2.637,-2.667,-2.6835,-2.67,-2.637,-2.6246,-2.6329,-2.6712,-2.7174,-2.7725,-2.7725,-2.7978,-2.851,-2.851,-2.851,-0.9239,-0.9622,-1.0043,-1.0312,-1.1272,-1.22,-1.2644,-1.3553,-1.4309,-1.4195,0.0,-1.4139,-1.5564,0.0,0.0,0.0,0.0,0.0,0.0,0.0,0.0,0.0,0.0,0.0,0.0,0.0,0.0,0.0,0.0,0.0,0.0,0.0,0.0,0.0,0.0,0.0,-1.8634,-1.8824,-1.8933,0.0,-1.8718,-1.866,-1.8669,-1.9026,-1.8999,-1.866,-1.866,-1.866,-1.8687,-1.9045,-1.9421,-1.9729,-1.9806,-1.9937,-2.0136,-2.0577,-2.0699,-2.0728,-2.1088,-2.1046,-2.0832,-2.1012,-2.0859,-2.0566,-2.075,-2.1604,-2.2602,-2.3179,-2.4145,-2.5137,-2.5657,-2.5861,-2.5746,-2.4914,-2.5284,-2.5777,-2.5777,-2.5872,-2.5913,-2.5913,-2.5986,-2.6038,-2.6038,-2.6038,-2.6038,-2.6038,-2.6038,-2.6038,-2.6038,-2.6038,-2.6038,-2.6038,-2.6038,-2.6038,-2.6038,-2.6835,-2.7307,-2.7307,-2.8047,-2.851,-2.851,-2.7725,-2.7307,-2.7307,-2.8099,-2.851,-2.851,-2.851,-2.851,-2.851,-2.851,-2.855,-0.9163,-0.95,-0.9989,-1.0846,-1.1997,-1.2877,-1.2975,-1.3887,-1.4462,-1.3546,-1.4412,-1.5417,-1.5724,0.0,0.0,0.0,0.0,0.0,0.0,0.0,0.0,0.0,0.0,0.0,0.0,0.0,0.0,0.0,0.0,0.0,0.0,0.0,0.0,0.0,0.0,-1.7988,-1.7988,-1.8187,-1.8309,0.0,-1.8255,-1.8219,-1.8219,-1.8339,-1.8292,-1.8219,-1.8219,-1.8219,-1.8219,-1.8301,-1.8393,-1.854,-1.8997,-1.9234,-1.9319,-1.9888,-2.0614,-2.1316,-2.1416,-2.1917,-2.2498,-2.2547,-2.2483,-2.2435,-2.2472,-2.2891,-2.3451,-2.4003,-2.4548,-2.5137,-2.5657,-2.6329,-2.6846,-2.6682,-2.6205,-2.5777,-2.5777,-2.6381,-2.6887,-2.6887,-2.7458,-2.7926,-2.7926,-2.7926,-2.7926,-2.7926,-2.7926,-2.7926,-2.7926,-2.7926,-2.7926,-2.7926,-2.7926,-2.7926,-2.7926,-2.8087,-2.8219,-2.8219,-2.8391,-2.851,-2.851,-2.8299,-2.8219,-2.8219,-2.8391,-2.851,-2.851,-2.851,-2.851,-2.851,-2.851,-2.8843,-0.9005,-0.9326,-0.9938,-1.128,-1.2248,-1.3076,-1.3762,-1.4365,-1.4781,-1.4597,-1.545,-1.6425,0.0,0.0,0.0,0.0,0.0,0.0,0.0,0.0,0.0,0.0,0.0,0.0,0.0,0.0,0.0,0.0,0.0,0.0,0.0,0.0,0.0,0.0,-1.7895,-1.7923,-1.7923,-1.8044,-1.8091,-1.8091,-1.788,-1.7724,-1.755,-1.7734,-1.7825,-1.7825,-1.7825,-1.7825,-1.7844,-1.811,-1.8221,-1.8286,-1.8686,-1.9287,-1.9884,-2.0232,-2.1116,-2.2209,-2.2209,-2.2547,-2.2995,-2.2995,-2.2995,-2.2995,-2.2995,-2.3393,-2.3955,-2.4484,-2.526,-2.6045,-2.656,-2.7353,-2.7955,-2.7955,-2.7539,-2.708,-2.708,-2.747,-2.7805,-2.7805,-2.8179,-2.851,-2.851,-2.851,-2.851,-2.851,-2.851,-2.851,-2.851,-2.851,-2.851,-2.851,-2.851,-2.851,-2.851,-2.851,-2.8619,-2.8871,-2.8723,-2.8913,-2.9594,-2.9438,-2.9079,-2.851,-2.851,-2.851,-2.851,-2.8882,-2.9145,-2.9211,-2.9626,-3.0063,-0.8926,-0.9348,-1.0033,-1.1345,-1.2225,-1.3044,-1.4176,-1.47,-1.5205,-1.6104,-1.661,0.0,0.0,0.0,0.0,0.0,0.0,0.0,0.0,0.0,0.0,0.0,0.0,0.0,0.0,0.0,0.0,0.0,0.0,0.0,0.0,0.0,-1.7623,-1.7871,-1.7871,-1.7871,-1.7871,-1.7871,-1.7871,-1.7908,-1.7559,-1.722,-1.6917,-1.7406,-1.7528,-1.7394,-1.7394,-1.743,-1.7493,-1.7979,-1.8265,-1.8456,-1.8837,-1.9749,-2.0906,-2.1098,-2.202,-2.3206,-2.3206,-2.3279,-2.339,-2.339,-2.339,-2.339,-2.339,-2.3829,-2.4428,-2.5066,-2.6066,-2.7105,-2.7731,-2.8475,-2.9028,-2.8882,-2.8961,-2.8922,-2.8618,-2.859,-2.859,-2.8538,-2.859,-2.859,-2.859,-2.859,-2.859,-2.859,-2.859,-2.859,-2.859,-2.859,-2.859,-2.859,-2.859,-2.859,-2.859,-2.8714,-2.8956,-2.9402,-2.9386,-2.9878,-3.099,-3.0881,-3.0381,-2.9349,-2.9126,-2.9028,-2.9028,-2.9704,-3.0101,-3.0279,-3.0944,-3.1439,-0.9189,-0.9872,-1.0581,-1.0828,-1.1942,-1.3041,-1.2988,-1.4276,-1.5707,0.0,0.0,0.0,0.0,0.0,0.0,0.0,0.0,0.0,0.0,0.0,0.0,0.0,0.0,0.0,0.0,0.0,0.0,0.0,0.0,0.0,0.0,-1.7339,-1.7367,-1.7073,-1.7073,-1.7073,-1.7073,-1.7073,-1.7073,-1.7073,-1.7009,-1.6963,-1.6943,-1.7745,-1.7695,-1.6991,-1.6991,-1.7086,-1.725,-1.7341,-1.781,-1.859,-1.9606,-2.0477,-2.1278,-2.2323,-2.3224,-2.3938,-2.3938,-2.442,-2.4981,-2.4981,-2.4981,-2.4981,-2.4981,-2.5052,-2.5338,-2.6341,-2.69,-2.7404,-2.84,-2.9356,-2.9909,-2.9236,-3.0114,-3.0681,-2.9094,-2.8895,-2.8973,-2.8803,-2.8895,-2.9013,-2.9013,-2.9013,-2.9013,-2.9013,-2.9013,-2.9013,-2.9013,-2.9013,-2.9013,-2.9013,-2.9013,-2.9013,-2.9013,-2.9506,-2.9812,-2.9886,-3.1014,-3.1763,-3.1907,-3.262,-3.2892,-3.2736,-3.1657,-3.1093,-3.1093,-3.1204,-3.1278,-3.1315,-3.1426,-3.1842,-0.8937,-0.9604,-1.028,-1.043,-1.1409,-1.2476,-1.3031,-1.4261,-1.5497,-1.6308,0.0,0.0,0.0,0.0,0.0,0.0,0.0,0.0,0.0,0.0,0.0,0.0,0.0,0.0,0.0,0.0,0.0,0.0,0.0,0.0,-1.6927,-1.7073,-1.7092,-1.6908,-1.6908,0.0,-1.6908,-1.6908,-1.6908,-1.6908,-1.7003,-1.726,-1.7653,-1.8152,-1.8085,-1.7653,-1.8152,-1.8422,-1.8512,-1.8613,-1.888,-1.9318,-2.0239,-2.1183,-2.2159,-2.2971,-2.3926,-2.4779,-2.4779,-2.5004,-2.5312,-2.5312,-2.5312,-2.5312,-2.5312,-2.5516,-2.5889,-2.6456,-2.7434,-2.8475,-2.9025,-3.0174,-3.1057,-3.0683,-3.123,-3.1586,-3.067,-3.0443,-3.0405,-3.0317,-3.0392,-3.0443,-3.0443,-3.0443,-3.0443,-3.0443,-3.0443,-3.0443,-3.0443,-3.0443,-3.0559,-3.0919,-3.0958,-3.1087,-3.15,-3.1759,-3.2043,-3.2326,-3.2778,-3.3341,-3.404,-3.4295,-3.4584,-3.5008,-3.3397,-3.2575,-3.2575,-3.3027,-3.3287,-3.3385,-3.3803,-3.4267,-0.8849,-0.9419,-1.0019,-1.0291,-1.1263,-1.2368,-1.3194,0.0,-1.5145,0.0,0.0,0.0,0.0,0.0,0.0,0.0,0.0,0.0,0.0,0.0,0.0,0.0,0.0,0.0,0.0,0.0,0.0,0.0,0.0,0.0,-1.6908,-1.6908,-1.6908,-1.6908,-1.6908,-1.6908,-1.6908,-1.6908,-1.6908,-1.6908,-1.726,-1.7721,-1.8234,-1.8813,-1.9013,-1.8893,-1.9333,-1.953,-1.9596,-1.9727,-1.9998,-2.0391,-2.1097,-2.2105,-2.3234,-2.3746,-2.4531,-2.5312,-2.5312,-2.5347,-2.5418,-2.5569,-2.5674,-2.5769,-2.6101,-2.648,-2.6912,-2.7341,-2.8551,-2.9742,-3.0019,-3.1106,-3.211,-3.1942,-3.2304,-3.2555,-3.1978,-3.1709,-3.1573,-3.1646,-3.1646,-3.1646,-3.1646,-3.1646,-3.1646,-3.1646,-3.1646,-3.1646,-3.1646,-3.178,-3.2035,-3.2514,-3.2689,-3.3008,-3.3503,-3.3678,-3.3921,-3.4325,-3.4461,-3.4928,-3.5885,-3.5949,-3.6219,-3.678,-3.5358,-3.447,-3.4131,-3.4748,-3.5082,-3.5215,-3.5805,-3.6158,-0.9304,-0.9768,-1.0146,-1.042,-1.196,-1.3347,-1.3171,0.0,0.0,0.0,0.0,0.0,0.0,0.0,0.0,0.0,0.0,0.0,0.0,0.0,0.0,0.0,0.0,0.0,0.0,0.0,0.0,0.0,0.0,0.0,-1.6908,-1.6908,-1.6908,-1.6908,-1.6908,-1.6908,-1.6908,-1.6908,-1.6908,-1.6908,-1.7745,-1.8166,-1.8267,-1.9987,-2.0751,-2.0719,-1.9857,-1.9596,-1.9792,-1.9792,-2.0599,-2.186,-2.2386,-2.3348,-2.4474,-2.5001,-2.5252,-2.5312,-2.5312,-2.5418,-2.5699,-2.6343,-2.6671,-2.7045,-2.833,-2.8751,-2.9017,-3.0148,-3.0664,-3.1043,-3.1571,-3.2407,-3.2932,-3.2254,-3.3206,-3.3874,-3.2412,-3.1942,-3.1819,-3.2037,-3.2074,-3.2074,-3.2074,-3.2074,-3.2074,-3.2074,-3.2074,-3.2074,-3.2074,-3.2576,-3.2928,-3.2955,-3.3533,-3.3925,-3.3965,-3.443,-3.4731,-3.4772,-3.5997,-3.6774,-3.6841,-3.761,-3.8063,-3.8101,-3.7988,-3.7358,-3.6158,-3.6194,-3.6229,-3.6229,-3.6265,-3.6301,-0.9239,-0.9456,-0.985,-1.0363,-1.1358,-1.2316,-1.2633,-1.3536,-1.441,0.0,0.0,0.0,0.0,0.0,0.0,0.0,0.0,0.0,0.0,0.0,0.0,0.0,0.0,0.0,0.0,0.0,0.0,0.0,0.0,0.0,-1.6541,-1.7197,-1.7285,-1.6541,-1.7232,-1.7604,-1.7604,-1.7687,-1.7959,-1.8442,-1.8969,-1.9454,-1.9955,-2.0687,-2.1293,-2.1726,-2.1388,-2.1262,-2.1325,-2.1325,-2.1829,-2.266,-2.3214,-2.3859,-2.4544,-2.5107,-2.5312,-2.5382,-2.5988,-2.6217,-2.6377,-2.7211,-2.7814,-2.8277,-2.8745,-2.9447,-3.0177,-3.0739,-3.1534,-3.2301,-3.2629,-3.3346,-3.3894,-3.3652,-3.4011,-3.4264,-3.3687,-3.3534,-3.35,-3.3569,-3.3583,-3.3583,-3.3583,-3.3583,-3.3583,-3.3583,-3.3583,-3.3711,-3.4157,-3.4399,-3.4853,-3.5662,-3.5946,-3.6282,-3.6651,-3.6855,-3.6982,-3.6982,-3.7477,-3.772,-3.772,-3.8037,-3.8202,-3.8202,-3.8202,-3.7984,-3.752,-3.752,-3.752,-3.752,-3.752,-3.7762,-0.9263,-0.9644,-1.0171,-1.0703,-1.1524,-1.2289,-1.2726,0.0,0.0,0.0,0.0,0.0,0.0,0.0,0.0,0.0,0.0,0.0,0.0,0.0,0.0,0.0,0.0,0.0,0.0,0.0,0.0,0.0,0.0,0.0,-1.6689,-1.7374,-1.7628,-1.7235,-1.7923,-1.8341,-1.8341,-1.8489,-1.8824,-1.9299,-1.9901,-2.0419,-2.091,-2.1293,-2.1726,-2.2197,-2.2378,-2.2354,-2.2209,-2.2378,-2.2763,-2.3324,-2.3821,-2.4507,-2.5164,-2.5517,-2.5849,-2.6205,-2.682,-2.7077,-2.7265,-2.8136,-2.8899,-2.9533,-2.997,-3.0821,-3.1709,-3.2034,-3.2744,-3.3416,-3.3555,-3.4011,-3.4414,-3.4414,-3.4414,-3.4467,-3.4687,-3.4568,-3.4414,-3.4414,-3.4414,-3.4414,-3.4414,-3.4414,-3.4486,-3.4704,-3.4733,-3.4965,-3.5639,-3.5915,-3.6344,-3.7215,-3.7491,-3.7767,-3.8173,-3.8202,-3.8202,-3.8202,-3.8202,-3.8202,-3.8202,-3.8449,-3.8583,-3.8583,-3.8826,-3.8936,-3.8936,-3.8694,-3.8583,-3.8583,-3.8826,-3.9341,0.0,0.0,0.0,0.0,0.0,0.0,-1.3511,0.0,0.0,0.0,0.0,0.0,0.0,0.0,0.0,0.0,0.0,0.0,0.0,0.0,0.0,0.0,0.0,0.0,0.0,0.0,0.0,0.0,0.0,-1.6618,-1.739,-1.7432,-1.7925,-1.9,-1.9011,-1.9011,-1.9044,-1.9233,-1.9365,-1.9398,-2.043,-2.0953,-2.0985,-2.1819,-2.2197,-2.2221,-2.2739,-2.2678,-2.2258,-2.2787,-2.3348,-2.3911,-2.436,-2.5313,-2.6414,-2.6449,-2.6955,-2.7683,-2.7749,-2.7959,-2.8344,-2.9121,-2.9901,-3.0821,-3.2147,-3.2991,-3.3663,-3.424,-3.4414,-3.4414,-3.4414,-3.4448,-3.4448,-3.4433,-3.4467,-3.4635,-3.5302,-3.4905,-3.4467,-3.4467,-3.4467,-3.4467,-3.4467,-3.4496,-3.4714,-3.5359,-3.5476,-3.5723,-3.6314,-3.6968,-3.7339,-3.7368,-3.7891,-3.824,-3.8202,-3.8202,-3.8202,-3.8269,-3.824,-3.8254,-3.8335,-3.9002,-3.937,-3.937,-4.0065,-4.0432,-4.0382,-3.9682,-3.9341,-3.9341,-4.0069,-4.0842,-1.027,0.0,0.0,0.0,0.0,0.0,0.0,0.0,0.0,0.0,0.0,0.0,0.0,0.0,0.0,0.0,0.0,0.0,0.0,0.0,0.0,0.0,0.0,0.0,0.0,0.0,0.0,0.0,-1.651,-1.6853,-1.7571,-1.7952,-1.8655,-1.9748,-1.9408,-1.9464,-1.9998,-2.0312,-2.0698,-2.1178,-2.1632,-2.1851,-2.1862,-2.2092,-2.2197,-2.2197,-2.2354,-2.2546,-2.2811,-2.3372,-2.4176,-2.512,-2.5236,-2.608,-2.7217,-2.7311,-2.7498,-2.7815,-2.8588,-2.8935,-2.9208,-3.0489,-3.1372,-3.2097,-3.2974,-3.3645,-3.4196,-3.4356,-3.4414,-3.4501,-3.5004,-3.5121,-3.5252,-3.5738,-3.5866,-3.5882,-3.6072,-3.5977,-3.5866,-3.5866,-3.5866,-3.5866,-3.5866,-3.629,-3.6717,-3.6899,-3.7324,-3.7889,-3.8523,-3.8781,-3.8842,-3.8769,-3.8905,-3.8789,-3.824,-3.8202,-3.8654,-3.9713,-3.9297,-3.9702,-4.1322,-4.1061,-4.0873,-4.0873,-4.1085,-4.0944,-4.0382,-4.0209,-4.0104,-4.0104,-4.086,-4.1327,0.0,0.0,0.0,0.0,0.0,0.0,-1.3511,-1.3731,0.0,0.0,0.0,0.0,0.0,0.0,0.0,0.0,0.0,0.0,0.0,0.0,0.0,0.0,0.0,0.0,0.0,0.0,0.0,0.0,-1.6571,-1.7134,-1.8067,-1.9048,-1.9897,-2.0602,-2.0344,-2.042,-2.0935,-2.1198,-2.1526,-2.1894,-2.2092,-2.2197,-2.2197,-2.2197,-2.2306,-2.2566,-2.3074,-2.3592,-2.4145,-2.5004,-2.5444,-2.5644,-2.6258,-2.7104,-2.8065,-2.8187,-2.8478,-2.8903,-2.9824,-3.0174,-3.0398,-3.1558,-3.2382,-3.2977,-3.3387,-3.4123,-3.482,-3.482,-3.5037,-3.5335,-3.5706,-3.5834,-3.5929,-3.6322,-3.6415,-3.6477,-3.6768,-3.6829,-3.6738,-3.6446,-3.6661,-3.6862,-3.6862,-3.7463,-3.8018,-3.8296,-3.8666,-3.9144,-3.9788,-3.9881,-3.9849,-3.9758,-3.9768,-3.9696,-3.9599,-3.9593,-4.0081,-4.124,-4.0921,-4.1275,-4.2541,-4.247,-4.2408,-4.2408,-4.272,-4.2669,-4.2226,-4.1325,-4.101,-4.1327,-4.2072,-4.2428,0.0,0.0,0.0,0.0,0.0,0.0,-1.3748,-1.3799,-1.383,0.0,0.0,0.0,0.0,0.0,0.0,0.0,0.0,0.0,0.0,0.0,0.0,0.0,0.0,0.0,0.0,0.0,-1.6383,-1.6056,-1.6757,-1.7682,-1.8742,-2.0347,-2.1273,-2.1388,-2.1431,-2.1537,-2.173,-2.1874,-2.1925,-2.1937,-2.2092,-2.2197,-2.2197,-2.2278,-2.2599,-2.3183,-2.4316,-2.5158,-2.5823,-2.7038,-2.692,-2.609,-2.7334,-2.8266,-2.8949,-2.9079,-2.9668,-3.0513,-3.1104,-3.1459,-3.1729,-3.246,-3.3121,-3.3634,-3.3758,-3.4596,-3.5529,-3.5529,-3.5946,-3.6415,-3.6477,-3.6508,-3.6538,-3.66,-3.6631,-3.6799,-3.7371,-3.7569,-3.7452,-3.6877,-3.7266,-3.7762,-3.784,-3.8398,-3.9066,-3.9639,-3.9794,-4.0057,-4.0579,-4.0622,-4.0622,-4.0519,-4.0519,-4.0797,-4.1456,-4.1518,-4.1877,-4.2777,-4.2746,-4.2813,-4.3076,-4.363,-4.391,-4.391,-4.4505,-4.4787,-4.4787,-4.2827,-4.2204,-4.2861,-4.3524,-4.3832,0.0,0.0,0.0,0.0,0.0,0.0,-1.3839,-1.389,-1.395,0.0,0.0,0.0,0.0,0.0,0.0,0.0,0.0,0.0,0.0,0.0,0.0,0.0,0.0,0.0,0.0,0.0,-1.6137,-1.6246,-1.8039,-1.9267,-1.9488,-2.07,-2.1368,-2.1388,-2.1663,-2.1831,-2.1874,-2.2061,-2.2123,-2.2123,-2.2185,-2.2197,-2.2216,-2.2702,-2.3249,-2.3854,-2.4617,-2.5543,-2.657,-2.7521,-2.7999,-2.8209,-2.8478,-2.9089,-2.9851,-3.0007,-3.0489,-3.1133,-3.1389,-3.1843,-3.2521,-3.3663,-3.4135,-3.4424,-3.5502,-3.6011,-3.6197,-3.6197,-3.6291,-3.6508,-3.7057,-3.7207,-3.7342,-3.7886,-3.8017,-3.8046,-3.8193,-3.8673,-3.9046,-3.8913,-3.8996,-3.9269,-3.9814,-4.0535,-4.1049,-4.1178,-4.1644,-4.2029,-4.2174,-4.219,-4.1933,-4.1344,-4.1278,-4.1359,-4.1491,-4.1518,-4.231,-4.4161,-4.3772,-4.4256,-4.5977,-4.5617,-4.5379,-4.5379,-4.4996,-4.4787,-4.4787,-4.4365,-4.4235,-4.4366,-4.4512,-4.4577,0.0,0.0,0.0,-1.4808,0.0,0.0,0.0,-1.4251,-1.4139,0.0,0.0,0.0,0.0,0.0,0.0,0.0,0.0,0.0,0.0,0.0,0.0,0.0,0.0,0.0,0.0,0.0,-1.6434,-1.7151,-1.8735,-1.9718,-1.9795,-2.0823,-2.1494,-2.162,-2.18,-2.1968,-2.2061,-2.2154,-2.2197,-2.2197,-2.25,-2.2641,-2.2684,-2.3631,-2.4356,-2.497,-2.5924,-2.6872,-2.7798,-2.8588,-2.9156,-2.956,-2.956,-2.9822,-3.0248,-3.0747,-3.1327,-3.1968,-3.2346,-3.3118,-3.4038,-3.4681,-3.5115,-3.5521,-3.6214,-3.6631,-3.6966,-3.7296,-3.7385,-3.7474,-3.7815,-3.7902,-3.796,-3.8307,-3.8683,-3.8942,-3.8942,-3.9493,-4.0121,-4.0567,-4.0648,-4.0715,-4.0996,-4.163,-4.2099,-4.2099,-4.2376,-4.2602,-4.2602,-4.2602,-4.2605,-4.2606,-4.2605,-4.289,-4.3569,-4.363,-4.4246,-4.5712,-4.5491,-4.5773,-4.686,-4.6536,-4.6342,-4.6342,-4.6018,-4.584,-4.584,-4.584,-4.5484,-4.4804,-4.5144,-4.5305,0.0,0.0,0.0,0.0,0.0,-1.4655,0.0,0.0,0.0,0.0,0.0,0.0,0.0,0.0,0.0,0.0,0.0,0.0,0.0,0.0,0.0,0.0,0.0,0.0,0.0,0.0,-1.6965,-1.8166,-1.9189,-1.9841,-2.004,-2.0962,-2.1632,-2.1894,-2.1925,-2.203,-2.2197,-2.2197,-2.2247,-2.2389,-2.2859,-2.3241,-2.3504,-2.4657,-2.5563,-2.6299,-2.7437,-2.8353,-2.9089,-2.9654,-3.0115,-3.0463,-3.0342,-3.0475,-3.0816,-3.1461,-3.2271,-3.3141,-3.3674,-3.4628,-3.56,-3.5747,-3.6244,-3.6799,-3.6799,-3.7177,-3.7727,-3.825,-3.8391,-3.8391,-3.8391,-3.8391,-3.844,-3.857,-3.9084,-3.9567,-3.9713,-4.031,-4.1035,-4.1741,-4.1952,-4.202,-4.1929,-4.2338,-4.2696,-4.2696,-4.2696,-4.2696,-4.2696,-4.281,-4.3134,-4.3686,-4.3896,-4.4496,-4.5694,-4.5841,-4.6149,-4.6878,-4.6876,-4.6876,-4.6876,-4.6876,-4.6876,-4.6876,-4.6876,-4.6876,-4.6876,-4.6927,-4.6377,-4.5275,-4.5826,-4.6086,0.0,0.0,0.0,0.0,-1.5695,0.0,0.0,0.0,0.0,0.0,0.0,0.0,0.0,0.0,0.0,0.0,0.0,0.0,0.0,0.0,0.0,0.0,0.0,0.0,0.0,0.0,0.0,-1.8714,-1.946,-2.0098,-2.0582,-2.14,-2.1862,-2.1894,-2.2061,-2.2197,-2.2197,-2.2197,-2.2469,-2.2997,-2.3058,-2.3683,-2.4818,-2.5496,-2.653,-2.7804,-2.8484,-2.9225,-2.9988,-3.0174,-3.0569,-3.1058,-3.0509,-3.1084,-3.2258,-3.2363,-3.3517,-3.5078,-3.5171,-3.5677,-3.6369,-3.6965,-3.7623,-3.8177,-3.8177,-3.825,-3.8307,-3.8363,-3.8391,-3.8391,-3.8391,-3.8391,-3.8553,-3.923,-3.954,-3.9854,-4.0492,-4.1311,-4.1953,-4.2064,-4.2542,-4.2951,-4.2921,-4.2986,-4.3035,-4.3035,-4.3035,-4.3035,-4.3035,-4.3608,-4.3987,-4.3974,-4.4673,-4.5294,-4.5776,-4.5942,-4.63,-4.6878,-4.6876,-4.6876,-4.6876,-4.6876,-4.6876,-4.6876,-4.6876,-4.6876,-4.6876,-4.7064,-4.7085,-4.6939,-4.702,-4.7137,0.0,0.0,0.0,0.0,0.0,0.0,-1.5751,0.0,-1.4994,0.0,0.0,0.0,0.0,0.0,0.0,0.0,0.0,0.0,0.0,0.0,0.0,0.0,0.0,0.0,0.0,0.0,0.0,0.0,0.0,-2.0211,-2.0966,-2.1578,-2.1956,-2.2061,-2.2166,-2.2342,-2.2654,-2.2708,-2.3182,-2.4092,-2.4524,-2.5177,-2.6076,-2.7148,-2.7963,-2.857,-2.9284,-2.9809,-3.0249,-3.0658,-3.1028,-3.1423,-3.1898,-3.2475,-3.3083,-3.3465,-3.4611,-3.5966,-3.5966,-3.6671,-3.7608,-3.7902,-3.8177,-3.8391,-3.8391,-3.8391,-3.8391,-3.8391,-3.8391,-3.8391,-3.8391,-3.8784,-3.9215,-3.9552,-4.0384,-4.1187,-4.1484,-4.243,-4.3115,-4.2897,-4.3333,-4.3798,-4.3885,-4.3459,-4.3113,-4.3113,-4.3457,-4.3735,-4.3735,-4.4374,-4.4965,-4.5342,-4.5718,-4.6192,-4.6729,-4.6861,-4.7008,-4.7235,-4.7251,-4.7251,-4.7251,-4.7149,-4.7064,-4.7064,-4.7064,-4.7064,-4.7064,-4.7285,-4.742,-4.7471,-4.7386,-4.7403,-1.6682,0.0,0.0,0.0,0.0,0.0,0.0,0.0,0.0,0.0,0.0,0.0,0.0,0.0,0.0,0.0,0.0,0.0,0.0,0.0,0.0,0.0,0.0,0.0,0.0,0.0,0.0,0.0,-1.9738,0.0,-2.1349,-2.1784,-2.2061,-2.2197,-2.2197,-2.2563,-2.3274,-2.3312,-2.4024,-2.5344,-2.5878,-2.6581,-2.7409,-2.8422,-2.9047,-2.9321,-2.9897,-3.0341,-3.0658,-3.1087,-3.1656,-3.2353,-3.328,-3.3979,-3.4498,-3.4841,-3.5797,-3.6937,-3.6958,-3.7578,-3.8391,-3.8391,-3.8391,-3.8391,-3.8391,-3.8391,-3.8391,-3.8391,-3.8391,-3.844,-3.8651,-3.9186,-3.9744,-4.0192,-4.1307,-4.2393,-4.262,-4.3542,-4.4266,-4.3972,-4.4243,-4.4563,-4.4691,-4.421,-4.3843,-4.4022,-4.4503,-4.4908,-4.4908,-4.5365,-4.5912,-4.6422,-4.6701,-4.7029,-4.7471,-4.7537,-4.7537,-4.752,-4.752,-4.752,-4.752,-4.7369,-4.7285,-4.7285,-4.7285,-4.7285,-4.7285,-4.7638,-4.7853,-4.7934,-4.7688,-4.7688,0.0,0.0,0.0,-1.6908,0.0,0.0,0.0,0.0,-1.6056,0.0,0.0,0.0,0.0,0.0,0.0,0.0,0.0,0.0,0.0,0.0,0.0,0.0,0.0,0.0,0.0,0.0,0.0,-1.9767,-2.0077,0.0,-2.1822,-2.208,-2.2185,-2.2197,-2.2197,-2.2756,-2.3966,-2.3971,-2.4887,-2.6728,-2.6761,-2.7511,-2.8829,-2.8873,-2.9408,-3.0267,-3.0282,-3.0732,-3.1451,-3.148,-3.2555,-3.4202,-3.4261,-3.5457,-3.7104,-3.654,-3.7173,-3.8347,-3.8335,-3.8363,-3.8391,-3.8391,-3.8391,-3.8391,-3.8391,-3.8391,-3.8391,-3.8391,-3.8391,-3.8553,-3.9295,-3.9489,-3.9875,-4.1387,-4.2303,-4.3104,-4.3955,-4.4722,-4.525,-4.525,-4.525,-4.5276,-4.5276,-4.5418,-4.5716,-4.6298,-4.6516,-4.6604,-4.6604,-4.6767,-4.6762,-4.6601,-4.7407,-4.782,-4.7537,-4.7621,-4.7654,-4.7504,-4.752,-4.752,-4.752,-4.747,-4.747,-4.747,-4.747,-4.747,-4.747,-4.8193,-4.8572,-4.8572,-4.7967,-4.8113,0.0,0.0,-1.8172,-1.774,0.0,0.0,0.0,0.0,0.0,0.0,0.0,0.0,0.0,0.0,0.0,0.0,0.0,0.0,0.0,0.0,0.0,0.0,0.0,0.0,0.0,0.0,0.0,-2.0457,-2.076,-2.1218,0.0,-2.2491,-2.2746,-2.2746,-2.3482,-2.4309,-2.5041,-2.5597,-2.6537,-2.7926,-2.8099,-2.8647,-2.9497,-2.9724,-2.999,-3.0312,-3.0866,-3.1248,-3.1611,-3.2844,-3.374,-3.4438,-3.5774,-3.6695,-3.7295,-3.7069,-3.7592,-3.8391,-3.8391,-3.8391,-3.8391,-3.8391,-3.8391,-3.8391,-3.8391,-3.8588,-3.8738,-3.8476,-3.8958,-3.9523,-3.9498,-4.0619,-4.1839,-4.2195,-4.3401,-4.4524,-4.465,-4.532,-4.5776,-4.5381,-4.5606,-4.606,-4.6531,-4.7108,-4.7297,-4.6608,-4.7417,-4.8083,-4.8083,-4.8531,-4.8796,-4.8719,-4.8988,-4.9158,-4.9019,-4.905,-4.8745,-4.7902,-4.8194,-4.8258,-4.7836,-4.7688,-4.782,-4.8225,-4.8225,-4.8448,-4.8883,-4.9231,-4.9393,-4.9393,-4.9184,-4.9231,-1.8375,-1.8677,0.0,0.0,-1.8398,0.0,-1.7476,0.0,0.0,0.0,0.0,0.0,0.0,0.0,0.0,0.0,0.0,0.0,0.0,0.0,0.0,0.0,0.0,0.0,0.0,0.0,-1.9855,-2.0919,-2.114,-2.1583,0.0,0.0,-2.3192,-2.3639,-2.4396,-2.5287,-2.6349,-2.6859,-2.7745,-2.8953,-2.9139,-2.9487,-3.0007,-3.019,-3.0463,-3.0762,-3.1277,-3.1873,-3.2599,-3.3799,-3.4725,-3.55,-3.6786,-3.7441,-3.7695,-3.7695,-3.8003,-3.8391,-3.8391,-3.8391,-3.8391,-3.8391,-3.8504,-3.86,-3.86,-3.8887,-3.9169,-3.8898,-3.9561,-4.0354,-4.0435,-4.1766,-4.3138,-4.3368,-4.449,-4.5485,-4.5372,-4.5953,-4.6381,-4.5985,-4.6446,-4.706,-4.7519,-4.8491,-4.8937,-4.8058,-4.8833,-4.9514,-4.9514,-4.9671,-4.9804,-4.9804,-4.9804,-4.9804,-4.9804,-4.9804,-4.947,-4.8685,-4.9023,-4.9036,-4.8654,-4.8511,-4.8635,-4.9019,-4.9019,-4.9244,-4.9676,-5.0011,-5.0153,-5.0153,-5.0377,-5.0487]},{"header":{"parameterUnit":"m.s-1","parameterCategory":1,"la1":30.6,"la2":29.2853,"lo1":-89.7004,"lo2":-87.6739,"dx":0.0162,"dy":0.0183,"nx":112,"ny":82,"refTime":"2023-01-31T06:00:00:Z","depth":0,"parameterNumber":3,"parameterNumberName":"V-component_of_WINDS"},"data":[0.0,0.0,0.0,0.0,0.0,0.0,0.0,0.0,0.0,0.0,0.0,0.0,0.0,0.0,0.0,0.0,0.0,0.0,0.0,0.0,0.0,0.0,0.0,0.0,0.0,0.0,0.0,0.0,0.0,0.0,0.0,0.0,0.0,0.0,0.0,0.0,0.0,0.0,0.0,0.0,0.0,0.0,0.0,0.0,0.0,0.0,0.0,0.0,0.0,0.0,0.0,0.0,0.0,0.0,0.0,0.0,0.0,0.0,0.0,0.0,0.0,0.0,0.0,0.0,0.0,0.0,0.0,0.0,0.0,0.0,0.0,0.0,0.0,0.0,0.0,0.0,0.0,0.0,0.0,0.0,0.0,0.0,0.0,0.0,0.0,0.0,0.0,0.0,0.0,0.0,1.9307,2.1745,2.4218,2.5348,2.4473,2.4952,2.4985,2.4241,0.0,0.0,0.0,0.0,0.0,0.0,0.0,0.0,0.0,0.0,0.0,0.0,0.0,0.0,0.0,0.0,0.0,0.0,0.0,0.0,0.0,0.0,0.0,0.0,0.0,0.0,0.0,0.0,0.0,0.0,0.0,0.0,0.0,0.0,0.0,0.0,0.0,0.0,0.0,0.0,0.0,0.0,0.0,0.0,0.0,0.0,0.0,0.0,0.0,0.0,0.0,0.0,0.0,0.0,0.0,0.0,0.0,0.0,0.0,0.0,0.0,0.0,0.0,0.0,0.0,0.0,0.0,0.0,0.0,0.0,0.0,0.0,0.0,0.0,0.0,0.0,0.0,0.0,0.0,0.0,0.0,0.0,0.0,0.0,0.0,0.0,0.0,0.0,0.0,0.0,0.0,0.0,0.0,0.0,0.0,0.0,0.0,0.0,0.0,0.0,0.0,0.0,0.0,0.0,2.0849,2.27,2.4588,2.5352,2.4463,2.3837,2.3443,2.3318,0.0,0.0,0.0,0.0,0.0,0.0,0.0,0.0,0.0,0.0,0.0,0.0,0.0,0.0,0.0,0.0,0.0,0.0,0.0,0.0,0.0,0.0,0.0,0.0,0.0,0.0,0.0,0.0,0.0,0.0,0.0,0.0,0.0,0.0,0.0,0.0,0.0,0.0,0.0,0.0,0.0,0.0,0.0,0.0,0.0,0.0,0.0,0.0,0.0,0.0,0.0,0.0,0.0,0.0,0.0,0.0,0.0,0.0,0.0,0.0,0.0,0.0,0.0,0.0,0.0,0.0,0.0,0.0,0.0,0.0,0.0,0.0,0.0,0.0,0.0,0.0,0.0,0.0,0.0,0.0,0.0,0.0,0.0,0.0,0.0,0.0,0.0,0.0,0.0,0.0,0.0,0.0,0.0,0.0,0.0,0.0,0.0,0.0,0.0,0.0,0.0,0.0,0.0,2.1375,2.2213,2.3012,2.463,2.5129,2.3804,2.3332,2.3301,2.3766,2.4118,0.0,0.0,0.0,0.0,0.0,0.0,0.0,0.0,0.0,0.0,0.0,0.0,0.0,0.0,0.0,0.0,0.0,0.0,0.0,0.0,0.0,0.0,0.0,0.0,0.0,0.0,0.0,0.0,0.0,0.0,0.0,0.0,0.0,0.0,0.0,0.0,0.0,0.0,0.0,0.0,0.0,0.0,0.0,0.0,0.0,0.0,0.0,0.0,0.0,0.0,0.0,0.0,0.0,0.0,0.0,0.0,0.0,0.0,0.0,0.0,0.0,0.0,0.0,0.0,0.0,0.0,0.0,0.0,0.0,0.0,0.0,0.0,0.0,0.0,0.0,0.0,0.0,0.0,0.0,0.0,0.0,0.0,0.0,0.0,0.0,0.0,0.0,0.0,0.0,0.0,0.0,0.0,0.0,0.0,0.0,0.0,0.0,0.0,0.0,0.0,0.0,0.0,2.2372,2.2879,2.3072,2.4254,2.4403,2.2918,2.2792,2.3161,2.4048,2.3477,0.0,0.0,0.0,0.0,0.0,0.0,0.0,0.0,0.0,0.0,0.0,0.0,0.0,0.0,0.0,0.0,0.0,0.0,0.0,0.0,0.0,0.0,0.0,0.0,0.0,0.0,0.0,0.0,0.0,0.0,0.0,0.0,0.0,0.0,0.0,0.0,0.0,0.0,0.0,0.0,0.0,0.0,0.0,0.0,0.0,0.0,0.0,0.0,0.0,0.0,0.0,0.0,0.0,0.0,0.0,0.0,0.0,0.0,0.0,0.0,0.0,0.0,0.0,0.0,0.0,0.0,0.0,0.0,0.0,0.0,0.0,0.0,0.0,0.0,0.0,0.0,0.0,0.0,0.0,0.0,0.0,0.0,0.0,0.0,0.0,0.0,0.0,0.0,0.0,0.0,0.0,0.0,0.0,0.0,0.0,0.0,0.0,0.0,0.0,0.0,0.0,0.0,2.1855,2.2206,2.3004,2.3217,2.2894,2.1978,2.1893,2.2265,2.314,2.3125,0.0,0.0,0.0,0.0,0.0,0.0,0.0,0.0,0.0,0.0,0.0,0.0,0.0,0.0,0.0,0.0,0.0,0.0,0.0,0.0,0.0,0.0,0.0,0.0,0.0,0.0,0.0,0.0,0.0,0.0,0.0,0.0,0.0,0.0,0.0,0.0,0.0,0.0,0.0,0.0,0.0,0.0,0.0,0.0,0.0,0.0,0.0,0.0,0.0,0.0,0.0,0.0,0.0,0.0,0.0,0.0,0.0,0.0,0.0,0.0,0.0,0.0,0.0,0.0,0.0,0.0,0.0,0.0,0.0,0.0,0.0,0.0,0.0,0.0,0.0,0.0,0.0,0.0,0.0,0.0,0.0,0.0,0.0,0.0,0.0,0.0,0.0,0.0,0.0,0.0,0.0,0.0,0.0,0.0,0.0,0.0,0.0,0.0,0.0,0.0,0.0,0.0,2.2612,2.2735,0.0,2.3548,2.3066,2.1151,2.1487,2.217,2.3044,0.0,0.0,0.0,0.0,0.0,0.0,0.0,0.0,0.0,0.0,0.0,0.0,0.0,0.0,0.0,0.0,0.0,0.0,0.0,0.0,0.0,0.0,0.0,0.0,0.0,0.0,0.0,0.0,0.0,0.0,0.0,0.0,0.0,0.0,0.0,0.0,0.0,0.0,0.0,0.0,0.0,0.0,0.0,0.0,0.0,0.0,0.0,0.0,0.0,0.0,0.0,0.0,0.0,0.0,0.0,0.0,0.0,0.0,0.0,0.0,0.0,0.0,0.0,0.0,0.0,0.0,0.0,0.0,0.0,0.0,0.0,0.0,0.0,0.0,0.0,0.0,0.0,0.0,0.0,0.0,0.0,0.0,0.0,0.0,0.0,0.0,0.0,0.0,0.0,0.0,0.0,0.0,0.0,0.0,0.0,0.0,0.0,0.0,0.0,0.0,0.0,0.0,2.2156,2.2262,2.2273,0.0,2.2773,2.2397,2.0646,2.1294,2.2166,2.305,0.0,0.0,0.0,0.0,0.0,0.0,0.0,0.0,0.0,0.0,0.0,0.0,0.0,0.0,0.0,0.0,0.0,0.0,0.0,0.0,0.0,0.0,0.0,0.0,0.0,0.0,0.0,0.0,0.0,0.0,0.0,0.0,0.0,0.0,0.0,0.0,0.0,0.0,0.0,0.0,0.0,0.0,0.0,0.0,0.0,0.0,0.0,0.0,0.0,0.0,0.0,0.0,0.0,0.0,0.0,0.0,0.0,0.0,0.0,0.0,0.0,0.0,0.0,0.0,0.0,0.0,0.0,0.0,0.0,0.0,0.0,0.0,0.0,0.0,0.0,0.0,0.0,0.0,0.0,0.0,0.0,0.0,0.0,0.0,0.0,0.0,0.0,0.0,0.0,0.0,0.0,0.0,0.0,0.0,0.0,0.0,0.0,0.0,0.0,0.0,0.0,0.0,2.0642,2.0512,2.0507,2.0503,2.0508,2.0501,2.0509,2.1294,2.2172,0.0,0.0,0.0,0.0,0.0,0.0,0.0,0.0,0.0,0.0,0.0,0.0,0.0,0.0,0.0,0.0,0.0,0.0,0.0,0.0,0.0,0.0,0.0,0.0,0.0,0.0,0.0,0.0,0.0,0.0,0.0,0.0,0.0,0.0,0.0,0.0,0.0,0.0,0.0,0.0,0.0,0.0,0.0,0.0,0.0,0.0,0.0,0.0,0.0,0.0,0.0,0.0,0.0,0.0,0.0,0.0,0.0,0.0,0.0,0.0,0.0,0.0,0.0,0.0,0.0,0.0,0.0,0.0,0.0,0.0,0.0,0.0,0.0,0.0,0.0,0.0,0.0,0.0,0.0,0.0,0.0,0.0,0.0,0.0,0.0,0.0,0.0,0.0,0.0,0.0,0.0,0.0,0.0,0.0,0.0,0.0,0.0,0.0,0.0,0.0,0.0,0.0,0.0,2.2283,2.1799,2.1422,2.1426,2.1418,2.1162,2.055,2.126,2.2126,2.3048,0.0,0.0,0.0,0.0,0.0,0.0,0.0,0.0,0.0,0.0,0.0,0.0,0.0,0.0,0.0,0.0,0.0,0.0,0.0,0.0,0.0,0.0,0.0,0.0,0.0,0.0,0.0,0.0,0.0,0.0,0.0,0.0,0.0,0.0,0.0,0.0,0.0,0.0,0.0,0.0,0.0,0.0,0.0,0.0,0.0,0.0,0.0,0.0,0.0,0.0,0.0,0.0,0.0,0.0,0.0,0.0,0.0,0.0,0.0,0.0,0.0,0.0,0.0,0.0,0.0,0.0,0.0,0.0,0.0,0.0,0.0,0.0,0.0,0.0,0.0,0.0,0.0,0.0,0.0,0.0,0.0,0.0,0.0,0.0,0.0,0.0,0.0,0.0,0.0,0.0,0.0,0.0,0.0,0.0,0.0,0.0,0.0,0.0,0.0,0.0,0.0,0.0,2.2557,2.1824,2.1289,2.1288,2.1582,2.145,2.0573,2.1877,2.2829,2.3043,0.0,0.0,0.0,0.0,0.0,0.0,0.0,0.0,0.0,0.0,0.0,0.0,0.0,0.0,0.0,0.0,0.0,0.0,0.0,0.0,0.0,0.0,0.0,0.0,0.0,0.0,0.0,0.0,0.0,0.0,0.0,0.0,0.0,0.0,0.0,0.0,0.0,0.0,0.0,0.0,0.0,0.0,0.0,0.0,0.0,0.0,0.0,0.0,0.0,0.0,0.0,0.0,0.0,0.0,0.0,0.0,0.0,0.0,0.0,0.0,0.0,0.0,0.0,0.0,0.0,0.0,0.0,0.0,0.0,0.0,0.0,0.0,0.0,0.0,0.0,0.0,0.0,0.0,0.0,0.0,0.0,0.0,0.0,0.0,0.0,0.0,0.0,0.0,0.0,0.0,0.0,0.0,0.0,0.0,0.0,0.0,0.0,0.0,0.0,0.0,0.0,0.0,2.2149,2.128,2.0742,2.0737,2.143,2.1584,2.0803,2.2915,2.3967,2.3173,0.0,0.0,0.0,0.0,0.0,0.0,0.0,0.0,0.0,0.0,0.0,0.0,0.0,0.0,0.0,0.0,0.0,0.0,0.0,0.0,0.0,0.0,0.0,0.0,0.0,0.0,0.0,0.0,0.0,0.0,0.0,0.0,0.0,0.0,0.0,0.0,0.0,0.0,0.0,0.0,0.0,0.0,0.0,0.0,0.0,0.0,0.0,0.0,0.0,0.0,0.0,0.0,0.0,0.0,0.0,0.0,0.0,0.0,0.0,0.0,2.552,0.0,0.0,0.0,0.0,0.0,0.0,0.0,0.0,0.0,0.0,0.0,0.0,0.0,0.0,0.0,0.0,0.0,0.0,0.0,0.0,0.0,0.0,0.0,0.0,0.0,0.0,0.0,0.0,0.0,0.0,0.0,0.0,0.0,0.0,0.0,0.0,0.0,0.0,0.0,0.0,0.0,2.3871,2.3084,2.2553,2.2547,2.2656,2.2661,2.2476,2.3598,2.4216,2.4025,2.5024,0.0,0.0,0.0,0.0,0.0,0.0,0.0,0.0,0.0,0.0,0.0,0.0,0.0,0.0,0.0,0.0,0.0,0.0,0.0,0.0,0.0,0.0,0.0,0.0,0.0,0.0,0.0,0.0,0.0,0.0,0.0,0.0,0.0,0.0,0.0,0.0,0.0,0.0,0.0,0.0,0.0,0.0,0.0,0.0,0.0,0.0,0.0,0.0,0.0,0.0,0.0,0.0,0.0,0.0,0.0,0.0,0.0,0.0,0.0,0.0,2.6661,0.0,0.0,0.0,0.0,0.0,0.0,0.0,0.0,0.0,0.0,0.0,0.0,0.0,0.0,0.0,0.0,0.0,0.0,0.0,0.0,0.0,0.0,0.0,0.0,0.0,0.0,0.0,0.0,0.0,0.0,0.0,0.0,0.0,0.0,0.0,0.0,0.0,0.0,0.0,0.0,2.4397,2.3633,2.309,2.3056,2.3392,2.3464,2.304,2.4183,2.4744,2.4333,2.513,0.0,0.0,0.0,0.0,0.0,0.0,0.0,0.0,0.0,0.0,0.0,0.0,0.0,0.0,0.0,0.0,0.0,0.0,0.0,0.0,0.0,0.0,0.0,0.0,0.0,0.0,0.0,0.0,0.0,0.0,0.0,0.0,0.0,0.0,0.0,0.0,0.0,0.0,0.0,0.0,0.0,0.0,0.0,0.0,0.0,0.0,0.0,0.0,0.0,0.0,0.0,0.0,0.0,0.0,3.0981,3.0163,3.0319,2.9897,2.9077,2.8921,2.8201,2.7123,0.0,0.0,0.0,0.0,0.0,0.0,0.0,0.0,0.0,0.0,0.0,0.0,0.0,0.0,0.0,0.0,0.0,0.0,0.0,0.0,0.0,0.0,0.0,0.0,0.0,2.6038,2.6101,0.0,0.0,0.0,0.0,0.0,0.0,0.0,0.0,0.0,0.0,0.0,0.0,2.4625,2.3981,2.3508,2.3456,2.4093,2.4239,2.3503,2.4766,2.5287,2.4569,2.5199,2.5609,0.0,0.0,0.0,0.0,0.0,0.0,0.0,0.0,0.0,0.0,0.0,0.0,0.0,0.0,0.0,0.0,0.0,0.0,0.0,0.0,0.0,0.0,0.0,0.0,0.0,0.0,0.0,0.0,0.0,0.0,0.0,0.0,3.1833,3.1833,0.0,0.0,0.0,0.0,0.0,0.0,0.0,0.0,0.0,0.0,0.0,0.0,0.0,0.0,3.1921,3.2616,3.2954,3.2973,3.3669,3.358,3.2822,3.3522,3.3402,3.2582,3.1824,0.0,2.8035,2.8043,0.0,0.0,0.0,0.0,0.0,0.0,0.0,0.0,0.0,0.0,0.0,0.0,0.0,0.0,0.0,0.0,0.0,0.0,0.0,0.0,0.0,0.0,2.682,2.6831,2.7415,2.7746,0.0,2.6239,2.5697,2.5705,0.0,0.0,0.0,0.0,0.0,0.0,0.0,0.0,2.5526,2.5379,2.5264,2.5251,2.5362,2.5387,2.5271,2.5465,2.5543,2.5446,2.5546,2.5604,2.5601,2.5593,0.0,0.0,0.0,0.0,0.0,0.0,0.0,0.0,0.0,0.0,0.0,0.0,0.0,0.0,0.0,0.0,0.0,0.0,0.0,0.0,0.0,0.0,0.0,0.0,0.0,0.0,0.0,0.0,0.0,3.1755,3.2182,3.2668,3.2299,3.2007,0.0,0.0,0.0,0.0,0.0,0.0,0.0,0.0,0.0,3.2853,3.3242,3.3689,3.4172,3.4524,3.4711,3.4711,3.5065,3.5061,3.4726,3.508,3.5041,3.4688,3.4299,3.3223,3.1589,2.9702,2.8634,2.8208,0.0,0.0,0.0,0.0,0.0,2.7616,2.7231,0.0,0.0,0.0,0.0,0.0,0.0,0.0,0.0,0.0,0.0,0.0,0.0,0.0,0.0,2.7672,2.7983,2.8191,2.7816,2.7409,2.6822,0.0,2.5702,2.5701,2.5697,0.0,0.0,0.0,0.0,0.0,2.5633,2.5629,2.5595,2.5603,2.5596,2.5601,2.5601,2.5601,2.5601,2.5601,2.5601,2.5601,2.5601,2.5596,2.5596,0.0,0.0,0.0,0.0,0.0,0.0,0.0,0.0,0.0,0.0,0.0,0.0,0.0,0.0,0.0,0.0,0.0,0.0,0.0,0.0,0.0,0.0,0.0,0.0,0.0,0.0,0.0,0.0,3.2182,3.2648,3.3507,3.3041,3.2551,0.0,0.0,0.0,0.0,0.0,0.0,3.292,3.3173,3.3779,3.4808,3.5488,3.5935,3.6125,3.6572,3.6688,3.6479,3.6902,3.6999,3.6805,3.7018,3.6979,3.6766,3.6339,3.576,3.4948,3.1981,3.0283,2.9474,2.926,2.9172,0.0,2.8944,2.9,2.9148,2.8919,2.8839,2.8841,2.8847,0.0,2.8507,2.834,0.0,0.0,0.0,0.0,2.7781,2.8379,0.0,2.9252,2.9218,2.9238,2.9216,2.8996,2.8729,2.8105,0.0,2.6168,2.6014,2.6001,0.0,0.0,0.0,0.0,2.5601,2.5595,2.5595,2.5608,2.5604,2.5601,2.5601,2.5601,2.5601,2.5601,2.5601,2.5601,2.5601,2.5601,2.5601,2.5601,2.5601,0.0,0.0,0.0,0.0,0.0,0.0,0.0,0.0,0.0,0.0,0.0,0.0,0.0,0.0,0.0,0.0,0.0,0.0,0.0,0.0,0.0,0.0,0.0,0.0,0.0,0.0,0.0,0.0,0.0,3.4346,3.4404,0.0,0.0,0.0,0.0,3.3177,3.3876,3.4692,3.5562,3.6401,3.6498,3.5756,3.8145,3.8654,3.7042,3.8674,3.9082,3.8289,3.9878,4.0247,3.9524,4.0305,4.0228,3.9407,3.7761,3.7003,3.6828,3.5006,3.3762,3.2954,3.2123,3.1807,3.1729,3.0955,3.1151,3.1689,3.0853,3.0562,3.0568,3.0564,3.0061,2.9284,2.8466,2.8222,0.0,0.0,2.8786,2.9374,2.9414,3.0664,3.1913,3.1893,3.1914,3.1679,3.0859,3.0019,2.9158,0.0,2.7419,2.6845,2.6847,0.0,2.5597,2.5597,2.5599,2.5593,2.5603,2.56,2.5604,2.5601,2.5601,2.5601,2.5601,2.5601,2.5601,2.5601,2.5601,2.5601,2.5601,2.5601,2.5601,2.5601,2.5601,0.0,0.0,0.0,0.0,0.0,0.0,0.0,0.0,0.0,0.0,0.0,0.0,0.0,0.0,0.0,0.0,0.0,0.0,0.0,0.0,0.0,0.0,0.0,0.0,0.0,0.0,0.0,0.0,3.6833,3.6518,0.0,3.6561,3.6071,3.5741,3.5741,3.6537,3.7392,3.8261,3.8591,3.914,3.9897,4.081,4.1276,4.1218,4.1835,4.1995,4.1684,4.2287,4.2422,4.2165,4.2442,4.2112,4.1276,4.0655,4.0053,3.9451,3.8324,3.637,3.4031,3.3723,3.328,3.2804,3.2513,3.2597,3.2785,3.2475,3.2394,3.2447,3.2448,3.2233,3.1857,3.0979,3.0732,3.0758,3.0742,3.0957,3.1308,3.1854,3.2479,3.2948,3.2938,3.2937,3.2842,3.2489,3.2161,3.1851,3.1542,2.9453,2.7741,2.7738,2.7434,2.7212,2.7264,2.6803,2.6434,2.6432,2.5946,2.5601,2.5601,2.5601,2.5601,2.5601,2.5601,2.5601,2.5601,2.5601,2.5601,2.5601,2.5601,2.5601,2.5601,2.5601,2.5757,0.0,0.0,0.0,0.0,0.0,0.0,0.0,0.0,0.0,0.0,0.0,0.0,0.0,0.0,0.0,0.0,0.0,0.0,0.0,0.0,0.0,0.0,0.0,0.0,0.0,0.0,3.6887,3.8635,3.8576,3.8499,3.881,3.8557,3.8382,3.8382,3.9183,4.0053,4.0942,4.1257,4.1781,4.2617,4.3185,4.3491,4.3505,4.3802,4.3802,4.3505,4.3802,4.3938,4.3938,4.3938,4.3627,4.3068,4.2772,4.2306,4.1743,4.1199,3.9276,3.6576,3.5702,3.5236,3.4983,3.4692,3.4769,3.4931,3.4363,3.4004,3.3754,3.3482,3.3394,3.3299,3.2714,3.2539,3.2598,3.2898,3.2978,3.3171,3.4019,3.4236,3.4236,3.423,3.4014,3.3785,3.3746,3.3505,3.3298,3.3298,3.0998,2.9041,2.9049,2.8512,2.8119,2.817,2.744,2.6906,2.6906,2.6145,2.5601,2.5601,2.5601,2.5601,2.5601,2.5601,2.5601,2.5601,2.5601,2.5601,2.5601,2.5601,2.5601,2.5601,2.5892,2.6048,2.6048,0.0,0.0,0.0,0.0,0.0,0.0,0.0,0.0,0.0,0.0,0.0,0.0,0.0,0.0,0.0,0.0,0.0,0.0,0.0,0.0,0.0,0.0,0.0,3.6125,3.6673,3.7897,3.9601,4.0519,4.0694,3.9932,4.0558,4.1024,4.1024,4.182,4.2694,4.353,4.4384,4.4443,4.3602,4.5142,4.522,4.3583,4.4423,4.4404,4.3583,4.4423,4.4831,4.4831,4.4831,4.4812,4.4753,4.3918,4.3544,4.3544,4.3505,4.25,4.0733,3.8207,3.7702,3.8309,3.745,3.7668,3.8162,3.6529,3.5434,3.4583,3.3813,3.356,3.3551,3.3551,3.3551,3.3742,3.4581,3.4813,3.5,3.5759,3.5943,3.5922,3.5908,3.5259,3.4634,3.4634,3.3968,3.3378,3.3378,3.1997,3.081,3.0791,2.9389,2.8259,2.824,2.7544,0.0,2.6983,2.6203,2.564,2.564,2.5621,2.5601,2.5601,2.5601,2.5601,2.5601,2.5601,2.5601,2.5601,2.5601,2.5601,2.5601,2.6459,2.6906,2.6906,0.0,0.0,0.0,0.0,0.0,0.0,0.0,0.0,0.0,0.0,0.0,0.0,0.0,0.0,0.0,0.0,0.0,0.0,0.0,0.0,0.0,0.0,3.8231,3.7741,3.947,4.1218,4.232,4.2656,4.2947,4.3355,4.3607,4.3724,4.3724,4.4481,4.5069,4.5297,4.553,4.555,4.5317,4.5769,4.5788,4.5317,4.555,4.555,4.5317,4.555,4.5672,4.5672,4.5672,4.5356,4.4792,4.4559,4.4443,4.4384,4.3763,4.3214,4.2597,4.0616,3.9256,3.8367,3.8134,3.819,3.8338,3.7926,3.7631,3.7383,3.7178,3.7108,3.7094,3.7094,3.7094,3.7149,3.7395,3.7453,3.7353,3.6952,3.6838,3.6682,3.6044,3.5713,3.5535,3.5484,3.5275,3.5111,3.5111,3.4214,3.3277,3.2691,3.2186,3.1658,3.1017,0.0,0.0,2.8787,2.7446,2.6536,2.6536,2.597,2.5601,2.5601,2.5601,2.5601,2.5601,2.5601,2.5601,2.5601,2.5601,2.5601,2.5601,2.6459,2.6906,0.0,0.0,0.0,0.0,0.0,0.0,0.0,0.0,0.0,0.0,0.0,0.0,0.0,0.0,0.0,0.0,0.0,0.0,0.0,0.0,0.0,0.0,3.9839,4.0538,4.0538,4.1801,4.3063,4.3938,4.4345,4.4753,4.5239,4.5297,4.5297,4.5297,4.5749,4.6002,4.6002,4.6002,4.6002,4.6002,4.6002,4.6002,4.6002,4.6002,4.6002,4.6002,4.6002,4.6002,4.6002,4.6002,4.5749,0.0,4.5297,4.5297,4.5258,4.4753,4.4132,0.0,0.0,0.0,0.0,0.0,3.9235,3.8949,3.8987,3.8763,3.8455,3.8488,3.8491,3.8491,3.8491,3.8491,3.8569,3.8906,3.8471,3.7887,3.7741,3.7426,3.6933,3.6075,3.6421,3.6744,3.5978,3.6086,3.6241,3.5872,0.0,0.0,3.3954,3.3526,3.3002,3.2124,3.1254,3.0383,0.0,2.8223,2.7408,2.7408,2.6958,2.6511,2.6164,2.6145,0.0,0.0,0.0,2.5601,2.5601,2.5951,0.0,0.0,0.0,2.7582,0.0,0.0,0.0,0.0,2.9724,2.9693,0.0,0.0,0.0,0.0,0.0,0.0,0.0,0.0,0.0,0.0,0.0,0.0,0.0,0.0,0.0,0.0,4.2248,4.386,4.4054,4.4074,4.4287,4.487,4.5574,4.6002,4.6002,4.6002,4.6002,4.6002,4.6002,4.6002,4.6002,0.0,0.0,0.0,0.0,4.6002,4.6002,4.6002,4.6002,4.6002,4.6002,4.6002,4.6002,4.6002,4.6002,4.6002,4.6002,4.6002,4.6002,4.6002,4.5006,4.3389,4.2422,4.1646,4.1024,4.0946,4.0461,0.0,0.0,0.0,0.0,3.8744,3.8773,3.8773,3.8773,3.8773,3.8923,3.9634,3.8727,3.7689,3.8376,3.7974,3.7178,3.63,3.7275,3.7979,3.644,3.6615,3.6867,3.6105,3.5872,3.5542,3.4769,3.3973,3.3118,3.2143,3.1331,0.0,2.9661,2.8783,2.8259,2.8259,0.0,0.0,2.6964,2.6906,2.6536,2.5659,2.5698,2.5757,2.5757,2.6572,2.7042,2.7042,2.7832,2.8628,2.9408,2.9505,2.9933,3.0694,3.0692,3.0694,0.0,0.0,0.0,0.0,0.0,0.0,0.0,0.0,0.0,0.0,0.0,0.0,0.0,0.0,0.0,4.3433,4.4773,4.6016,4.7414,4.7609,4.7143,4.5924,4.5905,4.6002,4.6002,4.6002,4.6002,4.6002,4.6002,4.6002,4.6002,4.6002,0.0,4.6002,4.6002,4.6002,4.6002,4.6002,4.6002,4.6002,0.0,0.0,4.6002,4.6002,4.6002,4.6002,4.6002,4.6002,4.6002,4.6002,4.5006,4.333,4.1762,4.1471,4.1864,4.116,4.0791,4.0674,4.0664,4.0552,4.0416,4.0425,4.0444,4.0444,4.0444,4.0444,0.0,4.061,4.0435,4.0042,3.9567,3.9315,3.8984,3.8091,3.8154,3.8309,3.7979,3.7469,3.7042,3.6887,3.628,3.5756,3.5581,3.4847,3.374,3.2221,3.1852,3.1428,3.0554,2.97,2.9152,2.9152,2.8511,2.7773,2.6964,2.6906,2.6536,2.5659,2.6262,2.6653,2.6653,2.7427,2.7871,2.7871,2.8706,2.9233,2.9408,3.0108,3.0538,3.0694,3.0707,3.0691,0.0,0.0,0.0,0.0,0.0,0.0,0.0,0.0,0.0,0.0,0.0,3.8845,0.0,0.0,4.3549,4.5705,4.6754,4.7609,4.8483,4.8211,4.7628,4.6754,4.6657,4.6482,4.6041,4.6002,4.6002,4.6002,4.6002,4.6002,4.6002,4.6002,4.6002,4.6002,4.6002,4.6002,4.6002,4.6002,4.6002,4.6002,4.6002,4.6002,4.6002,4.6002,4.6002,4.6002,4.6002,4.6002,4.5963,4.5574,4.5142,4.4579,4.2869,4.1937,4.149,4.1063,4.0907,4.0907,4.0907,4.0907,4.0907,4.0907,4.0907,4.0907,4.0907,4.0907,4.0907,4.0907,4.0616,4.0208,3.9796,3.9699,3.9489,3.862,3.9047,3.9412,3.8581,3.8402,3.8149,3.7275,3.6751,3.6168,3.5294,3.4789,3.4229,3.3371,3.2905,3.2341,3.1467,3.0593,3.0049,3.0049,2.9661,2.9059,2.8223,2.7757,2.7307,2.688,2.7249,2.7505,2.7505,2.8317,2.8745,2.8745,2.9602,3.0049,3.0049,3.0499,3.0923,3.1351,3.132,3.1087,0.0,0.0,0.0,0.0,0.0,0.0,0.0,0.0,3.7764,3.8764,3.9661,4.0992,4.3325,4.4734,4.5977,4.7337,4.8425,4.9046,4.8871,4.825,4.7686,4.7331,4.7143,4.6773,4.6079,4.6002,4.6002,4.6002,4.6002,4.6002,4.6002,4.6002,4.6002,4.6002,4.6002,4.6002,4.6002,4.6002,4.6002,4.6002,4.6002,4.6002,4.6002,4.6002,4.6002,4.6002,4.6002,4.6002,4.5944,4.5297,4.5317,4.5633,4.4287,4.2792,4.1412,4.1412,4.1296,4.114,4.114,4.1043,4.0907,4.0907,4.0907,4.0907,4.0907,4.0907,4.0907,4.0907,4.0422,3.9932,3.9932,3.9932,3.9761,3.9043,3.9917,4.0538,3.9183,3.9315,3.9237,3.7664,3.7217,3.6595,3.5022,3.475,3.4633,3.4326,3.372,3.306,3.2338,3.1642,3.1141,3.0962,3.0943,3.0535,2.9486,2.8609,2.81,2.81,2.8259,2.8356,2.8356,2.9195,2.9641,2.9641,3.0344,3.0694,3.0694,3.0869,3.1312,3.2007,3.2124,3.1818,3.54,3.5366,3.5429,3.4464,3.6085,3.8105,0.0,0.0,4.0587,4.147,4.2405,4.3384,4.4462,4.6579,4.823,4.8425,4.9843,5.0639,4.9868,4.9673,4.9027,4.7473,4.6618,4.6118,4.6021,4.6002,4.6002,4.6002,4.6002,4.6002,4.6002,4.6002,4.6002,4.6002,4.6002,4.6002,4.6002,4.6002,4.6002,4.6002,4.6002,4.6002,4.6002,4.6002,4.6002,4.6002,4.6002,4.6002,4.5982,4.5905,4.5491,4.4928,4.4734,4.4054,4.3214,4.3214,4.2714,4.2058,4.2058,4.1548,4.0907,4.0907,4.0907,4.0907,4.0907,4.0907,4.0907,4.0907,4.0849,4.0771,4.0771,4.0771,4.0733,4.0635,4.0752,4.0849,4.0655,4.015,3.9412,3.8445,3.7625,3.6789,3.5814,3.5659,3.5154,3.3662,3.3351,3.3254,3.3177,3.3079,3.271,3.193,3.1852,3.1192,2.9544,2.8609,2.81,2.81,2.8822,2.9253,2.9253,3.0088,3.0558,3.0558,3.0655,3.0694,3.0694,3.1487,3.1891,3.2027,3.2784,3.3068,3.6891,3.676,3.6764,3.6402,3.8322,4.0423,4.0868,4.2039,4.3263,4.4181,4.4674,4.5375,4.6754,4.7473,4.8172,0.0,4.9532,4.9745,4.9887,4.9027,4.7939,4.6696,4.621,4.6002,4.6002,4.6002,4.6002,4.6002,4.6002,4.6002,4.6002,4.6002,4.6002,4.6002,4.6002,4.6002,4.6002,4.6002,4.6002,4.6002,4.6002,4.6002,4.6002,4.6002,4.6002,4.6002,4.6002,4.6002,4.6002,4.6002,4.5808,4.5491,4.5491,4.5278,4.4831,4.386,4.3277,4.2966,4.2966,4.2384,4.1665,4.1665,4.1315,4.0907,4.0907,4.0907,4.0907,4.0907,4.0907,4.0907,4.0907,4.0907,4.0907,4.0907,4.0907,4.0907,4.0907,4.0266,3.9582,3.9237,3.8441,3.7741,3.7372,3.6887,3.6323,3.5624,3.4653,3.3837,3.3351,3.3293,3.3157,3.2807,3.2769,3.2458,3.1739,3.0862,3.0376,3.0376,3.0243,3.0162,3.0167,3.0963,3.1402,3.1394,3.1891,3.2144,3.2167,3.2528,3.2963,3.3468,3.3788,3.4201,3.7236,3.7494,3.8137,3.8868,4.0887,4.2847,4.3418,4.4657,4.5902,4.6574,4.6721,4.7026,4.8055,4.792,4.7997,4.9027,4.8852,4.8735,4.9124,4.7881,4.6618,4.5763,4.5453,4.5394,4.5652,4.5866,4.6002,4.6002,4.621,4.6366,4.6366,4.6579,4.6721,4.6721,4.6482,4.6366,4.6366,4.6366,4.623,4.6002,4.623,4.623,4.6002,4.6002,4.6002,4.6002,4.6002,4.6002,4.6002,4.6002,4.6002,4.6002,4.6002,4.6002,4.5846,4.4637,4.4054,4.386,4.386,4.3297,4.2558,4.2558,4.1976,4.1257,4.1257,4.1082,4.0946,4.1199,4.1082,4.0966,4.1199,4.1082,4.0907,4.0907,4.0907,4.0907,4.0907,4.0441,3.9975,3.9737,3.9198,3.8678,3.8445,3.7882,3.7372,3.7139,3.6032,3.4828,3.3779,3.3448,3.339,3.3604,3.3429,3.3293,3.3293,3.2703,3.233,3.233,3.1744,3.1387,3.139,3.1949,3.2251,3.2258,3.2876,3.3201,3.3203,3.3434,3.3869,3.4495,3.4686,3.5103,3.5432,3.6754,3.8724,4.1315,4.3347,4.5137,4.6768,4.7836,4.8483,4.8522,4.8522,4.8289,4.7492,4.8017,4.8308,4.7512,4.8075,4.8308,4.7492,4.6618,4.5749,4.4928,4.4093,4.3918,0.0,4.553,4.6002,4.6002,4.6773,4.7254,4.7254,4.8055,4.8522,4.8522,4.7706,4.7254,4.7254,4.7254,4.6832,4.6021,4.6851,4.6812,4.6002,4.6002,4.6002,4.6002,4.6002,4.6002,4.6002,4.6002,4.6002,4.6002,4.6002,4.6002,4.5982,4.5944,4.5433,4.4753,4.4753,4.419,4.3466,4.3466,4.2869,4.2155,4.2155,4.1568,4.1082,4.1922,4.1548,4.1082,4.1942,4.1529,4.0907,4.0907,4.0907,4.0907,4.0907,4.0888,4.0635,3.9854,3.9679,3.9392,3.8542,3.8387,3.8076,3.7236,3.7042,3.6401,3.4676,3.3779,3.3604,3.4385,3.3759,3.3293,3.3293,3.3215,3.3164,3.3164,3.3143,3.313,3.313,3.3149,3.3164,3.3164,3.3188,3.3208,3.3203,3.4056,3.4463,3.4521,3.5296,3.5674,3.759,3.967,4.1994,4.4098,4.5986,4.7628,4.8755,4.924,4.946,4.946,4.7667,4.5802,4.4948,4.5025,4.5122,4.4826,4.5958,4.6968,4.7259,4.654,4.5467,4.4033,4.4626,0.0,0.0,0.0,0.0,4.5963,4.6812,4.7293,4.7293,4.8133,4.8599,4.8599,4.7745,4.7293,4.7293,4.6735,4.6288,4.6002,4.6307,4.6268,4.6002,4.6002,4.6002,4.6002,4.6002,4.6002,4.6002,4.6002,4.6002,4.6002,4.6002,4.6002,4.6002,4.6002,4.5827,4.5594,4.5594,4.5045,4.4268,4.3685,4.2908,4.2194,4.2194,4.1587,4.1082,4.1961,4.2,4.1825,4.2116,4.2403,4.2481,4.1898,4.2209,4.2306,4.116,4.0907,4.083,4.0558,4.0039,3.9719,4.0005,3.9583,3.8899,3.8025,3.6951,3.6028,3.5449,3.5122,3.5055,3.5327,3.5081,3.4898,3.4898,3.4384,3.4065,3.4065,3.3518,3.3179,3.3141,3.3679,3.4003,3.3994,3.457,3.486,3.486,3.5151,3.5291,3.5291,3.5567,3.5697,4.0392,4.2533,4.4609,4.6791,4.8196,4.9202,4.9771,4.9906,4.9557,4.8333,4.6327,4.4268,4.2481,4.2146,4.2034,4.1723,4.283,4.4151,4.5317,4.5001,4.4446,4.392,4.4586,4.4755,0.0,0.0,0.0,4.5938,4.7104,4.7764,4.7764,4.8891,4.9532,4.9532,4.8677,4.8075,4.7764,4.7201,4.6773,4.6463,4.6157,4.6002,4.6002,4.6002,4.6002,4.6002,4.6002,4.6002,4.6002,4.6002,4.6002,4.6002,4.6002,4.6002,4.6002,4.6002,4.6002,4.5963,4.5672,4.5414,4.5045,4.3879,4.3335,4.301,4.2388,4.2034,4.1956,4.25,4.2656,4.2733,4.3044,4.3316,4.3355,4.2792,4.3083,4.3102,4.1665,4.1369,4.1262,4.0951,4.0427,4.0213,4.0775,4.041,3.9746,3.8889,3.7856,3.6938,3.6345,3.5978,3.577,3.577,3.5737,3.5708,3.5708,3.5229,3.4933,3.4933,3.4405,3.4061,3.4027,3.4564,3.4869,3.4858,3.5416,3.5706,3.5704,3.5706,3.5692,3.5692,3.5695,3.5695,4.3528,4.5171,4.6556,4.9283,4.9926,4.9906,4.9906,4.9771,4.8721,4.5472,4.4637,4.3471,0.0,0.0,3.9431,3.86,3.9295,4.0534,4.2151,4.2398,4.2959,0.0,0.0,0.0,0.0,0.0,0.0,4.6028,0.0,4.8613,4.8652,5.0264,5.1196,5.1196,5.0336,4.9487,4.8671,4.8574,4.8108,4.7262,4.6394,4.5986,4.5961,4.5986,4.5986,4.5986,4.5986,4.5986,4.5986,4.5986,4.5986,4.5986,4.5991,4.5991,4.5986,4.5997,4.5997,4.588,4.5084,4.5336,4.573,4.4093,4.4093,4.4423,4.2816,4.285,4.3447,4.3544,4.3563,4.3758,4.4579,4.4229,4.3622,4.3563,4.3583,4.3369,4.2403,4.2228,4.1994,4.1135,4.092,4.0865,4.0859,4.0826,4.0535,3.9774,3.9658,3.9067,3.7371,3.6382,3.5839,3.5839,3.5781,3.5762,3.5762,3.5718,3.5707,3.5707,3.5701,3.5704,3.5704,3.5704,3.5704,3.5704,3.5704,3.5704,3.5704,3.5704,3.5704,3.5704,3.5704,3.5704,4.4889,4.692,4.8918,5.0474,5.0386,4.9906,4.9906,4.7925,4.5841,4.4986,4.2267,3.9572,3.8033,0.0,0.0,3.9392,4.1645,0.0,4.4882,4.499,0.0,4.446,0.0,4.5714,4.5139,4.6205,0.0,0.0,4.8043,4.8819,4.9459,5.0526,5.1127,5.1127,5.0085,4.9516,4.9498,4.8218,4.7372,4.6996,4.6221,4.5761,4.563,4.573,4.5778,4.5778,4.5778,4.5778,4.5778,4.5778,4.5778,4.5786,4.5887,4.5854,4.58,4.5933,4.5978,4.5814,4.5062,4.5336,4.5827,4.4792,4.419,4.3879,4.4074,4.3379,4.2805,4.4107,4.4427,4.4455,4.4729,4.5087,4.5207,4.4547,4.4841,4.4707,4.2574,4.2646,4.2834,4.1956,4.1778,4.1749,4.1711,4.1201,4.0734,4.0516,4.0496,3.9888,3.8214,3.7748,3.7572,3.7572,3.6975,3.6596,3.6596,3.6049,3.5695,3.5695,3.569,3.5704,3.5704,3.5704,3.5704,3.5704,3.5704,3.5704,3.5704,3.5704,3.5704,3.5704,3.5704,3.5704,4.6863,4.8728,5.0237,5.0545,5.025,4.9518,4.8003,4.6171,4.4268,4.2384,4.0077,3.7901,3.6265,3.7072,3.7995,0.0,0.0,0.0,4.4054,4.4473,4.4679,0.0,4.5914,0.0,4.5787,4.6925,4.7854,0.0,4.8528,4.8927,4.9418,5.0287,5.075,5.075,5.0133,4.9517,4.8935,4.7576,4.6659,4.6189,4.5778,4.5513,4.5408,4.549,4.5507,4.5507,0.0,4.5507,4.5507,4.5507,4.5507,4.5535,4.561,4.5594,4.5552,4.5657,4.5665,4.5573,4.5158,4.5376,4.5635,4.4536,4.4101,4.4051,4.4153,4.3774,4.3491,4.4478,4.4977,4.5237,4.5273,4.5617,4.5838,4.5334,4.5574,4.5401,4.3637,4.3606,4.3671,4.2801,4.2627,4.2492,4.2067,4.1635,4.1202,4.0854,4.0796,4.0459,3.9528,3.9027,3.8628,3.8235,3.7411,3.6903,3.6903,3.6168,3.5704,3.5704,3.5704,3.5704,3.5704,3.5704,3.5704,3.5704,3.5704,3.5704,3.5704,3.5704,3.5704,3.5704,3.5704,3.5704,4.8838,5.0236,5.0821,5.0078,4.9732,4.8721,4.553,4.4443,4.3025,3.9183,3.8212,3.7357,3.508,3.5374,3.6075,3.6415,0.0,3.9691,4.2249,4.3016,4.3918,4.5516,4.6184,4.6546,4.6626,4.7426,4.8226,4.8943,4.9018,4.91,4.9154,4.9874,5.0265,5.0232,5.0265,4.9518,4.7916,4.7075,4.6251,4.5399,4.5313,4.5246,4.5226,4.5236,4.5246,4.5246,0.0,0.0,4.5246,4.5246,4.5246,4.5246,4.5265,4.5265,4.5246,4.5295,4.5295,4.5275,4.5295,4.5416,4.5325,4.3963,4.3972,4.4412,4.3767,4.4019,4.4562,4.48,4.5362,4.5905,4.5911,4.5905,4.5905,4.5905,4.588,4.566,4.4866,4.4647,4.4383,4.3621,4.3479,4.3208,4.2318,4.2086,4.1719,4.0913,4.0797,4.0797,4.0797,4.0139,3.9385,3.8624,3.7657,3.7077,3.7077,3.6226,3.5704,3.5704,3.5704,3.5704,3.5704,3.5704,3.5704,3.5704,3.5704,3.5704,3.5704,3.5704,3.5704,3.5704,3.5704,3.5704,4.9146,5.0236,5.0821,5.0078,4.8813,4.724,4.5258,4.2617,4.0169,3.8697,3.7256,3.6105,3.5659,3.63,3.7553,3.9665,4.0818,4.2327,4.4879,4.5137,4.5359,0.0,4.6789,4.7339,4.7844,4.8681,0.0,0.0,0.0,4.9592,4.9958,5.0134,5.0116,4.9885,5.0104,4.9659,4.8466,4.7827,4.698,4.5946,4.5342,4.4962,4.4814,4.4924,4.4972,4.4972,0.0,0.0,4.4972,4.4972,4.4972,4.4976,4.5085,4.5071,4.5,4.5225,4.5226,4.5142,4.5256,4.5285,4.5141,4.4392,4.3898,4.3734,4.4296,4.4046,4.3833,4.5279,4.579,4.5893,4.5905,4.5906,4.5906,4.5906,4.5867,4.5588,4.4788,4.4607,4.4569,4.4407,4.4362,4.4091,4.3227,4.2473,4.1719,4.0913,4.0797,4.0797,4.0797,4.0681,4.0526,4.0371,3.8914,3.7961,3.7961,3.6574,3.5704,3.5704,3.5704,3.5704,3.5704,3.5704,3.5704,3.5704,3.5704,3.5704,3.5704,3.5704,3.5704,3.5704,3.5704,3.5704,4.9223,5.0236,5.0705,4.9509,4.825,4.6502,4.3452,4.116,3.9155,3.7411,3.6377,3.5795,3.5795,3.6485,3.7749,3.9878,4.0137,4.1228,4.4549,4.4068,4.4086,4.5997,4.6783,4.7434,4.8134,4.8983,0.0,0.0,0.0,0.0,4.9819,4.9833,4.9778,4.9655,4.9764,4.938,4.8409,4.7697,4.6845,4.5881,4.5116,4.4687,4.4592,4.4659,4.4699,4.4699,0.0,0.0,4.4699,4.4699,4.4699,4.4712,4.4764,4.4751,4.4706,4.4838,4.4831,4.4808,4.4856,4.4943,4.4873,4.416,4.3807,4.3819,4.4694,4.4395,4.4051,4.5329,4.5766,4.5854,4.5854,4.5848,4.5854,4.5854,4.5821,4.5691,4.5316,4.522,4.522,4.522,4.522,4.4968,4.4117,4.3247,4.2396,4.1545,4.1067,4.0752,4.066,4.0646,4.0673,4.079,3.9649,3.8876,3.8876,3.7309,3.6323,3.6323,3.5936,3.5662,3.5559,3.5534,3.5502,3.5385,3.5378,3.5378,3.5378,3.5378,3.5378,3.5378,3.5378,3.5378,4.9141,5.0177,5.0552,4.8954,4.7614,4.5673,4.1796,3.9951,3.8432,3.6241,3.5795,3.5795,3.5795,3.6321,3.7366,3.9295,3.8936,3.9792,4.3668,4.2862,4.2998,4.6007,4.6732,0.0,4.8382,4.9096,0.0,0.0,0.0,0.0,4.9509,4.9509,4.9509,4.9509,4.9509,4.9077,4.8194,4.7575,4.673,4.5697,4.5059,4.467,4.4501,4.4501,4.4501,4.4501,0.0,0.0,0.0,4.4501,4.4501,4.4501,4.4501,4.4501,4.4501,4.4501,4.4501,4.4501,4.4501,4.4595,4.4625,4.3989,4.3844,4.4025,4.4723,4.4547,4.4313,4.5177,4.556,4.5665,4.5665,4.5665,4.5665,4.5665,4.5688,4.5737,4.5737,4.5737,4.5737,4.5737,4.5737,4.5452,4.4604,4.3875,4.3072,4.203,4.1328,4.0783,4.0476,4.0414,4.0481,4.0653,3.9894,3.9373,3.9373,3.7784,3.68,3.68,3.6028,3.5502,3.5331,3.535,3.5342,3.5373,3.5373,3.5373,3.5373,3.5556,3.5441,3.5089,3.5452,3.552,4.8836,5.0018,5.0361,4.8803,4.6577,4.4086,4.1485,3.9048,3.7035,3.6004,3.5795,3.5795,3.5795,3.5853,3.6729,3.9203,3.9366,4.0367,4.3728,4.3738,4.4332,4.6891,0.0,0.0,4.9227,4.9452,0.0,0.0,0.0,0.0,0.0,4.9509,4.9509,4.9509,4.9509,4.9077,4.8194,4.8119,4.7293,4.5697,4.5622,4.5209,4.4501,4.4501,4.4501,4.4501,0.0,0.0,0.0,4.4501,4.4501,4.4501,4.4501,4.4501,4.4501,4.4501,4.4501,4.4501,4.4501,4.4496,4.4524,4.4448,4.4176,4.3911,4.4006,4.3978,4.4113,4.4984,4.5253,4.5263,4.5263,4.5263,4.5263,4.5263,4.539,4.5535,4.5535,4.5535,4.5535,4.5535,4.5535,4.5194,4.4135,4.3914,4.3292,4.1705,4.1342,4.1008,4.0319,4.0167,4.0158,4.0251,3.9477,3.8962,3.8962,3.7403,3.6446,3.6446,3.5632,3.5146,3.513,3.513,3.5485,3.6271,3.629,3.629,3.629,3.7009,3.6552,3.5047,3.6574,3.6862,4.7632,4.8731,4.8921,4.8307,4.5568,4.2589,4.1029,3.8377,3.6163,3.587,3.5793,3.5793,3.5793,3.5708,3.6308,3.8429,3.7636,3.812,4.198,4.1364,4.1978,4.586,4.6276,0.0,0.0,0.0,0.0,0.0,0.0,0.0,0.0,4.9509,4.9509,4.9509,4.9509,4.934,4.8983,4.7988,4.7143,4.6467,4.5472,4.4801,4.4501,4.4501,4.4501,4.4501,0.0,0.0,0.0,4.4501,4.4501,4.4501,4.4501,4.4501,4.4501,4.4501,4.4501,4.4501,4.4501,4.4501,4.4501,4.4501,4.4388,4.4266,4.4266,4.4357,4.4505,4.4848,4.5074,4.5201,4.5201,4.5201,4.5201,4.5201,4.5254,4.5314,4.5314,4.5284,4.5264,4.5264,4.5195,4.4991,4.459,4.3683,4.2768,4.2091,4.1128,4.0316,3.9889,3.9819,3.9772,3.9717,3.9706,3.9671,3.9671,3.8555,3.7841,3.7841,3.6984,3.6426,3.631,3.631,3.642,3.6702,3.6691,3.6691,3.6691,3.7012,3.6831,3.6169,3.6828,3.6938,4.5169,4.6802,4.7728,4.7328,4.452,4.1579,4.0474,3.7887,3.5708,3.5766,3.5794,3.577,3.5713,3.5593,3.6058,3.7778,3.6765,3.7078,4.0795,4.0092,4.0714,4.4848,0.0,4.6336,0.0,0.0,0.0,0.0,0.0,0.0,0.0,4.9509,4.9509,4.9509,4.9509,4.9377,4.9114,4.7932,4.7105,4.6599,4.5435,4.4726,4.4501,4.4501,4.4501,0.0,0.0,0.0,0.0,4.4501,4.4501,4.4501,4.4501,4.4501,4.4501,4.4501,4.4501,4.4501,4.4501,4.4501,4.4501,4.4501,4.4501,4.4501,4.4487,4.4581,4.4714,4.4714,4.4819,4.4969,4.4969,4.4985,4.5007,4.4957,4.4973,4.503,4.503,4.4996,4.4943,4.4943,4.4889,4.4792,4.4738,4.3741,4.2782,4.2302,4.12,4.0216,3.963,3.9507,3.9452,3.9399,3.9747,3.995,3.995,3.9119,3.8595,3.8595,3.7747,3.7187,3.7051,3.7032,3.7101,3.7262,3.725,3.725,3.725,3.7505,3.7362,3.687,3.7355,3.7567,4.1214,4.426,4.7098,4.5754,4.3445,4.1168,3.9898,3.7573,3.5698,3.5704,3.5747,3.5747,3.555,3.5506,3.5978,3.7458,3.7518,3.8247,4.0745,4.0902,4.1717,0.0,0.0,4.5491,0.0,0.0,0.0,0.0,0.0,0.0,0.0,4.9509,4.9509,4.9509,4.9509,4.9096,4.8213,4.8194,4.735,4.5716,4.5697,4.5266,4.4501,4.4501,0.0,0.0,0.0,0.0,0.0,4.4501,4.4501,4.4501,4.4501,4.4501,4.4501,4.4501,4.4501,4.4501,4.4501,4.4501,4.4501,4.4501,4.4501,4.4487,4.4411,4.444,4.4496,4.4496,4.4473,4.4411,4.4411,4.4508,4.4557,4.4354,4.4453,4.4604,4.4604,4.4604,4.4604,4.4604,4.4585,4.4544,4.434,4.4296,4.3721,4.2062,4.174,4.1115,3.961,3.9301,3.9256,3.9391,3.9386,3.9418,3.9418,3.862,3.8121,3.8121,3.7356,3.6907,3.6907,3.6907,3.7268,3.8071,3.809,3.809,3.809,3.8943,3.8488,3.6845,3.8415,3.9151,3.8679,3.9612,3.992,4.0641,3.8918,3.7122,3.7368,3.597,3.4806,3.5542,3.5607,3.5506,3.5438,3.5249,3.5638,3.7347,3.7393,3.7912,0.0,0.0,0.0,4.42,4.6509,4.8232,0.0,0.0,0.0,0.0,0.0,0.0,0.0,4.9171,4.9227,4.8626,4.8607,4.8213,4.7387,4.6786,4.6223,4.5697,4.5153,4.4745,4.4501,4.4501,0.0,0.0,0.0,0.0,0.0,4.4501,4.4501,4.4501,4.4501,4.4501,4.4501,4.4501,4.4501,4.4501,4.4501,4.4116,4.3699,4.4257,4.3989,4.3572,4.4157,4.4387,4.4411,4.4373,4.4358,4.4329,4.4329,4.4368,4.4378,4.4314,4.4354,4.4393,4.4393,4.435,4.434,4.434,4.4244,4.4166,4.4097,4.3651,4.3077,4.2556,4.2002,4.1463,4.0975,4.0867,4.0649,4.0137,4.0077,3.9913,3.9429,3.9059,3.8851,3.8851,3.8582,3.8407,3.8407,3.8407,3.8518,3.8779,3.8779,3.8779,3.8779,3.9058,3.8909,3.8366,3.8887,3.9129,3.5235,3.6371,3.6742,3.7542,3.6587,3.5521,3.5935,3.5283,3.4783,3.5454,3.5495,3.5354,3.5227,3.5037,3.5362,3.673,3.7036,3.7619,0.0,0.0,0.0,4.42,0.0,0.0,0.0,0.0,0.0,0.0,0.0,0.0,0.0,0.0,4.8964,4.7781,4.8044,4.765,4.6523,4.596,4.5547,4.5247,4.4726,4.4501,4.4501,0.0,0.0,0.0,0.0,0.0,0.0,4.4501,4.4501,4.4501,4.4501,4.4501,4.4501,4.4473,4.4454,4.4473,4.443,4.4064,4.3629,4.383,4.3249,4.2669,4.3527,4.4053,4.434,4.4314,4.427,4.4255,4.4255,4.4226,4.4192,4.4192,4.4192,4.4192,4.4192,4.4147,4.4119,4.4119,4.4055,4.4005,4.4005,4.3578,4.315,4.2853,4.237,4.1832,4.1219,4.1404,4.1293,4.049,4.0416,4.0221,3.9815,3.9402,3.917,3.917,3.9129,3.9101,3.9101,3.9101,3.9101,3.9101,3.9101,3.9101,3.9101,3.9101,3.9101,3.9101,3.9073,3.9059,0.0,3.4151,3.6359,3.5873,3.5789,3.5695,3.5276,3.5282,0.0,3.5378,3.536,3.5302,3.502,3.4936,3.5135,3.5942,3.6648,3.7411,0.0,3.9934,0.0,0.0,4.6749,0.0,0.0,0.0,0.0,0.0,0.0,0.0,0.0,0.0,4.8536,4.6865,4.7597,4.7241,4.5622,4.5622,4.5233,4.4487,4.4487,4.4487,4.4501,0.0,0.0,0.0,0.0,0.0,0.0,4.4501,4.4501,4.4501,4.4487,4.4487,4.4487,4.443,4.4383,4.4383,4.4329,4.4262,4.4061,4.3183,4.2342,4.1818,4.2582,4.3423,4.4136,4.4248,4.4188,4.4109,4.4165,4.4085,4.4005,4.4005,4.4005,4.4005,4.4005,4.4005,4.3989,4.3989,4.3989,4.3989,4.3989,4.3989,4.3729,4.2987,4.2875,4.2337,4.0833,4.1297,4.1427,4.0554,4.0461,4.0405,4.0294,3.9565,3.9101,3.9101,3.9101,3.9101,3.9101,3.9101,3.9101,3.9101,3.9101,3.9087,3.9041,3.9059,3.9027,3.8998,3.8946,3.8921,0.0,0.0,3.0575,3.1156,3.2185,3.3043,0.0,3.4111,3.5051,3.5146,3.5092,3.518,3.5723,3.5196,3.5335,3.7411,3.738,3.7617,3.9101,0.0,0.0,4.4426,0.0,0.0,0.0,0.0,0.0,0.0,0.0,0.0,0.0,0.0,4.6603,4.4994,4.5709,4.5664,4.4725,4.4707,4.457,4.4344,4.4344,4.4373,4.4411,4.4411,0.0,0.0,0.0,0.0,4.4501,4.444,4.4411,4.4411,4.4373,4.4344,4.4344,4.4329,4.4329,4.4314,4.43,4.3826,4.3096,4.2217,4.1783,4.1657,4.1842,4.2062,4.2486,4.3713,4.3624,4.3274,4.3887,4.402,4.4005,4.4005,4.4005,4.4005,4.4005,4.3958,4.3929,4.3929,4.3929,4.3897,4.3851,4.3899,4.3841,4.3592,4.3557,4.3428,4.304,4.3185,4.2723,4.1243,4.1095,4.0596,3.9357,3.9161,3.9101,3.9101,3.9101,3.9101,3.9101,3.9101,3.9101,3.9101,3.9064,3.8869,3.8557,3.8514,3.8321,3.8025,3.8009,3.8009,0.0,2.9363,2.9128,2.9634,3.0659,3.1694,3.2266,3.3382,3.4433,3.4912,3.4944,3.4993,3.5337,3.4969,3.5165,3.693,3.7455,0.0,0.0,0.0,4.3755,4.4871,0.0,0.0,0.0,0.0,0.0,0.0,0.0,0.0,0.0,0.0,4.6131,4.4898,4.5256,4.5137,4.4358,4.434,4.4344,4.43,4.43,4.4314,4.434,4.434,0.0,0.0,0.0,0.0,4.4401,4.4373,4.434,4.4358,4.4314,4.43,4.43,4.4274,4.424,4.4259,4.4177,4.3349,4.2225,4.1709,4.1271,4.1104,4.1801,4.1748,4.1727,4.3079,4.338,4.3404,4.3831,4.3929,4.3897,4.3897,4.3897,4.3897,4.3897,4.3883,4.3851,4.3851,4.3851,4.3835,4.3804,4.3837,4.3835,4.3804,4.3634,4.3349,4.2982,4.3101,4.2685,4.1407,4.095,4.0402,3.9528,3.8839,3.8542,3.873,3.873,3.8651,3.848,3.8462,3.863,3.8999,3.8969,3.9004,3.9131,3.9097,3.8976,3.8744,3.8725,3.8528,2.9701,2.9795,2.987,2.987,3.049,3.1299,3.2164,3.308,3.3923,3.4538,3.4765,3.4849,3.4814,3.4789,3.5108,3.6104,0.0,0.0,4.2029,4.2466,4.3245,0.0,0.0,0.0,0.0,0.0,0.0,0.0,0.0,0.0,0.0,0.0,0.0,4.5301,4.5282,4.4946,4.4255,4.427,4.427,4.4237,4.4237,4.427,4.4285,4.4285,0.0,0.0,0.0,0.0,4.3945,4.4173,4.421,4.4084,4.4214,4.4237,4.4255,4.4199,4.4169,4.4135,4.4039,4.3005,4.1765,4.1674,4.107,4.0611,4.192,4.1942,4.1659,4.2517,4.3206,4.3717,4.3862,4.3835,4.3804,4.3804,4.3804,4.3804,4.3804,4.3788,4.3771,4.3771,4.3771,4.3771,4.3771,4.3703,4.3669,4.3669,4.3267,4.2723,4.2032,4.2243,4.2119,4.1256,4.0611,4.0199,4.0054,3.8798,3.8131,3.8425,3.8289,3.8115,3.7881,3.8007,3.8366,3.9049,3.9067,3.9335,3.9886,3.9885,3.9847,3.9771,3.9727,3.937,2.9701,3.0208,3.0724,3.0724,3.1316,3.1964,3.2117,3.3339,3.4279,3.3734,3.4166,3.4851,3.557,3.5709,3.6197,3.7699,0.0,4.1199,0.0,0.0,0.0,0.0,0.0,0.0,0.0,0.0,0.0,0.0,0.0,0.0,0.0,0.0,0.0,4.4222,4.4222,4.4166,4.4051,4.4165,4.4165,4.4051,4.4051,4.4101,4.4214,4.4214,4.3834,0.0,0.0,0.0,4.2282,4.3647,4.3785,4.3174,4.3788,4.4051,4.4036,4.4036,4.402,4.4005,4.3945,4.3301,4.2508,4.2395,4.181,4.1182,4.1406,4.1868,4.2348,4.2509,4.2638,4.2881,4.3617,4.3804,4.3804,4.3804,4.3804,4.3804,4.3804,4.3719,4.3634,4.3634,4.3634,4.3599,4.3566,4.3321,4.3105,4.305,4.2635,4.2286,4.2161,4.2208,4.1935,4.1112,4.0935,4.0594,3.9914,3.9609,3.935,3.9073,3.8258,3.8077,3.869,3.9318,3.9695,3.982,3.978,3.9622,3.9408,3.9344,3.9154,3.8808,3.8803,3.8751,2.9701,3.0283,3.1006,3.1438,3.1823,3.2095,3.2112,3.306,3.3953,3.3995,3.4317,3.4835,3.5646,3.6178,3.7309,3.9782,0.0,4.2557,0.0,0.0,0.0,0.0,0.0,0.0,0.0,0.0,0.0,0.0,0.0,0.0,0.0,0.0,0.0,0.0,4.4005,4.4005,4.4005,4.407,4.407,4.4005,4.4005,4.402,4.4085,4.3639,4.3468,0.0,0.0,4.2656,4.2358,4.2668,4.2821,4.2876,4.3221,4.3615,4.4005,4.3958,4.3929,4.3825,4.3315,4.291,4.258,4.2484,4.2193,4.1972,4.2382,4.2752,4.3046,4.3046,4.308,4.3205,4.3592,4.3669,4.3652,4.3652,4.3652,4.3652,4.3652,4.341,4.3214,4.3214,4.3032,4.2828,4.2808,4.2675,4.2559,4.2518,4.2115,4.1821,4.1821,4.1644,4.1367,4.0994,4.0556,4.0153,3.9781,3.9378,3.9172,3.9193,3.8573,3.835,3.8737,3.9051,3.9437,3.9821,3.9814,3.9913,4.0152,4.0125,4.0007,3.9842,3.9842,3.9618,2.9701,3.0415,3.1269,3.171,3.2105,3.2497,3.2858,3.3628,3.4464,3.5218,3.5398,3.554,3.596,3.6705,0.0,4.1081,4.2539,0.0,0.0,0.0,0.0,0.0,0.0,0.0,0.0,0.0,0.0,0.0,0.0,0.0,0.0,0.0,0.0,0.0,4.3728,4.3668,4.3582,4.35,4.3548,4.3726,4.3726,4.3615,4.3429,4.3002,4.2927,4.3113,4.224,4.1857,4.1801,4.156,4.1662,4.1973,4.2458,4.3106,4.3777,4.3629,4.3546,4.3404,4.271,4.2454,4.2437,4.2371,4.2336,4.2464,4.3013,4.3214,4.3214,4.3214,4.3232,4.332,4.3531,4.3462,4.3357,4.3357,4.3268,4.3214,4.3214,4.2939,4.2749,4.2749,4.2438,4.2198,4.2198,4.2095,4.2011,4.2032,4.1604,4.1311,4.1373,4.1088,4.0912,4.0912,4.0359,3.9974,3.9974,3.9457,3.9269,3.9582,3.9123,3.8853,3.8853,3.9048,3.9388,3.9957,3.9974,4.0267,4.0912,4.0912,4.0912,4.0912,4.0912,4.056,2.9701,3.0828,3.1842,3.1156,3.2151,3.3679,3.512,3.6131,3.6974,3.7766,3.7898,3.7673,3.7094,3.7621,3.8702,4.048,4.2613,0.0,0.0,0.0,0.0,0.0,0.0,0.0,0.0,0.0,0.0,0.0,0.0,0.0,0.0,0.0,0.0,0.0,0.0,4.2723,4.2321,4.2011,4.222,4.289,4.289,4.25,4.1794,4.2482,4.2017,4.075,4.211,4.1255,3.9026,4.0441,4.0379,3.9549,4.1421,4.2569,4.3123,4.2735,4.26,4.2581,4.2374,4.2316,4.2297,4.223,4.221,4.2228,4.2282,4.23,4.23,4.23,4.23,4.248,4.3303,4.3232,4.2939,4.2939,4.2596,4.23,4.23,4.2259,4.2239,4.2239,4.2218,4.2198,4.2198,4.1739,4.141,4.1539,4.1094,4.0799,4.0918,4.0935,4.0912,4.0912,4.086,4.0825,4.0825,4.0774,4.0739,4.0786,4.0049,3.9612,3.9612,4.0359,4.0774,4.0825,4.0825,4.0843,4.0912,4.0912,4.0912,4.0912,4.0912,4.0806,2.9701,3.0865,3.1914,3.109,3.212,3.3727,3.5287,3.5934,3.6426,3.7243,3.8159,3.8775,3.8508,0.0,4.0565,4.1218,0.0,0.0,0.0,0.0,0.0,0.0,0.0,0.0,0.0,0.0,0.0,0.0,0.0,0.0,0.0,0.0,0.0,0.0,0.0,4.2032,4.1903,4.1269,4.0796,4.0525,4.1088,4.1311,4.1209,4.0818,4.0555,4.0445,3.9959,3.9422,3.8907,3.8929,3.8972,3.9211,4.0945,4.1722,4.1953,4.2246,4.2344,4.232,4.2262,4.2241,4.2221,4.2198,4.2198,4.2177,4.2098,4.2077,4.2059,4.1976,4.1955,4.2059,4.2559,4.2519,4.2342,4.2342,4.2142,4.1955,4.1955,4.1721,4.1503,4.1503,4.1298,4.1151,4.1151,4.0943,4.0819,4.0866,4.071,4.0583,4.0655,4.0655,4.0655,4.0655,4.0655,4.0655,4.0655,4.0655,4.0655,4.0655,4.0524,4.0416,4.0322,4.0614,4.0745,4.0655,4.0655,4.0468,4.0087,4.0087,3.9902,3.9534,3.9534,3.9508,2.9683,3.0854,3.1902,3.105,3.2266,3.4162,3.5956,3.641,3.6976,3.8824,3.9272,3.9402,3.9637,0.0,0.0,0.0,0.0,0.0,0.0,0.0,0.0,0.0,0.0,0.0,0.0,0.0,0.0,0.0,0.0,0.0,0.0,0.0,0.0,0.0,0.0,0.0,4.0762,4.0056,3.9391,3.8723,3.9121,3.9517,3.9946,3.9438,3.9353,3.9552,3.8651,3.8347,3.8456,3.7811,3.8168,3.9205,4.0103,4.0653,4.1029,4.1629,4.1665,4.1442,4.1707,4.1619,4.1407,4.1403,4.1205,4.0972,4.0866,4.1002,4.1174,4.1086,4.1218,4.1437,4.1626,4.1678,4.1725,4.1725,4.1547,4.1393,4.1393,4.1139,4.0902,4.0902,4.0676,4.051,4.051,4.0461,4.0461,4.0493,4.0461,4.0461,4.0493,4.051,4.051,4.051,4.051,4.051,4.051,4.0345,4.0229,4.0229,4.0212,4.0336,4.0607,4.0444,4.032,4.0229,4.0037,3.9723,3.9315,3.9315,3.9113,3.8718,3.8718,3.8663,2.9598,3.0824,3.1863,3.0941,3.2606,3.5112,3.7466,3.8044,3.9227,4.3323,4.1628,3.964,4.0365,3.9811,0.0,0.0,0.0,0.0,0.0,0.0,0.0,0.0,0.0,0.0,0.0,0.0,0.0,0.0,0.0,0.0,0.0,0.0,0.0,0.0,0.0,0.0,3.8699,3.8212,3.7946,3.7894,3.7089,3.7052,3.7719,3.86,3.851,3.7755,3.8618,3.8294,3.7173,3.7189,3.8051,3.9326,3.8786,3.9316,4.0398,4.0747,4.0353,3.9802,4.0601,4.0336,3.9675,3.96,3.9038,3.8397,3.8311,3.8818,3.9399,3.9416,3.9946,4.051,4.051,4.0778,4.1076,4.1099,4.0778,4.051,4.051,4.0493,4.0485,4.0485,4.0468,4.0468,4.0468,4.0362,4.033,4.0461,4.0362,4.0337,4.0461,4.0468,4.0468,4.0468,4.0468,4.0468,4.0468,3.9935,3.9584,3.9584,3.9032,3.9246,4.0419,3.991,3.9584,3.9584,3.9005,3.869,3.869,3.869,3.8674,3.869,3.869,3.8624,2.9664,3.0375,3.1194,3.1522,3.2563,3.4447,3.8029,3.7521,3.7279,4.0812,4.0817,4.0398,4.1189,4.1556,0.0,0.0,0.0,0.0,0.0,0.0,0.0,0.0,0.0,0.0,0.0,0.0,0.0,0.0,0.0,0.0,0.0,0.0,0.0,0.0,0.0,0.0,3.8209,3.7478,3.7036,3.6898,3.667,3.6853,3.734,3.7358,3.7242,3.7011,3.7163,3.7046,3.6713,3.6615,3.6814,3.7262,3.7681,3.8049,3.8452,3.9059,3.9066,3.8826,3.9049,3.8952,3.8705,3.8699,3.8522,3.8311,3.8195,3.8676,3.9248,3.9151,3.9636,4.0221,4.0221,3.9986,3.9885,4.041,4.037,4.0221,4.0221,3.9876,3.9575,3.9575,3.9252,3.8941,3.8941,3.893,3.8903,3.8941,3.893,3.8903,3.8941,3.8941,3.8941,3.8941,3.8941,3.8941,3.8941,3.8778,3.8695,3.8695,3.853,3.864,3.9076,3.8914,3.8778,3.8695,3.8502,3.8222,3.7796,3.7796,3.7592,3.7147,3.7147,3.7133,2.9598,3.0372,3.1291,3.1795,3.3496,3.5777,3.8542,3.9012,3.9426,4.1419,4.1355,4.1229,4.2208,4.222,0.0,0.0,0.0,0.0,0.0,0.0,0.0,0.0,0.0,0.0,0.0,0.0,0.0,0.0,0.0,0.0,0.0,0.0,0.0,0.0,0.0,0.0,3.7466,3.6911,3.6582,3.6502,3.6149,3.6119,3.64,3.649,3.6388,3.611,3.6011,3.5973,3.6008,3.6201,3.649,3.6818,3.7323,3.7452,3.7516,3.8257,3.8253,3.7917,3.8265,3.8111,3.782,3.7792,3.7564,3.7285,3.7154,3.7499,3.7965,3.8136,3.8589,3.9061,3.9335,3.9135,3.9028,3.9696,3.9627,3.9375,3.9375,3.9109,3.8821,3.8821,3.8546,3.8306,3.8306,3.8306,3.8306,3.8306,3.8306,3.8306,3.8306,3.8306,3.8306,3.8306,3.8306,3.8306,3.8306,3.8096,3.7924,3.7924,3.7738,3.7621,3.7693,3.7924,3.801,3.7953,3.7709,3.7401,3.7043,3.7043,3.6877,3.6492,3.6492,3.6492,2.9526,3.0634,3.1853,3.2095,3.5213,3.8401,3.9059,4.1557,4.3714,4.3689,0.0,4.2103,4.32,0.0,0.0,0.0,0.0,0.0,0.0,0.0,0.0,0.0,0.0,0.0,0.0,0.0,0.0,0.0,0.0,0.0,0.0,0.0,0.0,0.0,0.0,0.0,3.6473,3.6353,3.6274,0.0,3.5483,3.5094,3.5111,3.5783,3.5732,3.5094,3.5094,3.5094,3.5145,3.5818,3.6525,3.7202,3.7249,3.7201,3.7183,3.7899,3.7632,3.7013,3.7752,3.7484,3.682,3.6763,3.622,3.5622,3.5492,3.5689,3.6084,3.6736,3.7091,3.7442,3.8128,3.825,3.8351,3.892,3.8657,3.8306,3.8306,3.8266,3.8238,3.8238,3.8165,3.8153,3.8153,3.8153,3.8153,3.8153,3.8153,3.8153,3.8153,3.8153,3.8153,3.8153,3.8153,3.8153,3.8153,3.7621,3.7328,3.7328,3.68,3.6492,3.6492,3.7043,3.7328,3.7328,3.6785,3.6492,3.6492,3.6492,3.6492,3.6492,3.6492,3.646,3.0326,3.0713,3.1562,3.4139,3.7339,3.9928,4.0081,4.091,4.1559,4.123,4.2155,4.3087,4.3349,0.0,0.0,0.0,0.0,0.0,0.0,0.0,0.0,0.0,0.0,0.0,0.0,0.0,0.0,0.0,0.0,0.0,0.0,0.0,0.0,0.0,0.0,3.474,3.474,3.4659,3.4616,0.0,3.4424,3.4355,3.4355,3.449,3.4493,3.4355,3.4355,3.4355,3.4355,3.451,3.4683,3.4869,3.5356,3.5517,3.5582,3.6251,3.6067,3.5475,3.5643,3.5245,3.4644,3.4636,3.4538,3.4382,3.4358,3.4831,3.5515,3.6179,3.6826,3.7442,3.8128,3.7953,3.7637,3.7754,3.8039,3.8306,3.8306,3.794,3.7608,3.7608,3.7193,3.6892,3.6892,3.6892,3.6892,3.6892,3.6892,3.6892,3.6892,3.6892,3.6892,3.6892,3.6892,3.6892,3.6892,3.6769,3.6693,3.6693,3.6585,3.6492,3.6492,3.6631,3.6693,3.6693,3.6585,3.6492,3.6492,3.6492,3.6492,3.6492,3.6492,3.6179,2.9455,2.9805,3.1046,3.5107,3.7976,3.9946,4.054,4.0848,4.0887,4.0517,4.1599,4.265,0.0,0.0,0.0,0.0,0.0,0.0,0.0,0.0,0.0,0.0,0.0,0.0,0.0,0.0,0.0,0.0,0.0,0.0,0.0,0.0,0.0,0.0,3.4194,3.4157,3.4157,3.4116,3.4113,3.4113,3.3716,3.3335,3.3007,3.3352,3.3524,3.3524,3.3524,3.3524,3.3559,3.3882,3.3999,3.4031,3.4326,3.444,3.4527,3.4868,3.4798,3.4529,3.4529,3.4309,3.4011,3.4011,3.4011,3.4011,3.4011,3.4117,3.437,3.5049,3.5577,3.6096,3.6809,3.6882,3.6846,3.6846,3.7133,3.7445,3.7445,3.7208,3.6983,3.6983,3.6723,3.6492,3.6492,3.6492,3.6492,3.6492,3.6492,3.6492,3.6492,3.6492,3.6492,3.6492,3.6492,3.6492,3.6492,3.6492,3.663,3.6953,3.6598,3.6348,3.6302,3.595,3.599,3.6492,3.6492,3.6492,3.6492,3.6148,3.5911,3.5832,3.5464,3.5044,2.8416,2.9204,3.0995,3.5045,3.7347,3.8845,3.9755,3.9981,4.0001,3.9984,4.0727,0.0,0.0,0.0,0.0,0.0,0.0,0.0,0.0,0.0,0.0,0.0,0.0,0.0,0.0,0.0,0.0,0.0,0.0,0.0,0.0,0.0,3.3145,3.3699,3.3699,3.3699,3.3699,3.3699,3.3699,3.368,3.3024,3.2386,3.1817,3.2309,3.262,3.2714,3.2714,3.2695,3.2727,3.3287,3.3465,3.3382,3.355,3.3612,3.362,3.3846,3.3907,3.3843,3.3843,3.3793,3.3716,3.3716,3.3716,3.3716,3.3716,3.3407,3.3239,3.403,3.4356,3.4615,3.5415,3.5798,3.6006,3.6148,3.6085,3.6116,3.6383,3.6429,3.6429,3.6445,3.6429,3.6429,3.6429,3.6429,3.6429,3.6429,3.6429,3.6429,3.6429,3.6429,3.6429,3.6429,3.6429,3.6429,3.6429,3.6506,3.6813,3.7381,3.6696,3.6245,3.6204,3.5446,3.5414,3.6324,3.6128,3.6006,3.6006,3.54,3.5011,3.4832,3.4216,3.3788,2.9255,3.0841,3.2685,3.3324,3.5053,3.6448,3.5928,3.5898,3.6341,0.0,0.0,0.0,0.0,0.0,0.0,0.0,0.0,0.0,0.0,0.0,0.0,0.0,0.0,0.0,0.0,0.0,0.0,0.0,0.0,0.0,0.0,3.261,3.2662,3.211,3.211,3.211,3.211,3.211,3.211,3.211,3.199,3.1903,3.1781,3.1363,3.1436,3.1955,3.1955,3.1882,3.1771,3.1855,3.164,3.1325,3.2469,3.269,3.2455,3.3567,3.3712,3.3329,3.3329,3.3002,3.2629,3.2629,3.2629,3.2629,3.2629,3.2574,3.2798,3.4096,3.4354,3.4529,3.5783,3.5612,3.5252,3.5863,3.5026,3.4451,3.5928,3.6163,3.61,3.6211,3.6163,3.6068,3.6068,3.6068,3.6068,3.6068,3.6068,3.6068,3.6068,3.6068,3.6068,3.6068,3.6068,3.6068,3.6068,3.6599,3.6979,3.7071,3.6798,3.662,3.6625,3.5833,3.5504,3.5647,3.4623,3.4081,3.4081,3.3979,3.391,3.3876,3.3774,3.3408,2.8024,2.9779,3.1756,3.2221,3.3253,3.416,3.4057,3.4323,3.4705,3.5173,0.0,0.0,0.0,0.0,0.0,0.0,0.0,0.0,0.0,0.0,0.0,0.0,0.0,0.0,0.0,0.0,0.0,0.0,0.0,0.0,3.1834,3.211,3.2145,3.18,3.18,0.0,3.18,3.18,3.18,3.18,3.1727,3.1543,3.1281,3.0971,3.101,3.1281,3.0971,3.0811,3.0734,3.0673,3.051,3.0396,3.1314,3.1628,3.1646,3.2579,3.2856,3.2734,3.2734,3.2586,3.2398,3.2398,3.2398,3.2398,3.2398,3.2659,3.3062,3.3635,3.3954,3.4237,3.4745,3.4482,3.4192,3.4528,3.4007,3.365,3.4514,3.4714,3.4747,3.4798,3.4732,3.4714,3.4714,3.4714,3.4714,3.4714,3.4714,3.4714,3.4714,3.4714,3.4846,3.5179,3.5223,3.537,3.5683,3.5976,3.6298,3.6699,3.6165,3.5833,3.5792,3.4975,3.4358,3.3955,3.4433,3.4704,3.4704,3.4275,3.4022,3.3899,3.3509,3.3091,2.7436,2.8668,3.0053,3.0869,3.1587,3.2115,3.2249,0.0,3.3042,0.0,0.0,0.0,0.0,0.0,0.0,0.0,0.0,0.0,0.0,0.0,0.0,0.0,0.0,0.0,0.0,0.0,0.0,0.0,0.0,0.0,3.18,3.18,3.18,3.18,3.18,3.18,3.18,3.18,3.18,3.18,3.1543,3.1242,3.0878,3.0551,3.0427,3.0456,3.0201,3.0074,3.0031,2.9946,2.993,3.0018,3.0624,3.099,3.1256,3.1945,3.226,3.2398,3.2398,3.237,3.2315,3.2145,3.2061,3.2035,3.2017,3.2338,3.2792,3.3021,3.3355,3.3692,3.3707,3.343,3.3178,3.3367,3.3017,3.2769,3.3332,3.3561,3.3636,3.3567,3.3567,3.3567,3.3567,3.3567,3.3567,3.3567,3.3567,3.3567,3.3567,3.3709,3.3979,3.4413,3.4597,3.486,3.5305,3.5489,3.5824,3.6329,3.5686,3.5312,3.5264,3.4414,3.3701,3.3117,3.4519,3.5077,3.4808,3.4221,3.3878,3.3711,3.317,3.2843,2.8849,2.8572,2.8066,2.8922,2.9883,3.0424,2.9669,0.0,0.0,0.0,0.0,0.0,0.0,0.0,0.0,0.0,0.0,0.0,0.0,0.0,0.0,0.0,0.0,0.0,0.0,0.0,0.0,0.0,0.0,0.0,3.18,3.18,3.18,3.18,3.18,3.18,3.18,3.18,3.18,3.18,3.1206,3.0917,3.0858,2.9772,2.9293,2.9316,2.9859,3.0031,2.9903,2.9903,2.9971,3.0157,3.0812,3.1195,3.1466,3.2144,3.2394,3.2398,3.2398,3.2315,3.2092,3.1463,3.1159,3.1043,3.0917,3.09,3.1186,3.2401,3.2668,3.2713,3.3342,3.2834,3.2362,3.3038,3.2137,3.1519,3.2911,3.3367,3.3457,3.3248,3.3213,3.3213,3.3213,3.3213,3.3213,3.3213,3.3213,3.3213,3.3213,3.3733,3.4098,3.4126,3.4573,3.4901,3.4943,3.5498,3.5887,3.5929,3.5762,3.5668,3.5655,3.4843,3.4347,3.4306,3.443,3.3933,3.2843,3.2804,3.2765,3.2765,3.2725,3.2685,2.8542,2.8676,2.8812,2.8963,2.9113,2.9103,2.8625,2.8945,2.9544,0.0,0.0,0.0,0.0,0.0,0.0,0.0,0.0,0.0,0.0,0.0,0.0,0.0,0.0,0.0,0.0,0.0,0.0,0.0,0.0,0.0,3.111,3.1266,3.1263,3.111,3.1247,3.1353,3.1353,3.1261,3.1106,3.0845,3.0431,3.01,2.9794,2.9339,2.8974,2.87,2.8904,2.8997,2.8951,2.8951,2.9233,2.9732,3.039,3.0954,3.1486,3.2136,3.2398,3.2342,3.1807,3.1593,3.1435,3.0689,3.0621,3.0859,3.0825,3.1372,3.208,3.2463,3.2512,3.2443,3.2558,3.1992,3.1468,3.1726,3.1371,3.1123,3.169,3.1823,3.1859,3.1786,3.18,3.18,3.18,3.18,3.18,3.18,3.18,3.1921,3.2273,3.2501,3.293,3.3695,3.3963,3.4205,3.4553,3.4821,3.4942,3.4942,3.4872,3.4868,3.4868,3.4551,3.4397,3.4397,3.4397,3.4201,3.3783,3.3783,3.3783,3.3783,3.3783,3.3483,2.8616,2.8614,2.8721,2.8819,2.8522,2.8179,2.8006,0.0,0.0,0.0,0.0,0.0,0.0,0.0,0.0,0.0,0.0,0.0,0.0,0.0,0.0,0.0,0.0,0.0,0.0,0.0,0.0,0.0,0.0,0.0,3.0498,3.063,3.0688,3.0619,3.0811,3.0905,3.0905,3.0771,3.0567,3.0293,2.9854,2.9502,2.918,2.8974,2.87,2.8411,2.8642,2.8611,2.8427,2.8642,2.9135,2.9787,3.0489,3.1018,3.1494,3.1936,3.1921,3.1578,3.1057,3.0808,3.0615,2.9844,2.9926,3.0317,3.0299,3.1023,3.1848,3.1964,3.1968,3.1919,3.1773,3.1371,3.0986,3.0986,3.0986,3.0898,3.0621,3.0785,3.0986,3.0986,3.0986,3.0986,3.0986,3.0986,3.1052,3.1248,3.1274,3.1483,3.2019,3.2267,3.2725,3.3509,3.3757,3.4005,3.4371,3.4397,3.4397,3.4397,3.4397,3.4397,3.4397,3.4092,3.3911,3.3911,3.3602,3.3475,3.3475,3.3784,3.3911,3.3911,3.3602,3.2938,0.0,0.0,0.0,0.0,0.0,0.0,2.7701,0.0,0.0,0.0,0.0,0.0,0.0,0.0,0.0,0.0,0.0,0.0,0.0,0.0,0.0,0.0,0.0,0.0,0.0,0.0,0.0,0.0,0.0,3.0448,2.9968,2.9966,3.013,3.0481,3.0497,3.0497,3.0477,3.0335,3.0251,3.023,2.9518,2.9173,2.915,2.8629,2.8411,2.8442,2.9104,2.9027,2.8488,2.9166,2.9817,3.0468,3.1109,3.1399,3.148,3.1451,3.094,3.0211,3.0151,2.9983,2.9673,2.8994,2.9065,2.9376,2.9329,2.9706,3.0244,3.083,3.0986,3.0986,3.0986,3.0949,3.0949,3.0936,3.0898,3.071,2.9819,3.0343,3.0898,3.0898,3.0898,3.0898,3.0898,3.0924,3.112,3.1629,3.1733,3.1954,3.2554,3.3141,3.3546,3.3573,3.4042,3.4356,3.4397,3.4397,3.4397,3.4382,3.4356,3.4369,3.4366,3.3458,3.2963,3.2963,3.2084,3.1589,3.1621,3.2494,3.2938,3.2938,3.2016,3.1057,2.9204,0.0,0.0,0.0,0.0,0.0,0.0,0.0,0.0,0.0,0.0,0.0,0.0,0.0,0.0,0.0,0.0,0.0,0.0,0.0,0.0,0.0,0.0,0.0,0.0,0.0,0.0,0.0,2.9481,2.9264,2.8815,2.9223,2.9637,2.9978,3.0246,3.0187,2.9859,2.9623,2.9355,2.9082,2.8771,2.8605,2.8621,2.8468,2.8411,2.8411,2.8611,2.8858,2.9196,2.9848,3.0258,3.0473,3.0681,3.0739,3.0763,3.06,3.0406,3.009,2.9411,2.9125,2.9017,2.8619,2.8873,2.9412,2.9755,3.0294,3.079,3.0934,3.0986,3.0861,3.0228,3.0063,2.9909,2.9264,2.9108,2.9057,2.8821,2.8939,2.9108,2.9108,2.9108,2.9108,2.9108,2.9453,2.9733,2.988,3.0225,3.0613,3.1196,3.1404,3.1948,3.3039,3.3301,3.3645,3.4356,3.4397,3.4273,3.3918,3.3563,3.3388,3.3388,3.2808,3.2512,3.2512,3.2244,3.1917,3.1621,3.184,3.1972,3.1972,3.1,3.0441,0.0,0.0,0.0,0.0,0.0,0.0,2.7701,2.7615,0.0,0.0,0.0,0.0,0.0,0.0,0.0,0.0,0.0,0.0,0.0,0.0,0.0,0.0,0.0,0.0,0.0,0.0,0.0,0.0,2.8343,2.8167,2.802,2.8779,2.9291,2.9422,2.9601,2.9572,2.9282,2.9044,2.8826,2.8597,2.8468,2.8411,2.8411,2.8411,2.855,2.8818,2.8814,2.9199,2.9883,3.0265,3.0458,3.0494,3.0407,3.0235,2.9964,2.9768,2.949,2.9156,2.8864,2.8696,2.8658,2.8728,2.9157,2.9693,2.9996,3.0256,3.047,3.047,3.019,2.9781,2.9303,2.9147,2.903,2.8505,2.8386,2.8307,2.7959,2.7879,2.7999,2.8347,2.8579,2.8735,2.8735,2.9138,2.957,2.9786,3.0073,3.0445,3.1016,3.1088,3.1414,3.2339,3.242,3.2723,3.3449,3.3518,3.3483,3.3396,3.3138,3.2979,3.3013,3.2368,3.2029,3.2029,3.1612,3.1286,3.1032,3.1,3.0833,3.0441,3.0079,2.9916,0.0,0.0,0.0,0.0,0.0,0.0,2.765,2.7602,2.7587,0.0,0.0,0.0,0.0,0.0,0.0,0.0,0.0,0.0,0.0,0.0,0.0,0.0,0.0,0.0,0.0,0.0,2.852,2.7671,2.7344,2.7292,2.7526,2.8526,2.9013,2.8904,2.8897,2.8842,2.8771,2.8636,2.8573,2.8589,2.8468,2.8411,2.8411,2.8323,2.8667,2.9276,2.9237,2.9652,3.0369,3.0294,3.0294,3.0346,3.0159,2.9721,2.9139,2.8953,2.8463,2.796,2.8501,2.8576,2.8569,2.9099,2.9561,2.9954,2.9932,2.9744,2.9549,2.9549,2.8978,2.8386,2.8307,2.8267,2.8227,2.8148,2.8108,2.7919,2.7214,2.7108,2.7336,2.8042,2.8595,2.8911,2.897,2.9397,2.9842,3.0347,3.0466,3.0668,3.1208,3.1311,3.1311,3.1444,3.1444,3.166,3.2244,3.2292,3.2498,3.2898,3.2875,3.2852,3.283,3.1991,3.1538,3.1538,3.0659,3.0209,3.0209,3.0197,2.9758,2.8978,2.9358,2.9565,0.0,0.0,0.0,0.0,0.0,0.0,2.7757,2.7557,2.7526,0.0,0.0,0.0,0.0,0.0,0.0,0.0,0.0,0.0,0.0,0.0,0.0,0.0,0.0,0.0,0.0,0.0,2.7601,2.6512,2.687,2.7137,2.7195,2.8295,2.8943,2.8904,2.8748,2.8645,2.8636,2.8493,2.8444,2.8444,2.8396,2.8411,2.8372,2.791,2.8016,2.8554,2.8133,2.8618,2.9639,2.9001,2.9057,2.9532,2.949,2.9026,2.8327,2.8105,2.8246,2.8528,2.8449,2.8734,2.909,2.8942,2.8961,2.9013,2.8813,2.8709,2.8664,2.8664,2.8545,2.8267,2.7609,2.7406,2.7255,2.6528,2.6373,2.6332,2.6188,2.6455,2.6773,2.6932,2.7053,2.7242,2.762,2.8055,2.841,2.8499,2.8889,2.9225,2.9325,2.9336,2.9635,3.0384,3.0474,3.0955,3.2199,3.2292,3.2319,3.2455,3.2095,3.186,3.1895,3.1351,3.1042,3.1042,3.0493,3.0209,3.0209,3.0207,3.0119,2.9925,3.0024,3.0067,0.0,0.0,0.0,3.011,0.0,0.0,0.0,2.7745,2.7452,0.0,0.0,0.0,0.0,0.0,0.0,0.0,0.0,0.0,0.0,0.0,0.0,0.0,0.0,0.0,0.0,0.0,2.6557,2.5607,2.6509,2.7077,2.6997,2.8205,2.885,2.8756,2.8668,2.8565,2.8493,2.842,2.8411,2.8411,2.8097,2.7959,2.7949,2.7669,2.7895,2.8473,2.8167,2.8566,2.9357,2.8588,2.8402,2.8546,2.8546,2.83,2.7961,2.8052,2.8022,2.8035,2.8933,2.8916,2.8561,2.9101,2.8946,2.8572,2.8421,2.8108,2.773,2.7284,2.7162,2.704,2.6663,2.6539,2.6456,2.6021,2.6092,2.6267,2.6267,2.6638,2.6998,2.7106,2.716,2.7269,2.7587,2.808,2.8396,2.8396,2.865,2.8803,2.8803,2.8803,2.9077,2.9764,2.9833,3.0311,3.151,3.1626,3.1706,3.1934,3.1705,3.1606,3.1607,3.1389,3.1258,3.1258,3.104,3.0919,3.0919,3.0919,3.0679,3.022,3.045,3.0559,0.0,0.0,0.0,0.0,0.0,2.9074,0.0,0.0,0.0,0.0,0.0,0.0,0.0,0.0,0.0,0.0,0.0,0.0,0.0,0.0,0.0,0.0,0.0,0.0,0.0,0.0,2.5754,2.5235,2.6351,2.706,2.7083,2.8199,2.8771,2.8597,2.8573,2.8517,2.8411,2.8411,2.8348,2.821,2.773,2.7514,2.752,2.7445,2.7836,2.8512,2.835,2.8602,2.9026,2.8449,2.796,2.761,2.7743,2.7742,2.7686,2.8018,2.7745,2.7441,2.9079,2.88,2.7939,2.8883,2.8636,2.7919,2.7919,2.7447,2.6787,2.6104,2.5895,2.5895,2.5895,2.5895,2.5928,2.6016,2.6301,2.6563,2.6661,2.6998,2.7354,2.7562,2.7702,2.7812,2.795,2.8356,2.8664,2.8664,2.8664,2.8664,2.8664,2.874,2.8958,2.9397,2.9469,2.9872,3.0821,3.0848,3.1055,3.1545,3.1618,3.1618,3.1618,3.1618,3.1618,3.1618,3.1618,3.1618,3.1618,3.1578,3.1135,3.0395,3.0765,3.0939,0.0,0.0,0.0,0.0,3.0802,0.0,0.0,0.0,0.0,0.0,0.0,0.0,0.0,0.0,0.0,0.0,0.0,0.0,0.0,0.0,0.0,0.0,0.0,0.0,0.0,0.0,0.0,2.5876,2.654,2.7162,2.7751,2.8334,2.8621,2.8597,2.8493,2.8411,2.8411,2.8411,2.8122,2.759,2.754,2.7547,2.7563,2.7044,2.7353,2.8293,2.7748,2.7795,2.821,2.7954,2.7464,2.6879,2.753,2.7561,2.7188,2.7216,2.7384,2.7591,2.7789,2.8062,2.8223,2.7666,2.6899,2.6177,2.6177,2.6104,2.6021,2.5937,2.5895,2.5895,2.5895,2.5895,2.6005,2.6399,2.6357,2.6379,2.6865,2.7149,2.731,2.7317,2.7693,2.796,2.8006,2.8049,2.8081,2.8081,2.8081,2.8081,2.8081,2.8455,2.8839,2.9106,2.9289,2.9837,3.0804,3.0697,3.0864,3.1545,3.1618,3.1618,3.1618,3.1618,3.1618,3.1618,3.1618,3.1618,3.1618,3.1373,3.1165,3.1068,3.1122,3.1051,0.0,0.0,0.0,0.0,0.0,0.0,2.9937,0.0,2.8349,0.0,0.0,0.0,0.0,0.0,0.0,0.0,0.0,0.0,0.0,0.0,0.0,0.0,0.0,0.0,0.0,0.0,0.0,0.0,0.0,2.7127,2.7634,2.8248,2.8549,2.8493,2.8436,2.8596,2.8996,2.8231,2.8122,2.8584,2.7538,2.7236,2.7598,2.7266,2.7359,2.7771,2.779,2.7859,2.7901,2.7364,2.6913,2.6543,2.6706,2.6652,2.6492,2.6858,2.692,2.698,2.7786,2.7571,2.6887,2.6539,2.6177,2.5895,2.5895,2.5895,2.5895,2.5895,2.5895,2.5895,2.5895,2.5976,2.6141,2.6303,2.6603,2.6875,2.7134,2.6966,2.6941,2.7394,2.7143,2.6839,2.6696,2.7421,2.7998,2.7998,2.8221,2.8402,2.8402,2.8817,2.927,2.9657,2.976,3.0069,3.0783,3.0724,3.082,3.1116,3.1127,3.1127,3.1127,3.1281,3.1373,3.1373,3.1373,3.1373,3.1373,3.1075,3.0868,3.0754,3.092,3.0931,3.1875,0.0,0.0,0.0,0.0,0.0,0.0,0.0,0.0,0.0,0.0,0.0,0.0,0.0,0.0,0.0,0.0,0.0,0.0,0.0,0.0,0.0,0.0,0.0,0.0,0.0,0.0,0.0,2.6553,0.0,2.776,2.8262,2.8493,2.8411,2.8411,2.8621,2.9129,2.8217,2.8129,2.8899,2.757,2.7167,2.7529,2.7447,2.7444,2.7522,2.7879,2.7802,2.7364,2.6845,2.6386,2.5966,2.5768,2.5722,2.5878,2.6493,2.6488,2.6347,2.7348,2.6928,2.5895,2.5895,2.5895,2.5895,2.5895,2.5895,2.5895,2.5895,2.5895,2.5928,2.607,2.6183,2.6368,2.654,2.6761,2.6877,2.6956,2.6357,2.5945,2.6552,2.6061,2.547,2.5285,2.6498,2.7396,2.7109,2.7741,2.8198,2.8198,2.8901,2.9532,2.9931,3.0039,3.025,3.0754,3.0724,3.0724,3.0786,3.0786,3.0786,3.0786,3.0983,3.1075,3.1075,3.1075,3.1075,3.1075,3.0495,3.012,2.9953,3.0453,3.0453,0.0,0.0,0.0,3.18,0.0,0.0,0.0,0.0,3.0196,0.0,0.0,0.0,0.0,0.0,0.0,0.0,0.0,0.0,0.0,0.0,0.0,0.0,0.0,0.0,0.0,0.0,0.0,2.6775,2.6764,0.0,2.8504,2.8453,2.8396,2.8411,2.8411,2.8417,2.8435,2.8379,2.813,2.7678,2.7591,2.7511,2.7418,2.74,2.7544,2.7796,2.7809,2.731,2.6449,2.6414,2.5838,2.4964,2.4949,2.5058,2.5323,2.6064,2.615,2.5926,2.5979,2.5937,2.5895,2.5895,2.5895,2.5895,2.5895,2.5895,2.5895,2.5895,2.5895,2.6005,2.6442,2.6573,2.677,2.7459,2.6691,2.5836,2.6086,2.511,2.4187,2.4187,2.4187,2.4137,2.4137,2.5305,2.5931,2.4877,2.5984,2.6975,2.6975,2.8309,2.9433,2.9688,2.9912,3.0245,3.0724,3.0557,3.0505,3.0776,3.0786,3.0786,3.0786,3.0827,3.0827,3.0827,3.0827,3.0827,3.0827,2.946,2.8754,2.8754,2.99,2.9628,0.0,0.0,3.1004,3.1276,0.0,0.0,0.0,0.0,0.0,0.0,0.0,0.0,0.0,0.0,0.0,0.0,0.0,0.0,0.0,0.0,0.0,0.0,0.0,0.0,0.0,0.0,0.0,2.7333,2.73,2.7589,0.0,2.8852,2.9048,2.9048,2.9062,2.9294,2.9777,2.8491,2.821,2.8855,2.7916,2.7664,2.7991,2.7779,2.7722,2.7776,2.7129,2.6688,2.6349,2.5661,2.5195,2.4906,2.5049,2.5161,2.5215,2.5477,2.5716,2.5895,2.5895,2.5895,2.5895,2.5895,2.5895,2.5895,2.5895,2.5601,2.5338,2.577,2.5786,2.5851,2.6454,2.6315,2.6144,2.6752,2.5757,2.4744,2.5198,2.4097,2.3261,2.3939,2.3552,2.309,2.3326,2.4003,2.449,2.4587,2.5478,2.6175,2.6175,2.6901,2.7467,2.7564,2.7645,2.7741,2.7946,2.7892,2.8499,3.0151,2.9533,2.9428,3.0256,3.0453,3.0172,2.9408,2.9408,2.9039,2.8223,2.7571,2.7239,2.7239,2.7615,2.7571,3.0885,3.0703,0.0,0.0,3.0848,0.0,3.1447,0.0,0.0,0.0,0.0,0.0,0.0,0.0,0.0,0.0,0.0,0.0,0.0,0.0,0.0,0.0,0.0,0.0,0.0,0.0,2.6588,2.7572,2.755,2.7875,0.0,0.0,2.9419,2.9387,2.9399,2.9542,2.9783,2.8552,2.8296,2.9079,2.8139,2.786,2.8105,2.7908,2.761,2.7276,2.6654,2.6216,2.5814,2.5182,2.4941,2.5031,2.5165,2.5314,2.5426,2.5426,2.5633,2.5895,2.5895,2.5895,2.5895,2.5895,2.5728,2.5549,2.5549,2.5073,2.4594,2.502,2.5143,2.5277,2.5698,2.5594,2.5473,2.5737,2.4725,2.3741,2.3998,2.2911,2.2123,2.2802,2.2528,2.2195,2.2411,2.287,2.3342,2.3765,2.4748,2.5433,2.5433,2.6064,2.6481,2.6481,2.6481,2.6481,2.6481,2.6481,2.714,2.8678,2.8019,2.7956,2.8731,2.8933,2.8648,2.7946,2.7946,2.7508,2.6762,2.6173,2.5899,2.5899,2.5461,2.5241]}]]